[[{"header":{"parameterUnit":"m.s-1","parameterCategory":1,"la1":31.0,"la2":29.5877,"lo1":-88.7671,"lo2":-86.6584,"dx":0.0162,"dy":0.0185,"nx":115,"ny":88,"refTime":"2023-01-27T18:00:00:Z","depth":0,"parameterNumber":2,"parameterNumberName":"U-component_of_WINDS"},"data":[0.0,0.0,0.0,0.0,0.0,0.0,0.0,0.0,0.0,0.0,0.0,0.0,0.0,0.0,0.0,0.0,0.0,0.0,0.0,0.0,0.0,0.0,0.0,0.0,0.0,0.0,0.0,0.0,0.0,0.0,0.0,0.0,0.0,0.0,0.0,0.0,0.0,0.0,0.0,0.0,0.0,0.0,0.0,0.0,0.0,0.0,0.0,0.0,0.0,0.0,0.0,0.0,0.0,0.0,0.0,0.0,0.0,0.0,0.0,0.0,0.0,0.0,0.0,0.0,0.0,0.0,0.0,0.0,0.0,0.0,0.0,0.0,0.0,0.0,0.0,0.0,0.0,0.0,0.0,0.0,0.0,0.0,0.0,0.0,0.0,0.0,0.0,0.0,0.0,0.0,0.0,0.0,0.0,0.0,0.0,0.0,0.0,0.0,0.0,0.0,0.0,0.0,0.0,0.0,0.0,0.0,0.0,0.0,0.0,0.0,0.0,0.0,0.0,0.0,0.0,0.0,0.0,0.0,0.0,0.0,0.0,0.0,0.0,0.0,0.0,0.0,0.0,0.0,0.0,0.0,0.0,0.0,0.0,0.0,0.0,0.0,0.0,0.0,0.0,0.0,0.0,0.0,0.0,0.0,0.0,0.0,0.0,0.0,0.0,0.0,0.0,0.0,0.0,0.0,0.0,0.0,0.0,0.0,0.0,0.0,0.0,0.0,0.0,0.0,0.0,0.0,0.0,0.0,0.0,0.0,0.0,0.0,0.0,0.0,0.0,0.0,0.0,0.0,0.0,0.0,0.0,0.0,0.0,0.0,0.0,0.0,0.0,0.0,0.0,0.0,0.0,0.0,0.0,0.0,0.0,0.0,0.0,0.0,0.0,0.0,0.0,0.0,0.0,0.0,0.0,0.0,0.0,0.0,0.0,0.0,0.0,0.0,0.0,0.0,0.0,0.0,0.0,0.0,0.0,0.0,0.0,0.0,0.0,0.0,0.0,0.0,0.0,0.0,0.0,0.0,0.0,0.0,0.0,0.0,0.0,0.0,0.0,0.0,0.0,0.0,0.0,0.0,0.0,0.0,0.0,0.0,0.0,0.0,0.0,0.0,0.0,0.0,0.0,0.0,0.0,0.0,0.0,0.0,0.0,0.0,0.0,0.0,0.0,0.0,0.0,0.0,0.0,0.0,0.0,0.0,0.0,0.0,0.0,0.0,0.0,0.0,0.0,0.0,0.0,0.0,0.0,0.0,0.0,0.0,0.0,0.0,0.0,0.0,0.0,0.0,0.0,0.0,0.0,0.0,0.0,0.0,0.0,0.0,0.0,0.0,0.0,0.0,0.0,0.0,0.0,0.0,0.0,0.0,0.0,0.0,0.0,0.0,0.0,0.0,0.0,0.0,0.0,0.0,0.0,0.0,0.0,0.0,0.0,0.0,0.0,0.0,0.0,0.0,0.0,0.0,0.0,0.0,0.0,0.0,0.0,0.0,0.0,0.0,0.0,0.0,0.0,0.0,0.0,0.0,0.0,0.0,0.0,0.0,0.0,0.0,0.0,0.0,0.0,0.0,0.0,0.0,0.0,0.0,0.0,0.0,0.0,0.0,0.0,0.0,0.0,0.0,0.0,0.0,0.0,0.0,0.0,0.0,0.0,0.0,0.0,0.0,0.0,0.0,0.0,0.0,0.0,0.0,0.0,0.0,0.0,0.0,0.0,0.0,0.0,0.0,0.0,0.0,0.0,0.0,0.0,0.0,0.0,0.0,0.0,0.0,0.0,0.0,0.0,0.0,0.0,0.0,0.0,0.0,0.0,0.0,0.0,0.0,0.0,0.0,0.0,0.0,0.0,0.0,0.0,0.0,0.0,0.0,0.0,0.0,0.0,0.0,0.0,0.0,0.0,0.0,0.0,0.0,0.0,0.0,0.0,0.0,0.0,0.0,0.0,0.0,0.0,0.0,0.0,0.0,0.0,0.0,0.0,0.0,0.0,0.0,0.0,0.0,0.0,0.0,0.0,0.0,0.0,0.0,0.0,0.0,0.0,0.0,0.0,0.0,0.0,0.0,0.0,0.0,0.0,0.0,0.0,0.0,0.0,0.0,0.0,0.0,0.0,0.0,0.0,0.0,0.0,0.0,0.0,0.0,0.0,0.0,0.0,0.0,0.0,0.0,0.0,0.0,0.0,0.0,0.0,0.0,0.0,0.0,0.0,0.0,0.0,0.0,0.0,0.0,0.0,0.0,0.0,0.0,0.0,0.0,0.0,0.0,0.0,0.0,0.0,0.0,0.0,0.0,0.0,0.0,0.0,0.0,0.0,0.0,0.0,0.0,0.0,0.0,0.0,0.0,0.0,0.0,0.0,0.0,0.0,0.0,0.0,0.0,0.0,0.0,0.0,0.0,0.0,0.0,0.0,0.0,0.0,0.0,0.0,0.0,0.0,0.0,0.0,0.0,0.0,0.0,0.0,0.0,0.0,0.0,0.0,0.0,0.0,0.0,0.0,0.0,0.0,0.0,0.0,0.0,0.0,0.0,0.0,0.0,0.0,0.0,0.0,0.0,0.0,0.0,0.0,0.0,0.0,0.0,0.0,0.0,0.0,0.0,0.0,0.0,0.0,0.0,0.0,0.0,0.0,0.0,0.0,0.0,0.0,0.0,0.0,0.0,0.0,0.0,0.0,0.0,0.0,0.0,0.0,0.0,0.0,0.0,0.0,0.0,0.0,0.0,0.0,0.0,0.0,0.0,0.0,0.0,0.0,0.0,0.0,0.0,0.0,0.0,0.0,0.0,0.0,0.0,0.0,0.0,0.0,0.0,0.0,0.0,0.0,0.0,0.0,0.0,0.0,0.0,0.0,0.0,0.0,0.0,0.0,0.0,0.0,0.0,0.0,0.0,0.0,0.0,0.0,0.0,0.0,0.0,0.0,0.0,0.0,0.0,0.0,0.0,0.0,0.0,0.0,0.0,0.0,0.0,0.0,0.0,0.0,0.0,0.0,0.0,0.0,0.0,0.0,0.0,0.0,0.0,0.0,0.0,0.0,0.0,0.0,0.0,0.0,0.0,0.0,0.0,0.0,0.0,0.0,0.0,0.0,0.0,0.0,0.0,0.0,0.0,0.0,0.0,0.0,0.0,0.0,0.0,0.0,0.0,0.0,0.0,0.0,0.0,0.0,0.0,0.0,0.0,0.0,0.0,0.0,0.0,0.0,0.0,0.0,0.0,0.0,0.0,0.0,0.0,0.0,0.0,0.0,0.0,0.0,0.0,0.0,0.0,0.0,0.0,0.0,0.0,0.0,0.0,0.0,0.0,0.0,0.0,0.0,0.0,0.0,0.0,0.0,0.0,0.0,0.0,0.0,0.0,0.0,0.0,0.0,0.0,0.0,0.0,0.0,0.0,0.0,0.0,0.0,0.0,0.0,0.0,0.0,0.0,0.0,0.0,0.0,0.0,0.0,0.0,0.0,0.0,0.0,0.0,0.0,0.0,0.0,0.0,0.0,0.0,0.0,0.0,0.0,0.0,0.0,0.0,0.0,0.0,0.0,0.0,0.0,0.0,0.0,0.0,0.0,0.0,0.0,0.0,0.0,0.0,0.0,0.0,0.0,0.0,0.0,0.0,0.0,0.0,0.0,0.0,0.0,0.0,0.0,0.0,0.0,0.0,0.0,0.0,0.0,0.0,0.0,0.0,0.0,0.0,0.0,0.0,0.0,0.0,0.0,0.0,0.0,0.0,0.0,0.0,0.0,0.0,0.0,0.0,0.0,0.0,0.0,0.0,0.0,0.0,0.0,0.0,0.0,0.0,0.0,0.0,0.0,0.0,0.0,0.0,0.0,0.0,0.0,0.0,0.0,0.0,0.0,0.0,0.0,0.0,0.0,0.0,0.0,0.0,0.0,0.0,0.0,0.0,0.0,0.0,0.0,0.0,0.0,0.0,0.0,0.0,0.0,0.0,0.0,0.0,0.0,0.0,0.0,0.0,0.0,0.0,0.0,0.0,0.0,0.0,0.0,0.0,0.0,0.0,0.0,0.0,0.0,0.0,0.0,0.0,0.0,0.0,0.0,0.0,0.0,0.0,0.0,0.0,0.0,0.0,0.0,0.0,0.0,0.0,0.0,0.0,0.0,0.0,0.0,0.0,0.0,0.0,0.0,0.0,0.0,0.0,0.0,0.0,0.0,0.0,0.0,0.0,0.0,0.0,0.0,0.0,0.0,0.0,0.0,0.0,0.0,0.0,0.0,0.0,0.0,0.0,0.0,0.0,0.0,0.0,-3.5837,0.0,0.0,0.0,0.0,0.0,0.0,0.0,0.0,0.0,0.0,0.0,0.0,0.0,0.0,0.0,0.0,0.0,0.0,0.0,0.0,0.0,0.0,0.0,0.0,0.0,0.0,0.0,0.0,0.0,0.0,0.0,0.0,0.0,0.0,0.0,0.0,0.0,0.0,0.0,0.0,0.0,0.0,0.0,0.0,0.0,0.0,0.0,0.0,0.0,0.0,0.0,0.0,0.0,0.0,0.0,0.0,0.0,0.0,0.0,0.0,0.0,0.0,0.0,0.0,0.0,0.0,0.0,0.0,0.0,0.0,0.0,0.0,0.0,0.0,0.0,0.0,0.0,0.0,0.0,0.0,0.0,0.0,0.0,0.0,0.0,0.0,0.0,0.0,0.0,0.0,0.0,0.0,0.0,0.0,0.0,0.0,0.0,0.0,0.0,0.0,0.0,0.0,0.0,0.0,0.0,0.0,0.0,0.0,0.0,0.0,-3.4798,-3.5269,-3.5252,-3.5467,-3.5991,0.0,0.0,0.0,0.0,0.0,0.0,0.0,0.0,0.0,0.0,0.0,0.0,0.0,0.0,0.0,0.0,0.0,0.0,0.0,0.0,0.0,0.0,0.0,0.0,0.0,0.0,0.0,0.0,0.0,0.0,0.0,0.0,0.0,0.0,0.0,0.0,0.0,0.0,0.0,0.0,0.0,0.0,0.0,0.0,0.0,0.0,0.0,0.0,0.0,0.0,0.0,0.0,0.0,0.0,0.0,0.0,0.0,0.0,0.0,0.0,0.0,0.0,0.0,0.0,0.0,0.0,0.0,0.0,0.0,0.0,0.0,0.0,0.0,0.0,0.0,0.0,0.0,0.0,0.0,0.0,0.0,0.0,0.0,0.0,0.0,0.0,0.0,0.0,0.0,0.0,0.0,0.0,0.0,0.0,0.0,0.0,0.0,0.0,0.0,0.0,0.0,0.0,0.0,0.0,0.0,0.0,0.0,0.0,0.0,0.0,0.0,0.0,-3.4895,-3.5212,-3.5981,0.0,0.0,0.0,0.0,0.0,0.0,0.0,0.0,0.0,0.0,0.0,0.0,0.0,0.0,0.0,0.0,0.0,0.0,0.0,0.0,0.0,0.0,0.0,0.0,0.0,0.0,0.0,0.0,0.0,0.0,0.0,0.0,0.0,0.0,0.0,0.0,0.0,0.0,0.0,0.0,0.0,0.0,0.0,0.0,0.0,0.0,0.0,0.0,0.0,0.0,0.0,0.0,0.0,0.0,0.0,0.0,0.0,0.0,0.0,0.0,0.0,0.0,0.0,0.0,0.0,0.0,0.0,0.0,0.0,0.0,0.0,0.0,0.0,0.0,0.0,0.0,0.0,0.0,0.0,0.0,0.0,0.0,0.0,0.0,0.0,0.0,0.0,0.0,0.0,0.0,0.0,0.0,0.0,0.0,0.0,0.0,0.0,0.0,0.0,0.0,0.0,0.0,0.0,0.0,0.0,0.0,0.0,0.0,0.0,0.0,-3.5553,-3.5601,-3.5593,0.0,-3.5992,0.0,0.0,0.0,0.0,0.0,0.0,0.0,0.0,0.0,0.0,0.0,0.0,0.0,0.0,0.0,0.0,0.0,0.0,0.0,0.0,0.0,0.0,0.0,0.0,0.0,0.0,0.0,0.0,0.0,0.0,0.0,0.0,0.0,0.0,0.0,0.0,0.0,0.0,0.0,0.0,0.0,0.0,0.0,0.0,0.0,0.0,0.0,0.0,0.0,0.0,0.0,0.0,0.0,0.0,0.0,0.0,0.0,0.0,0.0,0.0,0.0,0.0,0.0,0.0,0.0,0.0,0.0,0.0,0.0,0.0,0.0,0.0,0.0,0.0,0.0,0.0,0.0,0.0,0.0,0.0,0.0,0.0,0.0,0.0,0.0,0.0,0.0,0.0,0.0,0.0,0.0,0.0,0.0,0.0,0.0,0.0,0.0,0.0,0.0,0.0,0.0,0.0,0.0,0.0,0.0,0.0,0.0,0.0,0.0,0.0,-3.5621,-3.5713,-3.5713,-3.5519,0.0,0.0,0.0,0.0,0.0,0.0,0.0,0.0,0.0,0.0,0.0,0.0,0.0,0.0,0.0,0.0,0.0,0.0,0.0,0.0,0.0,0.0,0.0,0.0,0.0,0.0,0.0,0.0,0.0,0.0,0.0,0.0,0.0,0.0,0.0,0.0,0.0,0.0,0.0,0.0,0.0,0.0,0.0,0.0,0.0,0.0,0.0,0.0,0.0,0.0,0.0,0.0,0.0,0.0,0.0,0.0,0.0,0.0,0.0,0.0,0.0,0.0,0.0,0.0,0.0,0.0,0.0,0.0,0.0,0.0,0.0,0.0,0.0,0.0,0.0,0.0,0.0,0.0,0.0,0.0,0.0,0.0,0.0,0.0,0.0,0.0,0.0,0.0,0.0,0.0,0.0,0.0,0.0,0.0,0.0,0.0,0.0,0.0,0.0,0.0,0.0,0.0,0.0,0.0,0.0,0.0,0.0,0.0,0.0,0.0,-3.5319,-3.5218,-3.5263,-3.5318,-3.5076,-3.4568,0.0,0.0,0.0,0.0,0.0,0.0,0.0,0.0,0.0,0.0,0.0,0.0,0.0,0.0,0.0,0.0,0.0,0.0,0.0,0.0,0.0,0.0,0.0,0.0,0.0,0.0,0.0,0.0,0.0,0.0,0.0,0.0,0.0,0.0,0.0,0.0,0.0,0.0,0.0,0.0,0.0,0.0,0.0,0.0,0.0,0.0,0.0,0.0,0.0,0.0,0.0,0.0,0.0,0.0,0.0,0.0,0.0,0.0,0.0,0.0,0.0,0.0,0.0,0.0,0.0,0.0,0.0,0.0,0.0,0.0,0.0,0.0,0.0,0.0,0.0,0.0,0.0,0.0,0.0,0.0,0.0,0.0,0.0,0.0,0.0,0.0,0.0,0.0,0.0,0.0,0.0,0.0,0.0,0.0,0.0,0.0,0.0,0.0,0.0,0.0,0.0,0.0,0.0,0.0,0.0,0.0,0.0,0.0,-3.5331,-3.4595,-3.4172,-3.4205,-3.4342,-3.4417,0.0,0.0,0.0,0.0,0.0,0.0,0.0,0.0,0.0,0.0,0.0,0.0,0.0,0.0,0.0,0.0,0.0,0.0,0.0,0.0,0.0,0.0,0.0,0.0,0.0,0.0,0.0,0.0,0.0,0.0,0.0,0.0,0.0,0.0,0.0,0.0,0.0,0.0,0.0,0.0,0.0,0.0,0.0,0.0,0.0,0.0,0.0,0.0,0.0,0.0,0.0,0.0,0.0,0.0,0.0,0.0,0.0,0.0,0.0,0.0,0.0,0.0,0.0,0.0,0.0,0.0,0.0,0.0,0.0,0.0,0.0,0.0,0.0,0.0,0.0,0.0,0.0,0.0,0.0,0.0,0.0,0.0,0.0,0.0,0.0,0.0,0.0,0.0,0.0,0.0,0.0,0.0,0.0,0.0,0.0,0.0,0.0,0.0,0.0,0.0,0.0,0.0,0.0,0.0,0.0,0.0,0.0,0.0,0.0,-3.3993,-3.3654,-3.3697,-3.4135,-3.3761,-3.4032,0.0,0.0,0.0,0.0,0.0,0.0,0.0,0.0,0.0,0.0,0.0,0.0,0.0,0.0,0.0,0.0,0.0,0.0,0.0,0.0,0.0,0.0,0.0,0.0,0.0,0.0,0.0,0.0,0.0,0.0,0.0,0.0,0.0,0.0,0.0,0.0,0.0,0.0,0.0,0.0,0.0,0.0,0.0,0.0,0.0,0.0,0.0,0.0,0.0,0.0,0.0,0.0,0.0,0.0,0.0,0.0,0.0,0.0,0.0,0.0,0.0,0.0,0.0,0.0,0.0,0.0,0.0,0.0,0.0,0.0,0.0,0.0,0.0,0.0,0.0,0.0,0.0,0.0,0.0,0.0,0.0,0.0,0.0,0.0,0.0,0.0,0.0,0.0,0.0,0.0,0.0,0.0,0.0,0.0,0.0,0.0,0.0,0.0,0.0,0.0,0.0,0.0,0.0,0.0,0.0,0.0,0.0,0.0,0.0,-3.2716,0.0,-3.2879,-3.3342,-3.2929,-3.3199,0.0,0.0,0.0,0.0,0.0,0.0,0.0,0.0,0.0,0.0,0.0,0.0,0.0,0.0,0.0,0.0,0.0,0.0,0.0,0.0,0.0,0.0,0.0,0.0,0.0,0.0,0.0,0.0,0.0,0.0,0.0,0.0,0.0,0.0,0.0,0.0,0.0,0.0,0.0,0.0,0.0,0.0,0.0,0.0,0.0,0.0,0.0,0.0,0.0,0.0,0.0,0.0,0.0,0.0,0.0,0.0,0.0,0.0,0.0,0.0,0.0,0.0,0.0,0.0,0.0,0.0,0.0,0.0,0.0,0.0,0.0,0.0,0.0,0.0,0.0,0.0,0.0,0.0,0.0,0.0,0.0,0.0,0.0,0.0,0.0,0.0,0.0,0.0,0.0,0.0,0.0,0.0,0.0,0.0,0.0,0.0,0.0,0.0,0.0,0.0,0.0,0.0,0.0,0.0,0.0,0.0,0.0,0.0,-3.2443,-3.1648,-3.1597,-3.1684,-3.1734,-3.1806,-3.1875,0.0,0.0,0.0,0.0,0.0,0.0,0.0,0.0,0.0,0.0,0.0,0.0,0.0,0.0,0.0,0.0,0.0,0.0,0.0,0.0,0.0,0.0,0.0,0.0,0.0,0.0,0.0,0.0,0.0,0.0,0.0,0.0,0.0,0.0,0.0,0.0,0.0,0.0,0.0,0.0,0.0,0.0,0.0,0.0,0.0,0.0,0.0,0.0,0.0,0.0,0.0,0.0,0.0,0.0,0.0,0.0,0.0,0.0,0.0,0.0,0.0,0.0,0.0,0.0,0.0,0.0,0.0,0.0,0.0,0.0,0.0,0.0,0.0,0.0,0.0,0.0,0.0,0.0,0.0,0.0,0.0,0.0,0.0,0.0,0.0,0.0,0.0,0.0,0.0,0.0,0.0,0.0,0.0,0.0,0.0,0.0,0.0,0.0,0.0,0.0,0.0,0.0,0.0,0.0,0.0,0.0,0.0,0.0,0.0,-3.0981,-3.083,-3.1306,-3.2366,-3.1543,-3.1778,0.0,0.0,0.0,0.0,0.0,0.0,0.0,0.0,0.0,0.0,0.0,0.0,0.0,0.0,0.0,0.0,0.0,0.0,0.0,0.0,0.0,0.0,0.0,0.0,0.0,0.0,0.0,0.0,0.0,0.0,0.0,0.0,0.0,0.0,0.0,0.0,0.0,0.0,0.0,0.0,0.0,0.0,0.0,0.0,0.0,0.0,0.0,0.0,0.0,0.0,0.0,0.0,0.0,0.0,0.0,0.0,0.0,0.0,0.0,0.0,0.0,0.0,0.0,0.0,0.0,0.0,0.0,0.0,0.0,0.0,0.0,0.0,0.0,0.0,0.0,0.0,0.0,0.0,0.0,0.0,0.0,0.0,0.0,0.0,0.0,0.0,0.0,0.0,0.0,0.0,0.0,0.0,0.0,0.0,0.0,0.0,0.0,0.0,0.0,0.0,0.0,0.0,0.0,0.0,0.0,0.0,0.0,0.0,0.0,-3.1746,-3.1091,-3.1239,-3.23,-3.1506,-3.1615,-3.2743,0.0,0.0,0.0,0.0,0.0,0.0,0.0,0.0,0.0,0.0,0.0,0.0,0.0,0.0,0.0,0.0,0.0,0.0,0.0,0.0,0.0,0.0,0.0,0.0,0.0,0.0,0.0,0.0,0.0,0.0,0.0,0.0,0.0,0.0,0.0,0.0,0.0,0.0,0.0,0.0,0.0,0.0,0.0,0.0,0.0,0.0,0.0,0.0,0.0,0.0,0.0,0.0,0.0,0.0,0.0,0.0,0.0,0.0,0.0,0.0,0.0,0.0,0.0,0.0,0.0,0.0,0.0,0.0,0.0,0.0,0.0,0.0,0.0,0.0,0.0,0.0,0.0,0.0,0.0,0.0,0.0,0.0,0.0,0.0,0.0,0.0,0.0,0.0,0.0,0.0,0.0,0.0,0.0,0.0,0.0,0.0,0.0,0.0,0.0,0.0,0.0,0.0,0.0,0.0,0.0,0.0,0.0,0.0,-3.365,-3.234,-3.1718,-3.1823,-3.1791,-3.1435,0.0,0.0,0.0,0.0,0.0,0.0,0.0,0.0,0.0,0.0,0.0,0.0,0.0,0.0,0.0,0.0,0.0,0.0,0.0,0.0,0.0,0.0,0.0,0.0,0.0,0.0,0.0,0.0,0.0,0.0,0.0,0.0,0.0,0.0,0.0,0.0,0.0,0.0,0.0,0.0,0.0,0.0,0.0,0.0,0.0,0.0,0.0,0.0,0.0,0.0,0.0,0.0,0.0,0.0,0.0,0.0,0.0,0.0,0.0,0.0,0.0,0.0,0.0,0.0,0.0,0.0,0.0,0.0,0.0,0.0,0.0,0.0,0.0,0.0,0.0,0.0,0.0,0.0,0.0,0.0,0.0,0.0,0.0,0.0,0.0,0.0,0.0,0.0,0.0,0.0,0.0,0.0,0.0,0.0,0.0,0.0,0.0,0.0,0.0,0.0,0.0,0.0,0.0,0.0,0.0,0.0,0.0,0.0,0.0,-3.4356,-3.5286,-3.5552,-3.5035,-3.3449,-3.2502,0.0,0.0,0.0,0.0,0.0,0.0,0.0,0.0,0.0,0.0,0.0,0.0,0.0,0.0,0.0,0.0,0.0,0.0,0.0,0.0,0.0,0.0,0.0,0.0,0.0,0.0,0.0,0.0,0.0,0.0,0.0,0.0,0.0,0.0,0.0,0.0,0.0,0.0,0.0,0.0,0.0,0.0,0.0,0.0,0.0,0.0,0.0,0.0,0.0,0.0,0.0,0.0,0.0,0.0,0.0,0.0,0.0,0.0,0.0,0.0,0.0,0.0,0.0,0.0,0.0,0.0,0.0,0.0,0.0,0.0,0.0,0.0,0.0,0.0,0.0,0.0,0.0,0.0,0.0,0.0,0.0,0.0,0.0,0.0,0.0,0.0,0.0,0.0,0.0,0.0,0.0,0.0,0.0,0.0,0.0,0.0,0.0,0.0,0.0,0.0,0.0,0.0,0.0,0.0,0.0,0.0,0.0,0.0,-3.4775,-3.5533,-3.7114,-3.8074,-3.836,-3.5458,-3.3376,0.0,0.0,0.0,0.0,0.0,0.0,0.0,0.0,0.0,0.0,0.0,0.0,0.0,0.0,0.0,0.0,0.0,0.0,0.0,0.0,0.0,0.0,0.0,0.0,0.0,0.0,0.0,0.0,0.0,0.0,0.0,0.0,0.0,0.0,0.0,0.0,0.0,0.0,0.0,0.0,0.0,0.0,0.0,0.0,0.0,0.0,0.0,0.0,0.0,0.0,0.0,0.0,0.0,0.0,0.0,0.0,0.0,0.0,0.0,0.0,0.0,0.0,0.0,0.0,0.0,0.0,0.0,0.0,0.0,0.0,0.0,0.0,0.0,0.0,0.0,0.0,0.0,0.0,0.0,0.0,0.0,0.0,0.0,0.0,0.0,0.0,0.0,0.0,0.0,0.0,0.0,0.0,0.0,0.0,0.0,0.0,0.0,0.0,0.0,0.0,0.0,0.0,0.0,0.0,0.0,0.0,0.0,0.0,-3.5757,-3.6901,-3.8237,-3.9627,-4.0877,-3.724,-3.4164,0.0,0.0,0.0,0.0,0.0,0.0,0.0,0.0,0.0,0.0,0.0,0.0,0.0,0.0,0.0,0.0,0.0,0.0,0.0,0.0,0.0,0.0,0.0,0.0,0.0,0.0,0.0,0.0,0.0,0.0,0.0,0.0,0.0,0.0,0.0,0.0,0.0,0.0,0.0,0.0,0.0,0.0,0.0,0.0,0.0,0.0,0.0,0.0,0.0,0.0,0.0,0.0,0.0,0.0,0.0,0.0,0.0,0.0,0.0,0.0,0.0,0.0,0.0,0.0,0.0,0.0,0.0,0.0,0.0,0.0,0.0,0.0,0.0,0.0,0.0,0.0,0.0,0.0,0.0,0.0,0.0,0.0,0.0,0.0,0.0,0.0,0.0,0.0,0.0,0.0,0.0,0.0,0.0,0.0,0.0,0.0,0.0,0.0,0.0,0.0,0.0,0.0,0.0,0.0,0.0,0.0,0.0,0.0,-3.6526,-3.7646,-3.9628,-4.0517,-4.0176,-3.6936,-3.4693,0.0,0.0,0.0,0.0,0.0,0.0,0.0,0.0,0.0,0.0,0.0,0.0,0.0,0.0,0.0,0.0,0.0,0.0,0.0,0.0,0.0,0.0,0.0,0.0,0.0,0.0,0.0,0.0,0.0,0.0,0.0,0.0,0.0,0.0,0.0,0.0,0.0,0.0,0.0,0.0,0.0,0.0,0.0,0.0,0.0,0.0,0.0,0.0,-3.2553,0.0,0.0,0.0,0.0,0.0,0.0,0.0,0.0,0.0,0.0,0.0,0.0,0.0,0.0,0.0,0.0,0.0,0.0,0.0,0.0,0.0,0.0,0.0,0.0,0.0,0.0,0.0,0.0,0.0,0.0,0.0,0.0,0.0,0.0,0.0,0.0,0.0,0.0,0.0,0.0,0.0,0.0,0.0,0.0,0.0,0.0,0.0,0.0,0.0,0.0,0.0,0.0,0.0,0.0,0.0,0.0,0.0,0.0,0.0,-3.6266,-3.7523,-3.9524,-4.0366,-3.9835,-3.7031,-3.4871,0.0,0.0,0.0,0.0,0.0,0.0,0.0,0.0,0.0,0.0,0.0,0.0,0.0,0.0,0.0,0.0,0.0,0.0,0.0,0.0,0.0,0.0,0.0,0.0,0.0,0.0,0.0,0.0,0.0,0.0,0.0,0.0,0.0,0.0,0.0,0.0,0.0,0.0,0.0,0.0,0.0,0.0,0.0,0.0,0.0,0.0,0.0,0.0,0.0,0.0,0.0,0.0,0.0,0.0,0.0,0.0,0.0,0.0,0.0,0.0,0.0,0.0,0.0,0.0,0.0,0.0,0.0,0.0,0.0,0.0,0.0,0.0,0.0,0.0,0.0,0.0,0.0,0.0,0.0,0.0,0.0,0.0,0.0,0.0,0.0,0.0,0.0,0.0,0.0,0.0,0.0,0.0,0.0,0.0,0.0,0.0,0.0,0.0,0.0,0.0,0.0,0.0,0.0,0.0,0.0,0.0,0.0,-3.3695,-3.5759,-3.7261,-3.9006,-3.9854,-3.9683,-3.72,-3.4908,-3.299,0.0,0.0,0.0,0.0,0.0,0.0,0.0,0.0,0.0,0.0,0.0,0.0,0.0,0.0,0.0,0.0,0.0,0.0,0.0,0.0,0.0,0.0,0.0,0.0,0.0,0.0,0.0,0.0,0.0,0.0,0.0,0.0,0.0,0.0,0.0,0.0,0.0,0.0,-3.0423,-3.1361,0.0,0.0,0.0,0.0,0.0,0.0,0.0,0.0,-3.2753,0.0,0.0,0.0,0.0,0.0,0.0,0.0,0.0,0.0,0.0,0.0,0.0,0.0,0.0,0.0,0.0,0.0,0.0,0.0,0.0,0.0,0.0,0.0,0.0,0.0,0.0,0.0,0.0,0.0,0.0,0.0,0.0,0.0,0.0,0.0,0.0,0.0,0.0,0.0,0.0,0.0,0.0,0.0,0.0,0.0,0.0,0.0,0.0,0.0,0.0,0.0,0.0,0.0,0.0,0.0,0.0,-3.175,-3.3904,-3.6005,-3.807,-3.9271,-3.9589,-3.8869,-3.6939,-3.4944,-3.2998,0.0,0.0,0.0,0.0,0.0,0.0,0.0,0.0,0.0,0.0,0.0,0.0,0.0,0.0,0.0,0.0,0.0,0.0,0.0,0.0,0.0,0.0,0.0,0.0,0.0,0.0,0.0,0.0,0.0,0.0,0.0,0.0,0.0,0.0,0.0,0.0,0.0,0.0,0.0,-3.2799,-3.3237,0.0,0.0,0.0,0.0,0.0,0.0,0.0,0.0,-3.2758,0.0,0.0,0.0,0.0,0.0,0.0,0.0,0.0,0.0,0.0,0.0,0.0,0.0,0.0,0.0,0.0,0.0,0.0,0.0,0.0,0.0,0.0,0.0,0.0,0.0,0.0,0.0,0.0,0.0,0.0,0.0,0.0,0.0,0.0,0.0,0.0,0.0,0.0,0.0,0.0,0.0,0.0,0.0,0.0,0.0,0.0,0.0,0.0,0.0,0.0,0.0,0.0,0.0,0.0,0.0,-3.2295,-3.4036,-3.5684,-3.7168,-3.8144,-3.8205,-3.7409,-3.5851,-3.4358,0.0,0.0,0.0,0.0,0.0,0.0,0.0,0.0,0.0,0.0,0.0,0.0,0.0,0.0,0.0,0.0,0.0,0.0,0.0,0.0,0.0,0.0,0.0,0.0,0.0,0.0,0.0,0.0,0.0,0.0,0.0,0.0,0.0,0.0,0.0,0.0,0.0,0.0,0.0,0.0,-3.3105,-3.3472,-3.4199,0.0,0.0,0.0,0.0,0.0,0.0,-3.3191,-3.3042,0.0,0.0,0.0,0.0,0.0,0.0,0.0,0.0,0.0,0.0,0.0,0.0,0.0,0.0,0.0,0.0,0.0,0.0,0.0,0.0,0.0,0.0,0.0,0.0,0.0,0.0,0.0,0.0,0.0,0.0,0.0,0.0,0.0,0.0,0.0,0.0,0.0,0.0,0.0,0.0,0.0,0.0,0.0,0.0,0.0,0.0,0.0,0.0,0.0,0.0,0.0,0.0,0.0,0.0,0.0,-3.2632,-3.4147,-3.5344,-3.6178,-3.6992,-3.7011,-3.6215,-3.4892,-3.3789,0.0,0.0,0.0,0.0,0.0,0.0,0.0,0.0,0.0,0.0,0.0,0.0,0.0,0.0,0.0,0.0,0.0,0.0,0.0,0.0,0.0,0.0,0.0,0.0,0.0,0.0,0.0,0.0,0.0,0.0,0.0,0.0,0.0,0.0,0.0,0.0,0.0,0.0,0.0,0.0,0.0,-3.3556,-3.4519,-3.4231,0.0,0.0,0.0,0.0,-3.2975,-3.3656,0.0,0.0,0.0,0.0,0.0,0.0,0.0,0.0,0.0,0.0,0.0,0.0,0.0,0.0,0.0,0.0,0.0,0.0,0.0,0.0,0.0,0.0,0.0,0.0,0.0,0.0,0.0,0.0,0.0,0.0,0.0,0.0,0.0,0.0,0.0,0.0,0.0,0.0,0.0,0.0,0.0,0.0,0.0,0.0,0.0,0.0,0.0,0.0,0.0,0.0,0.0,0.0,0.0,0.0,0.0,0.0,-3.2709,-3.4196,-3.5382,-3.6197,-3.6973,-3.7011,-3.6196,-3.4892,-3.3808,0.0,0.0,0.0,0.0,0.0,0.0,0.0,0.0,0.0,0.0,0.0,0.0,0.0,0.0,0.0,0.0,0.0,0.0,0.0,0.0,0.0,0.0,0.0,0.0,0.0,0.0,0.0,0.0,0.0,0.0,0.0,0.0,0.0,0.0,0.0,0.0,0.0,0.0,0.0,0.0,0.0,-3.3801,-3.5131,-3.3722,-3.2815,0.0,0.0,-3.4455,-3.48,-3.5848,0.0,0.0,0.0,0.0,0.0,0.0,0.0,0.0,0.0,0.0,0.0,0.0,0.0,0.0,0.0,0.0,0.0,0.0,0.0,0.0,0.0,0.0,0.0,0.0,0.0,0.0,0.0,0.0,0.0,0.0,0.0,0.0,0.0,0.0,0.0,0.0,0.0,0.0,0.0,0.0,0.0,0.0,0.0,0.0,0.0,0.0,0.0,0.0,0.0,0.0,0.0,0.0,0.0,0.0,0.0,-3.2654,-3.3394,-3.4905,-3.5856,-3.6178,-3.6538,-3.6477,-3.5916,-3.4353,-3.3711,0.0,0.0,0.0,0.0,0.0,0.0,0.0,0.0,0.0,0.0,0.0,0.0,0.0,0.0,0.0,0.0,0.0,0.0,0.0,0.0,0.0,0.0,0.0,0.0,0.0,0.0,0.0,0.0,0.0,0.0,0.0,0.0,0.0,0.0,0.0,0.0,0.0,0.0,0.0,0.0,0.0,0.0,-3.4922,-3.4746,0.0,0.0,0.0,-3.418,-3.413,0.0,0.0,0.0,0.0,0.0,0.0,0.0,0.0,0.0,0.0,0.0,0.0,0.0,0.0,0.0,0.0,0.0,0.0,0.0,0.0,0.0,0.0,0.0,0.0,0.0,0.0,0.0,0.0,0.0,0.0,0.0,0.0,0.0,0.0,0.0,0.0,0.0,0.0,0.0,0.0,0.0,0.0,0.0,0.0,0.0,0.0,0.0,0.0,0.0,0.0,0.0,0.0,0.0,0.0,0.0,0.0,0.0,-3.3968,-3.5665,-3.6501,-3.6519,-3.6519,-3.636,-3.6002,-3.4867,0.0,0.0,0.0,0.0,0.0,0.0,0.0,0.0,0.0,0.0,0.0,0.0,0.0,0.0,0.0,0.0,0.0,0.0,0.0,0.0,0.0,0.0,0.0,0.0,0.0,0.0,0.0,-3.3872,0.0,0.0,0.0,0.0,0.0,0.0,0.0,0.0,0.0,0.0,0.0,0.0,0.0,0.0,-3.5718,-3.5125,-3.5729,-3.6265,0.0,0.0,-3.4284,-3.3991,-3.5259,-3.5577,0.0,0.0,0.0,0.0,0.0,0.0,0.0,0.0,0.0,0.0,0.0,0.0,0.0,0.0,0.0,0.0,0.0,0.0,0.0,0.0,0.0,0.0,0.0,0.0,0.0,0.0,0.0,0.0,0.0,0.0,0.0,0.0,0.0,0.0,0.0,0.0,0.0,0.0,0.0,0.0,0.0,0.0,0.0,0.0,0.0,0.0,0.0,0.0,0.0,0.0,0.0,0.0,0.0,0.0,0.0,-3.4164,-3.6287,-3.7413,-3.7413,-3.7355,-3.7192,-3.6925,-3.7349,-3.6754,0.0,0.0,0.0,0.0,0.0,0.0,0.0,0.0,0.0,0.0,0.0,0.0,0.0,0.0,0.0,0.0,0.0,0.0,0.0,0.0,0.0,0.0,0.0,0.0,0.0,0.0,0.0,0.0,0.0,0.0,0.0,0.0,0.0,0.0,0.0,0.0,0.0,0.0,0.0,0.0,0.0,-3.5534,-3.6236,-3.5937,-3.5786,0.0,0.0,-3.5411,-3.5663,-3.7118,-3.7271,-3.4515,0.0,0.0,0.0,0.0,0.0,0.0,0.0,0.0,0.0,0.0,0.0,0.0,0.0,0.0,0.0,0.0,0.0,0.0,0.0,0.0,0.0,0.0,0.0,0.0,0.0,0.0,0.0,0.0,0.0,0.0,0.0,0.0,0.0,0.0,0.0,0.0,0.0,0.0,0.0,0.0,0.0,0.0,0.0,0.0,0.0,0.0,0.0,0.0,0.0,0.0,0.0,0.0,0.0,-3.4383,-3.4856,-3.7071,-3.8493,-3.8947,-3.9005,-3.9041,-3.9093,-3.888,-3.8158,0.0,0.0,0.0,0.0,0.0,0.0,0.0,0.0,0.0,0.0,0.0,0.0,0.0,0.0,0.0,0.0,0.0,0.0,0.0,0.0,0.0,0.0,0.0,0.0,0.0,0.0,0.0,0.0,-3.5111,-3.4797,-3.3606,0.0,0.0,0.0,0.0,0.0,0.0,0.0,0.0,0.0,0.0,-3.5646,-3.612,-3.6366,0.0,0.0,-3.6117,-3.5354,-3.5498,-3.5649,-3.4988,-3.2991,-3.2056,0.0,0.0,0.0,0.0,0.0,0.0,0.0,0.0,0.0,0.0,0.0,0.0,0.0,0.0,0.0,0.0,0.0,0.0,0.0,0.0,0.0,0.0,0.0,0.0,0.0,0.0,0.0,0.0,0.0,0.0,0.0,0.0,0.0,0.0,0.0,0.0,0.0,0.0,0.0,0.0,0.0,0.0,0.0,0.0,0.0,0.0,0.0,0.0,0.0,0.0,0.0,0.0,-3.5546,-3.6125,-3.8365,-3.9766,-4.0317,-4.0539,-4.0575,-4.0439,-4.0364,-3.9784,0.0,0.0,0.0,0.0,0.0,0.0,0.0,0.0,0.0,0.0,0.0,0.0,0.0,0.0,0.0,0.0,0.0,0.0,0.0,0.0,0.0,0.0,0.0,0.0,0.0,0.0,0.0,0.0,-3.4864,-3.4506,-3.3228,0.0,0.0,0.0,0.0,0.0,0.0,0.0,0.0,0.0,0.0,-3.6404,-3.6055,-3.6556,-3.6847,-3.6548,-3.5225,-3.4257,-3.4158,-3.3277,-3.2205,-3.097,0.0,0.0,0.0,0.0,0.0,0.0,0.0,0.0,0.0,0.0,0.0,0.0,0.0,0.0,0.0,0.0,0.0,0.0,0.0,0.0,0.0,0.0,0.0,0.0,0.0,0.0,0.0,0.0,0.0,0.0,0.0,0.0,0.0,0.0,0.0,0.0,0.0,0.0,0.0,0.0,0.0,0.0,0.0,0.0,0.0,0.0,0.0,0.0,0.0,0.0,0.0,0.0,0.0,-3.792,-3.8067,-4.0152,-4.1336,-4.1396,-4.1897,-4.1644,-4.0643,-4.189,-4.1911,-4.0396,0.0,0.0,0.0,0.0,0.0,0.0,0.0,0.0,0.0,0.0,0.0,0.0,0.0,0.0,0.0,0.0,0.0,0.0,0.0,0.0,0.0,0.0,0.0,0.0,0.0,0.0,-3.2024,-3.2021,-3.2309,0.0,0.0,0.0,0.0,0.0,0.0,0.0,0.0,0.0,0.0,-3.739,-3.792,-3.6275,-3.6385,-3.5905,-3.4103,-3.2976,-3.2092,-3.1675,-3.0458,-2.9297,0.0,0.0,0.0,0.0,0.0,0.0,0.0,0.0,0.0,0.0,0.0,0.0,0.0,0.0,0.0,0.0,0.0,0.0,0.0,0.0,0.0,0.0,0.0,0.0,0.0,0.0,0.0,0.0,-3.6342,0.0,0.0,0.0,0.0,0.0,0.0,0.0,0.0,0.0,0.0,0.0,-4.1052,-4.0977,0.0,0.0,0.0,0.0,0.0,0.0,0.0,0.0,0.0,0.0,0.0,0.0,-3.8569,-3.813,-4.0768,-4.2479,-4.3031,-4.3099,-4.3108,-4.3108,-4.3578,-4.3213,-4.1907,0.0,0.0,0.0,0.0,0.0,0.0,0.0,0.0,0.0,0.0,0.0,0.0,0.0,0.0,0.0,0.0,0.0,0.0,0.0,0.0,0.0,0.0,0.0,0.0,0.0,-3.4226,0.0,0.0,0.0,0.0,0.0,0.0,0.0,0.0,0.0,0.0,0.0,-3.6163,-3.6738,-3.6762,-3.6304,-3.5308,-3.5228,-3.4736,0.0,0.0,0.0,0.0,0.0,0.0,0.0,0.0,0.0,0.0,0.0,0.0,0.0,0.0,-1.5183,-1.6467,-1.656,-1.6269,-1.5469,0.0,0.0,0.0,0.0,0.0,0.0,0.0,0.0,0.0,0.0,0.0,0.0,0.0,0.0,0.0,0.0,-3.8305,0.0,0.0,0.0,0.0,0.0,0.0,0.0,0.0,-4.139,-4.1851,-4.2618,-4.2533,-4.211,0.0,-4.1027,-3.9629,0.0,0.0,0.0,0.0,0.0,0.0,0.0,0.0,-3.9734,-3.896,-4.1609,-4.3319,-4.3828,-4.4007,-4.407,-4.4041,-4.4357,-4.391,-4.2623,-4.0831,-3.9464,0.0,0.0,0.0,0.0,0.0,0.0,0.0,0.0,0.0,0.0,0.0,0.0,0.0,0.0,0.0,0.0,0.0,0.0,0.0,0.0,0.0,0.0,0.0,-3.4391,0.0,0.0,0.0,0.0,0.0,0.0,0.0,0.0,0.0,-3.5256,-3.6571,-3.7365,-3.6918,-3.6753,-3.6055,-3.4359,0.0,0.0,0.0,0.0,0.0,0.0,0.0,-2.5382,-2.4021,-2.2471,-2.1253,-2.068,-1.8414,-1.6286,-1.5184,0.0,0.0,-1.368,-1.3825,-1.3671,-1.3165,-1.1961,-1.0864,-1.015,-0.7941,-0.5717,0.0,0.0,0.0,0.0,0.0,0.0,0.0,0.0,-3.9649,-3.9733,0.0,-4.0556,0.0,0.0,0.0,0.0,0.0,0.0,0.0,0.0,-4.4059,-4.4801,-4.4055,-4.4017,-4.3634,-4.2851,-4.2049,-4.1227,-4.0497,-4.0558,0.0,0.0,0.0,0.0,0.0,0.0,-4.15,-4.066,-4.2851,-4.3975,-4.3907,-4.4589,-4.452,-4.3553,-4.4355,-4.4113,-4.2642,-4.2039,-4.1009,-3.9431,-3.7986,0.0,0.0,0.0,0.0,0.0,0.0,0.0,0.0,0.0,0.0,0.0,0.0,0.0,0.0,0.0,0.0,0.0,0.0,0.0,0.0,-3.36,0.0,0.0,0.0,0.0,0.0,0.0,0.0,0.0,0.0,0.0,-3.595,-3.7619,-3.8294,-3.6322,0.0,0.0,0.0,0.0,-3.2276,-2.9295,-2.8101,-2.6722,-2.4671,-2.2809,-2.168,-2.1506,0.0,0.0,-1.7861,-1.6854,-1.5623,-1.4321,-1.2477,-1.0716,-0.9308,-1.0473,-1.138,-1.0982,-0.9784,-0.8834,-0.8058,-0.5007,-0.1904,-3.8454,0.0,0.0,0.0,0.0,-3.8563,-3.9449,-4.043,-4.1001,-4.1354,-4.1502,-4.1577,0.0,0.0,0.0,0.0,0.0,0.0,-4.2518,-4.3464,-4.3624,-4.4096,-4.4914,-4.4934,-4.48,-4.459,-4.4302,-4.4033,-4.3804,-4.3787,-4.2595,-4.0324,0.0,0.0,0.0,0.0,-4.2583,-4.2345,-4.4058,-4.4997,-4.5017,-4.5088,-4.5006,-4.4685,-4.4935,-4.471,-4.394,-4.3228,-4.2131,-4.0579,-3.9506,0.0,0.0,0.0,0.0,0.0,0.0,0.0,0.0,0.0,0.0,0.0,0.0,0.0,0.0,0.0,0.0,0.0,0.0,0.0,-3.4376,-3.5808,-3.6251,0.0,0.0,0.0,0.0,0.0,0.0,0.0,0.0,0.0,-3.7905,-3.8028,-3.7835,0.0,0.0,-3.4098,-3.2152,-3.0725,-2.9279,-2.7914,0.0,0.0,0.0,-2.2016,-2.1091,-1.9169,-1.7401,-1.5839,-1.4667,-1.4036,-1.3354,-1.2294,-1.1327,-1.0104,-0.8698,-0.8185,-0.8261,-0.816,-0.66,-0.513,-0.4632,-0.2469,-0.0297,-3.9336,-3.8754,-3.8588,-3.8684,-3.9052,-3.9995,-4.1102,-4.2228,-4.2731,-4.3059,-4.3272,-4.346,-4.3258,-4.2792,-4.2615,0.0,0.0,0.0,-4.352,-4.465,-4.4186,-4.446,-4.5319,-4.5357,-4.5489,-4.5755,-4.5449,-4.5428,-4.5693,-4.5063,-4.3829,-4.2056,0.0,0.0,-4.1137,-4.2763,-4.34,-4.3075,-4.4612,-4.5475,-4.5473,-4.5399,-4.5413,-4.5522,-4.5499,-4.5092,-4.4181,-4.3674,-4.2682,-4.1111,-4.0505,-3.9761,0.0,0.0,0.0,0.0,0.0,0.0,0.0,0.0,0.0,0.0,0.0,-3.5653,-3.4897,0.0,0.0,0.0,-3.6693,-3.6521,-3.6332,-3.7679,0.0,0.0,0.0,0.0,0.0,0.0,0.0,-3.7591,-3.9284,-4.002,-3.8824,-3.7965,-3.7264,-3.6745,-3.5221,-3.3361,-3.1209,0.0,-2.8438,-2.6598,-2.4592,-2.2665,-2.1184,-2.0732,-1.9652,-1.7071,-1.5344,-1.399,-1.2903,-1.255,-1.195,-1.0881,-1.0493,-0.9912,-0.8531,-0.7229,-0.6429,-0.7027,-0.5727,-0.4227,-0.3624,-0.1409,0.0705,-3.9878,-4.0068,-3.9719,-3.9923,-4.0556,-4.155,-4.2988,-4.4568,-4.4645,-4.4816,-4.5122,-4.5697,-4.5084,-4.3598,-4.3443,0.0,0.0,-4.4372,-4.4802,-4.5514,-4.5495,-4.5514,-4.5514,-4.5494,-4.5856,-4.6502,-4.5894,-4.599,-4.6617,-4.5246,-4.4499,-4.448,-4.4434,-4.3593,-4.2058,-4.3496,-4.3929,-4.3236,-4.4718,-4.5466,-4.5445,-4.5557,-4.5744,-4.6008,-4.5938,-4.5227,-4.3787,-4.3636,-4.2893,-4.1414,-4.1249,-4.1192,-4.1061,0.0,0.0,0.0,0.0,0.0,0.0,0.0,0.0,0.0,0.0,0.0,0.0,0.0,0.0,0.0,-4.0101,0.0,-3.951,-3.9498,0.0,0.0,0.0,-3.8454,-3.9327,-3.998,-4.0366,-4.0185,0.0,0.0,-3.9093,0.0,-3.6721,-3.6389,-3.5571,-3.3847,-3.0486,-2.9804,-2.8594,-2.5292,-2.3546,-2.1945,-2.0207,-1.8971,-1.7364,-1.5302,-1.3596,-1.2619,-1.2134,-1.175,-1.117,-0.9998,-0.9899,-0.9801,-0.8821,-0.6728,-0.5632,-0.6637,-0.5927,-0.4924,-0.3621,-0.1005,0.1208,-4.169,-4.1876,-4.1818,-4.1552,-4.138,-4.3614,-4.485,-4.5307,-4.5982,-4.6364,-4.6461,-4.5984,-4.5544,-4.5157,-4.5066,-4.5062,-4.5151,-4.5784,-4.6206,-4.6396,-4.6455,-4.6436,-4.6377,-4.6337,-4.6452,-4.6664,-4.7103,-4.7735,-4.8485,-4.7567,-4.7088,-4.7069,-4.6473,-4.5026,-4.2829,-4.3176,-4.3635,-4.4097,-4.4538,-4.5117,-4.5825,-4.588,-4.5987,-4.6138,-4.5507,-4.5026,-4.4663,-4.4034,-4.3493,-4.3105,-4.3078,-4.2747,-4.2073,-4.0813,0.0,0.0,0.0,0.0,0.0,0.0,0.0,0.0,0.0,-3.7694,-3.6771,0.0,-3.8147,0.0,-4.1418,-4.2956,-4.2507,-4.2904,0.0,0.0,-4.0812,-4.0331,-4.1003,-4.1361,-4.1341,-4.0912,-4.1559,-4.145,-3.9929,-3.843,-3.6816,-3.4988,-3.273,-3.101,-3.0229,-2.7346,-2.4999,-2.3748,-2.1779,-1.9817,-1.8486,-1.6736,-1.5227,-1.4076,-1.2926,-1.2145,-1.2047,-1.0974,-1.0092,-0.9801,-0.8612,-0.7621,-0.7325,-0.6429,-0.5532,-0.4933,-0.3929,-0.2821,-0.1511,0.0101,0.1509,-4.23,-4.2541,-4.2968,-4.2707,-4.2139,-4.4441,-4.5456,-4.5566,-4.6432,-4.6901,-4.7033,-4.6486,-4.6482,-4.6867,-4.6326,-4.6244,-4.6549,-4.6665,-4.6724,-4.6743,-4.6378,-4.6186,-4.6187,-4.6512,-4.6915,-4.7298,-4.7738,-4.837,-4.9121,-4.8432,-4.8049,-4.803,-4.7677,-4.6626,-4.4939,-4.4484,-4.4176,-4.3916,-4.44,-4.5084,-4.6005,-4.6066,-4.5943,-4.5631,-4.5182,-4.4583,-4.3828,-4.3376,-4.2944,-4.257,-4.251,-4.2446,-4.2348,-4.1069,-4.0402,0.0,0.0,0.0,0.0,0.0,0.0,0.0,0.0,0.0,0.0,0.0,-4.0755,0.0,-4.3652,0.0,-4.374,-4.4045,-4.3929,-4.3095,-4.2352,-4.2017,-4.2445,-4.2551,-4.2516,-4.2197,-4.2561,-4.2013,-3.9867,-3.817,-3.619,-3.3483,-3.0236,-2.8189,-2.8301,-2.6211,-2.4127,-2.2483,-2.0482,-1.8511,-1.6835,-1.474,-1.3307,-1.3017,-1.1755,-1.0685,-1.0881,-0.9899,-0.9118,-0.9019,-0.7928,-0.703,-0.693,-0.5932,-0.4933,-0.4433,-0.3429,-0.2118,-0.0806,0.0101,0.1007,-4.2626,-4.2902,-4.371,-4.3662,-4.3153,-4.476,-4.5591,-4.5858,-4.6723,-4.7077,-4.7052,-4.6931,-4.7307,-4.7979,-4.7104,-4.7088,-4.7644,-4.7106,-4.6877,-4.6762,-4.6051,-4.5686,-4.5724,-4.6455,-4.7185,-4.7836,-4.797,-4.8373,-4.9046,-4.8414,-4.8065,-4.7987,-4.8234,-4.7932,-4.7075,-4.6468,-4.5344,-4.3703,-4.4428,-4.5222,-4.6092,-4.5971,-4.5506,-4.4778,-4.4685,-4.3978,-4.2538,-4.2424,-4.2093,-4.1456,-4.1354,-4.1708,-4.2513,-4.1089,-4.0915,0.0,-4.0737,0.0,0.0,0.0,0.0,0.0,0.0,0.0,0.0,-4.3655,-4.4395,-4.5,-4.611,-4.6217,-4.4805,-4.4595,-4.4362,-4.3984,-4.3653,-4.349,-4.3661,-4.3545,-4.3479,-4.3479,-4.3479,-4.2345,-3.9442,-3.7691,-3.5665,-3.2066,-2.8598,-2.6228,-2.5705,-2.5279,-2.3846,-2.1194,-1.9222,-1.7095,-1.5317,-1.3108,-1.1848,-1.2145,-1.0681,-0.9118,-0.9608,-0.892,-0.8336,-0.8035,-0.7434,-0.6833,-0.6933,-0.5233,-0.4029,-0.4314,-0.351,-0.2311,-0.1107,-0.0402,0.0302,-4.4421,-4.455,-4.4794,-4.4801,-4.4829,-4.5829,-4.6715,-4.7488,-4.8326,-4.799,-4.6882,-4.6817,-4.66,-4.6252,-4.6624,-4.6474,-4.6071,-4.7261,-4.7492,-4.6876,-4.6702,-4.6626,-4.6645,-4.6742,-4.6915,-4.7145,-4.778,-4.8164,-4.8392,-4.8311,-4.7915,-4.7313,-4.8034,-4.7676,0.0,0.0,0.0,0.0,-4.5055,-4.5238,-4.6093,-4.4823,-4.4011,-4.3836,-4.3209,0.0,-4.3314,-4.2682,-4.2572,-4.3098,-4.3066,0.0,0.0,0.0,0.0,0.0,0.0,0.0,0.0,0.0,0.0,0.0,-4.4597,-4.4731,-4.5059,-4.5302,-4.5963,-4.7226,-4.7695,-4.8333,-4.9354,-4.8172,-4.7351,-4.7359,-4.5581,-4.4399,-4.4493,-4.393,-4.3479,-4.3479,-4.3479,-4.2345,-3.9525,-3.8668,-3.6248,-3.0904,-2.8582,-2.6425,-2.3527,-2.2863,-2.1817,-1.9935,-1.6965,-1.4734,-1.4478,-1.2425,-1.1161,-1.1658,-1.0485,-0.9312,-0.941,-0.873,-0.8137,-0.8233,-0.6628,-0.5525,-0.5822,-0.4124,-0.2908,-0.3065,-0.2958,-0.2377,-0.1105,-0.0697,-0.0198,-4.4962,0.0,-4.508,-4.4919,0.0,-4.5984,-4.6813,-4.7373,-4.8152,-4.8125,-4.7475,-4.7046,-4.6889,-4.6959,-4.6872,-4.6838,-4.6799,-4.7299,-4.7299,-4.6874,-4.6471,-4.6259,-4.6278,-4.7068,-4.726,-4.6968,-4.82,-4.8603,-4.827,-4.8314,-4.814,-4.7757,-4.8708,-4.8777,-4.803,-4.8899,-4.8767,-4.7445,-4.6536,-4.6501,-4.7302,-4.6454,-4.5753,-4.5335,0.0,0.0,0.0,0.0,0.0,0.0,0.0,0.0,0.0,0.0,0.0,-4.5847,-4.5479,-4.5776,-4.7012,-4.7183,-4.734,-4.7728,-4.7835,-4.7631,-4.7088,-4.7881,-4.87,-4.9349,-4.9137,-4.9137,-4.9543,-4.8385,-4.7395,-4.6941,-4.5571,-4.4605,-4.441,-4.3887,-4.3513,-4.3373,-4.2795,-4.1463,-3.9277,-3.7469,-3.46,-2.9655,-2.7172,-2.5182,-2.2678,-2.1863,-2.1042,-1.8816,-1.5752,-1.3511,-1.3232,-1.1663,-1.0293,-1.0498,-0.9612,-0.8825,-0.8825,-0.8333,-0.8038,-0.8035,-0.683,-0.5914,-0.6054,-0.4565,-0.3262,-0.3302,-0.2995,-0.2423,-0.1567,-0.1363,-0.0968,-4.5195,-4.5308,-4.5312,-4.4979,-4.4551,-4.599,-4.6664,-4.6761,0.0,0.0,0.0,-4.7216,-4.7309,-4.7979,-4.7234,-4.7278,-4.7836,-4.7201,-4.6836,-4.6663,-4.6086,-4.5834,-4.5892,-4.7393,-4.7699,-4.7003,-4.8388,-4.8673,-4.7912,-4.7923,-4.7992,-4.8089,-4.9187,-4.9893,-5.0179,-5.0256,-4.9919,-4.9178,-4.7994,-4.7757,-4.8477,-4.8097,-4.7546,-4.6855,-4.6899,-4.6632,-4.6014,-4.5983,-4.5972,-4.5972,-4.5285,-4.5267,-4.6022,-4.5467,-4.5576,-4.657,-4.6666,-4.7397,-4.8963,-4.9145,-4.9692,-5.0911,-5.0296,-4.9523,-4.872,-5.0057,-5.0952,-5.0981,-5.0245,-4.9477,-4.8806,-4.7727,-4.6726,-4.5899,-4.5151,-4.4592,-4.4269,-4.3799,-4.3391,-4.305,-4.2002,-4.036,-3.8289,-3.5926,-3.2492,-2.8439,-2.582,-2.3483,-2.1808,-2.1141,-2.0215,-1.771,-1.5,-1.3125,-1.2457,-1.0895,-0.9723,-0.9817,-0.9027,-0.8237,-0.8038,-0.8038,-0.8038,-0.8038,-0.7316,-0.6851,-0.6766,-0.5465,-0.4257,-0.408,-0.3499,-0.2748,-0.2182,-0.1993,-0.152,-4.6111,-4.6136,-4.6191,-4.6186,-4.6175,-4.6487,-4.6665,-4.6839,-4.7684,-4.7664,-4.6992,-4.6933,-4.6969,-4.7083,-4.6951,-4.6971,-4.7067,-4.6951,-4.6509,0.0,-4.6432,-4.6719,-4.6771,-4.7715,-4.7752,-4.705,-4.7314,-4.7028,-4.6325,-4.6287,-4.6313,-4.6647,-4.8002,-4.9519,-5.0825,-5.0952,-5.0869,-5.0644,-4.8416,-4.7553,-4.8205,-4.6673,-4.5857,-4.5877,-4.5907,-4.5866,-4.5905,-4.5958,-4.5906,-4.5906,-4.5744,-4.6032,-4.6858,-4.6789,-4.7453,-4.9098,-4.9262,-4.978,-5.0903,-5.1015,-5.0762,-5.0178,-4.9387,-4.9138,-4.9733,-5.0038,-5.0545,-5.1188,-5.0484,-4.9915,-4.9703,-4.8253,-4.7155,-4.6903,-4.5666,-4.4775,-4.4664,-4.4002,-4.3086,-4.1904,-4.1368,-3.9498,-3.6158,-3.4613,-3.2,-2.7328,-2.4975,-2.3503,-2.0639,-1.9613,-1.8672,-1.6706,-1.4327,-1.3006,-1.2635,-1.1077,-1.0006,-1.0199,-0.9608,-0.8726,-0.8137,-0.8024,-0.8028,-0.8038,-0.7334,-0.676,-0.6734,-0.5971,-0.502,-0.4374,-0.3987,-0.3622,-0.2605,-0.2233,-0.1964,-4.5669,-4.5715,-4.5786,-4.5851,-4.5913,-4.5975,-4.6071,-4.6184,-4.6567,-4.6529,-4.6223,-4.6664,-4.6928,-4.7031,-4.7372,-4.7582,-4.7664,-4.7582,-4.7139,-4.6414,-4.6773,-4.6738,-4.6448,-4.7249,-4.7481,-4.7198,-4.7675,-4.7719,-4.7389,-4.7398,-4.7421,-4.7517,-4.8241,-4.9207,-5.0296,-4.9878,-4.9557,-4.9427,-4.9246,-4.9276,-4.9459,-4.8529,-4.8105,-4.8405,-4.8275,-4.8345,-4.8657,-4.8629,-4.86,-4.86,-4.8585,-4.8763,-4.9135,-4.9142,-4.9558,-5.048,-5.0528,-5.0772,-5.1351,-5.0952,-5.0293,-4.938,-4.8938,-4.9055,-4.9926,-5.0465,-5.0915,-5.1313,-5.0584,-4.9863,-4.9432,-4.8157,-4.717,-4.6734,-4.5737,-4.5051,-4.4775,-4.4261,-4.3443,-4.2463,-4.099,-3.9159,-3.7086,-3.4105,-3.0998,-2.6966,-2.4188,-2.1212,-1.9139,-1.8703,-1.7855,-1.5866,-1.3951,-1.2807,-1.2446,-1.1077,-1.0096,-1.0395,-0.9805,-0.9122,-0.8226,-0.7987,-0.7957,-0.8004,-0.7463,-0.7324,-0.7406,-0.6526,-0.5565,-0.4926,-0.4124,-0.3492,-0.2469,-0.2384,-0.2411,-4.5742,-4.5767,-4.5891,-4.5838,-4.5744,-4.5975,-4.5992,-4.5913,-4.6086,-4.6144,-4.622,-4.649,-4.6769,-4.7075,-4.7407,-4.7692,-4.7936,-4.7706,-4.7275,-4.6809,-4.7152,-4.6954,-4.6435,-4.7455,-4.7918,-4.7723,-4.8457,-4.8694,-4.8401,-4.855,-4.8633,-4.856,-4.8362,-4.8677,-4.9401,-4.8708,-4.8225,-4.8147,-4.9404,-5.0026,-4.9932,-4.9839,-4.9977,-5.0337,-5.0331,-5.0529,-5.0941,-5.0941,-5.0906,-5.0906,-5.0909,-5.0909,-5.0874,-5.0861,-5.0937,-5.112,-5.1111,-5.118,-5.1338,-5.0567,-4.975,-4.9049,-4.8964,-4.9256,-4.9965,-5.0801,-5.1316,-5.1281,-5.0418,-4.9543,-4.8885,-4.7799,-4.6879,-4.6226,-4.5641,-4.5131,-4.4821,-4.4323,-4.35,-4.2519,-4.04,-3.8615,-3.6542,-3.2968,-2.9202,-2.6102,-2.2273,-1.9322,-1.8511,-1.8257,-1.7217,-1.5305,-1.3771,-1.2813,-1.197,-1.1282,-1.0592,-1.0395,-1.0096,-0.941,-0.8506,-0.7916,-0.7885,-0.7967,-0.7797,-0.7732,-0.7959,-0.7283,-0.6321,-0.5679,-0.491,-0.3954,-0.3025,-0.3245,-0.3257,-4.7513,-4.7592,-4.7622,-4.7337,-4.6743,-4.7453,-4.7375,-4.6913,-4.7528,-4.7875,-4.7663,-4.6355,-4.6257,-4.6738,-4.6277,-4.6497,-4.7212,-4.6375,-4.6138,-4.6348,-4.7641,-4.7942,-4.7431,-4.9531,-4.9944,-4.8743,-4.9293,-4.8967,-4.7888,-4.8359,-4.8594,-4.8417,-4.767,-4.763,-4.8221,-4.812,-4.7972,-4.791,-4.7939,-4.7968,-4.7914,-4.8344,-4.8808,-4.9333,-4.9896,-5.0427,-5.0813,-5.0906,-5.0906,-5.089,-5.0897,-5.0863,-5.081,-5.0757,-5.0819,-5.0996,-5.102,-5.1123,-5.1291,-5.0522,-4.9926,-4.9818,-4.9751,-4.9818,-5.0055,-5.0809,-5.1322,-5.114,-4.996,-4.9033,-4.873,-4.735,-4.6348,-4.6144,-4.5452,-4.4824,-4.4729,-4.4071,-4.2499,-3.9671,-3.9344,-3.7062,-3.2758,-3.0242,-2.7458,-2.3745,-2.1167,-1.9347,-1.8964,-1.8156,-1.6943,-1.4848,-1.3986,-1.3312,-1.197,-1.2073,-1.158,-1.031,-1.0493,-1.0096,-0.889,-0.8024,-0.7862,-0.7967,-0.789,-0.7799,-0.7847,-0.766,-0.7413,-0.6308,-0.5905,-0.5828,-0.4989,-0.4774,-0.4579,-4.7448,-4.7869,-4.7452,-4.7146,-4.6934,-4.7241,-4.749,-4.7644,-4.7952,-4.8105,-4.8029,-4.7355,-4.7619,-4.8456,-4.8025,-4.8395,-4.9297,-4.898,-4.8635,-4.8397,-4.9088,-4.8986,-4.8431,-4.9244,-4.9625,-4.9512,-4.9822,-4.9866,-4.9644,-4.9391,-4.9216,-4.8994,-4.7705,-4.7089,-4.7242,-4.6762,-4.6374,-4.6244,-4.6111,-4.5973,-4.6026,-4.7068,-4.7903,-4.8367,-4.863,-4.9179,-5.0014,-5.014,-5.0336,-5.0767,-5.0827,-5.081,-5.0812,-5.072,-5.08,-5.1027,-5.1171,-5.1057,-5.0653,-5.0192,-4.9944,-4.9952,-4.9936,-5.0111,-5.0674,-5.1084,-5.1316,-5.117,-4.9849,-4.8814,-4.8671,-4.7235,-4.6162,-4.6059,-4.5761,-4.5372,-4.4824,-4.4459,-4.3237,-4.0736,-3.9542,-3.7872,-3.4297,-3.0725,-2.6772,-2.2572,-2.0249,-1.9338,-1.9147,-1.7677,-1.59,-1.4376,-1.3896,-1.3414,-1.2365,-1.197,-1.1868,-1.1668,-1.176,-1.1365,-0.9579,-0.8874,-0.8631,-0.811,-0.7969,-0.7893,-0.7782,-0.7745,-0.7507,-0.6601,-0.5662,-0.5481,-0.5472,-0.5636,-0.5779,-4.8124,-4.8604,-4.8087,-4.776,-4.7605,-4.7855,-4.8144,-4.8471,-4.8702,-4.8798,-4.8797,-4.8601,-4.9032,-4.9803,-4.9367,-4.9556,-5.0254,-5.0305,-5.0072,-4.9742,-4.9921,-4.9625,-4.8984,-4.9424,-4.9739,-5.0089,-5.0302,-5.0653,-5.0899,-4.9594,-4.9015,-4.8897,-4.7388,-4.6454,-4.6301,-4.5607,-4.5254,-4.5103,-4.4919,-4.477,-4.4881,-4.5881,-4.6841,-4.7444,-4.7695,-4.8336,-4.9495,-4.957,-4.9939,-5.0735,-5.0793,-5.0775,-5.0775,-5.072,-5.0786,-5.1058,-5.1291,-5.1141,-5.0493,-5.0366,-5.0316,-5.0327,-5.0285,-5.053,-5.1069,-5.1274,-5.1199,-5.0897,-4.9643,-4.8747,-4.8652,-4.7237,-4.6225,-4.6086,-4.5929,-4.5448,-4.4872,-4.4649,-4.3434,-4.1047,-3.9688,-3.784,-3.4841,-3.0354,-2.5661,-2.2073,-2.024,-1.9239,-1.878,-1.7016,-1.5146,-1.4184,-1.3703,-1.3227,-1.2754,-1.2559,-1.2349,-1.2344,-1.2436,-1.2047,-1.0373,-1.0026,-0.9493,-0.8943,-0.8413,-0.7932,-0.7858,-0.7729,-0.7594,-0.685,-0.6169,-0.5756,-0.6318,-0.6543,-0.678,-5.0469,-5.0411,-5.049,-4.9875,-4.9317,-4.999,-4.999,-4.9394,-5.0144,-5.051,-5.0373,-4.9827,-5.0012,-5.0666,-4.92,-4.8479,-4.8788,-4.8952,-4.9067,-4.9237,-4.9844,-4.9705,-4.9053,-5.0496,-5.085,-5.0288,-5.0769,-5.1027,-5.0782,-4.8497,-4.7491,-4.8047,-4.6493,-4.5515,-4.5473,-4.5271,-4.5125,-4.5038,-4.484,-4.4667,-4.4632,-4.4832,-4.5513,-4.6476,-4.7411,-4.8337,-4.9309,-4.9498,-4.9867,-5.0754,-5.0738,-5.0701,-5.0701,-5.0664,-5.0736,-5.1011,-5.1255,-5.1381,-5.1304,-5.1246,-5.1195,-5.1147,-5.1044,-5.1139,-5.1127,-5.1152,-5.0871,-5.0195,-4.916,-4.8571,-4.8535,-4.7132,-4.6177,-4.6045,-4.5391,-4.4975,-4.4824,-4.4083,-4.2374,-4.0087,-3.8992,-3.6395,-3.0824,-2.7036,-2.465,-2.2287,-2.0854,-1.9753,-1.8403,-1.6741,-1.5235,-1.4274,-1.3703,-1.313,-1.2365,-1.2657,-1.2748,-1.2834,-1.2829,-1.2441,-1.1681,-1.0946,-1.0391,-0.9875,-0.9502,-0.8859,-0.8133,-0.7801,-0.7782,-0.7492,-0.7407,-0.7372,-0.751,-0.7604,-0.7833,-4.8991,-4.9048,-4.9644,-4.9702,-4.9451,-4.922,-4.9527,-5.0275,-5.0124,-5.0339,-5.0692,-5.061,-5.0693,-5.0927,-5.0331,-5.0131,-5.0245,-5.0263,-5.0347,-5.0527,-5.0795,-5.0786,-5.0614,-5.1162,-5.1219,-5.0925,-5.1064,-5.1076,-5.072,-4.9195,-4.8317,-4.7856,-4.6719,-4.5791,-4.5287,-4.5038,-4.4919,-4.484,-4.4712,-4.4659,-4.4738,-4.4857,-4.5179,-4.5681,-4.6089,-4.7069,-4.8619,-4.8658,-4.9294,-5.0682,-5.0721,-5.0702,-5.0702,-5.081,-5.0902,-5.1011,-5.1215,-5.1333,-5.1327,-5.1304,-5.1264,-5.1203,-5.1211,-5.0908,-5.0536,-5.0419,-5.0116,-4.9271,-4.8334,-4.784,-4.7656,-4.6733,-4.601,-4.5979,-4.5576,-4.5111,-4.4668,-4.3614,-4.183,-3.9484,-3.7102,-3.348,-3.0485,-2.7905,-2.571,-2.3008,-2.1471,-2.018,-1.8372,-1.6445,-1.4943,-1.3692,-1.342,-1.3244,-1.2662,-1.3055,-1.3437,-1.3619,-1.3607,-1.3125,-1.249,-1.2185,-1.1716,-1.0923,-1.0455,-1.0178,-0.954,-0.8946,-0.8663,-0.816,-0.8169,-0.8567,-0.874,-0.871,-0.9116,-4.895,-4.9065,-4.9604,-4.9892,-4.9833,-4.9274,-4.9697,-5.0731,-5.0293,-5.0385,-5.0816,-5.1063,-5.1111,-5.1102,-5.1174,-5.1225,-5.1252,-5.1229,-5.1283,-5.1402,-5.1389,-5.139,-5.1386,-5.1349,-5.1295,-5.1189,-5.1113,-5.0942,-5.0621,-4.974,-4.8795,-4.7846,-4.6873,-4.5944,-4.5166,-4.487,-4.4764,-4.4659,-4.4551,-4.4551,-4.464,-4.4838,-4.503,-4.514,-4.5323,-4.6301,-4.8084,-4.8179,-4.895,-5.0394,-5.0433,-5.0394,-5.0644,-5.0867,-5.0992,-5.1024,-5.1198,-5.1185,-5.0942,-5.0888,-5.0704,-5.0452,-5.0402,-5.0121,-4.9585,-4.9536,-4.9108,-4.8337,-4.7638,-4.7145,-4.6844,-4.6266,-4.5847,-4.5789,-4.552,-4.5166,-4.4695,-4.3132,-4.1181,-3.8722,-3.4946,-3.182,-2.9947,-2.8064,-2.5782,-2.3202,-2.2092,-2.0712,-1.8915,-1.7353,-1.567,-1.4244,-1.4064,-1.38,-1.3238,-1.3346,-1.3732,-1.3913,-1.4004,-1.3709,-1.3516,-1.3221,-1.2829,-1.2037,-1.1584,-1.1394,-1.0982,-1.0274,-0.9656,-0.8977,-0.9194,-0.9643,-0.9849,-0.991,-1.0037,-5.0661,-5.06,-5.0773,-5.0696,-5.0657,-5.0484,-5.0677,-5.0786,-5.0787,-5.0791,-5.1004,-5.1147,-5.123,-5.1291,-5.1325,-5.1385,-5.1365,-5.1326,-5.1347,-5.1391,-5.139,-5.1386,-5.1362,-5.1278,-5.12,-5.1156,-5.0913,-5.0736,-5.0546,-4.9735,-4.8783,-4.7724,-4.6987,-4.6168,-4.499,-4.4881,-4.4681,-4.4664,-4.4533,-4.4397,-4.4304,-4.4782,-4.5029,-4.4991,-4.5437,-4.6413,-4.7971,-4.8029,-4.8779,-5.026,-4.9817,-4.9798,-5.0394,-5.0743,-5.0945,-5.093,-5.1193,-5.0923,-5.0222,-5.009,-4.9742,-4.9226,-4.888,-4.8904,-4.8716,-4.8626,-4.8243,-4.7444,-4.7019,-4.6651,-4.6177,-4.5869,-4.5678,-4.5488,-4.5225,-4.4865,-4.424,-4.2845,-4.0627,-3.7552,-3.3499,-3.0969,-2.9859,-2.7566,-2.4882,-2.3587,-2.2541,-2.1471,-2.0025,-1.8824,-1.7972,-1.649,-1.5468,-1.4632,-1.4088,-1.3534,-1.3823,-1.4106,-1.4202,-1.4106,-1.4004,-1.3811,-1.3516,-1.2915,-1.2748,-1.2459,-1.1677,-1.1072,-1.0877,-1.0459,-1.074,-1.0791,-1.0896,-1.0886,-1.0337,-5.0428,-5.0002,-5.0561,-5.0829,-5.0786,-5.0245,-5.0281,-5.0793,-5.0425,-5.0529,-5.1035,-5.1258,-5.1324,-5.1304,-5.1367,-5.1398,-5.1394,-5.1374,-5.1385,-5.139,-5.1391,-5.1349,-5.1258,-5.121,-5.1113,-5.0961,-5.0773,-5.0644,-5.0525,-5.0061,-4.9325,-4.8485,-4.7965,-4.7284,-4.6288,-4.5669,-4.5283,-4.5196,-4.5126,-4.5126,-4.5312,-4.5519,-4.5727,-4.5932,-4.6282,-4.6797,-4.724,-4.7278,-4.8105,-4.9721,-4.8971,-4.8894,-4.9624,-4.9993,-5.0144,-5.0192,-5.0373,-5.0113,-4.9352,-4.9206,-4.9079,-4.8782,-4.8677,-4.8355,-4.7834,-4.7712,-4.7303,-4.6511,-4.6174,-4.5999,-4.5977,-4.5869,-4.5698,-4.5597,-4.5206,-4.4782,-4.4008,-4.2044,-3.8739,-3.5115,-3.2274,-3.0387,-2.904,-2.6755,-2.5073,-2.4039,-2.3153,-2.2082,-2.0451,-1.9645,-1.8257,-1.6383,-1.5927,-1.5576,-1.4752,-1.4202,-1.4202,-1.4298,-1.4394,-1.4298,-1.4298,-1.4298,-1.4004,-1.3884,-1.3712,-1.3284,-1.2502,-1.2107,-1.1895,-1.1722,-1.1667,-1.1869,-1.2011,-1.1783,-1.113,-5.0532,-5.014,-5.061,-5.0874,-5.0917,-5.031,-5.0429,-5.092,-5.0577,-5.0672,-5.1154,-5.1324,-5.1366,-5.1347,-5.1377,-5.1382,-5.139,-5.1386,-5.1349,-5.1317,-5.1316,-5.1287,-5.1208,-5.112,-5.1023,-5.0858,-5.0683,-5.0582,-5.0562,-5.0217,-4.9626,-4.8846,-4.8502,-4.79,-4.7051,-4.6379,-4.5978,-4.5947,-4.5842,-4.5904,-4.6079,-4.6361,-4.6556,-4.6767,-4.7145,-4.7164,-4.6971,-4.6913,-4.7528,-4.8586,-4.8375,-4.8413,-4.8894,-4.9141,-4.9264,-4.934,-4.9449,-4.9245,-4.8479,-4.8337,-4.81,-4.7859,-4.7762,-4.7509,-4.6941,-4.6766,-4.6445,-4.5956,-4.5722,-4.5711,-4.5859,-4.5712,-4.5557,-4.5384,-4.5187,-4.4345,-4.301,-4.1078,-3.7953,-3.4309,-3.1726,-3.0175,-2.8687,-2.6498,-2.5253,-2.4488,-2.3607,-2.2717,-2.1176,-2.0279,-1.8784,-1.7402,-1.6577,-1.6142,-1.5432,-1.4962,-1.4573,-1.4484,-1.449,-1.4394,-1.4298,-1.4298,-1.4202,-1.4106,-1.4052,-1.3945,-1.3256,-1.3267,-1.3165,-1.2926,-1.2732,-1.3,-1.316,-1.2684,-1.2138,-5.0941,-5.099,-5.0932,-5.099,-5.1081,-5.0918,-5.0979,-5.117,-5.1147,-5.1182,-5.1281,-5.1346,-5.1394,-5.1385,-5.139,-5.1391,-5.1369,-5.1335,-5.1265,-5.122,-5.121,-5.1197,-5.1144,-5.0995,-5.0874,-5.0775,-5.0644,-5.0562,-5.0457,-5.0212,-4.9632,-4.8829,-4.8636,-4.8097,-4.7443,-4.6955,-4.6788,-4.6757,-4.6648,-4.6615,-4.6693,-4.7081,-4.7403,-4.7435,-4.7773,-4.7721,-4.7201,-4.7105,-4.7317,-4.7855,-4.7875,-4.799,-4.816,-4.8372,-4.8577,-4.8774,-4.8808,-4.8567,-4.7947,-4.7858,-4.7502,-4.6924,-4.6846,-4.6201,-4.6263,-4.6302,-4.6111,-4.5746,-4.558,-4.5599,-4.5684,-4.5533,-4.5265,-4.5012,-4.4789,-4.3386,-4.0463,-3.9816,-3.7439,-3.3825,-3.1581,-3.0112,-2.8699,-2.6025,-2.5084,-2.4594,-2.3724,-2.294,-2.258,-2.156,-2.0459,-1.9174,-1.7887,-1.6987,-1.6372,-1.5629,-1.5343,-1.5343,-1.5159,-1.4777,-1.4394,-1.4298,-1.4298,-1.4298,-1.4298,-1.4298,-1.4196,-1.4004,-1.4004,-1.3811,-1.3908,-1.4202,-1.3908,-1.3312,-1.2813,-5.1056,-5.1069,-5.1056,-5.1097,-5.1172,-5.1132,-5.1132,-5.12,-5.1254,-5.1277,-5.1327,-5.1363,-5.1398,-5.1391,-5.1386,-5.1388,-5.1316,-5.1248,-5.123,-5.12,-5.1139,-5.1075,-5.0981,-5.0874,-5.0773,-5.0644,-5.0585,-5.0457,-5.0278,-5.0158,-4.9827,-4.9429,-4.9334,-4.9133,-4.8696,-4.8035,-4.7729,-4.7628,-4.7532,-4.7578,-4.7808,-4.8041,-4.8308,-4.851,-4.8316,-4.8067,-4.7798,-4.7778,-4.7201,-4.6355,-4.6913,-4.7528,-4.8047,-4.8245,-4.8561,-4.919,-4.9391,-4.9196,-4.8571,-4.8253,-4.8106,-4.8051,-4.7659,-4.7539,-4.677,-4.6712,-4.6351,-4.5863,-4.5566,-4.5586,-4.5541,-4.5451,-4.5208,-4.4687,-4.4055,-4.2559,-4.0433,-3.9092,-3.6985,-3.2416,-3.1289,-2.9859,-2.7475,-2.5946,-2.4871,-2.4605,-2.382,-2.3057,-2.2862,-2.2394,-2.1185,-2.0387,-1.9206,-1.8211,-1.7304,-1.6574,-1.6204,-1.6204,-1.6015,-1.5439,-1.4867,-1.4298,-1.4298,-1.4298,-1.4298,-1.4298,-1.4298,-1.4202,-1.4298,-1.4298,-1.4298,-1.4298,-1.4004,-1.3511,-1.3022,-5.1117,-5.1159,-5.1117,-5.1161,-5.1237,-5.1217,-5.1225,-5.1269,-5.1277,-5.1308,-5.134,-5.1382,-5.1372,-5.1356,-5.1316,-5.1281,-5.1267,-5.119,-5.1167,-5.1163,-5.1108,-5.1005,-5.0906,-5.0825,-5.0738,-5.0625,-5.0544,-5.0416,-5.0302,-5.0158,-5.0005,-4.986,-4.9835,-4.9673,-4.9401,-4.9002,-4.864,-4.8533,-4.8436,-4.8482,-4.8683,-4.8966,-4.9162,-4.9372,-4.9177,-4.9085,-4.8758,-4.8316,-4.7586,-4.6913,-4.6894,-4.7278,-4.797,-4.7835,-4.8203,-4.9078,-4.9213,-4.8905,-4.8296,-4.8011,-4.7784,-4.7611,-4.7684,-4.7618,-4.7109,-4.6997,-4.6712,-4.6775,-4.6244,-4.611,-4.6205,-4.5853,-4.5179,-4.4423,-4.3414,-4.2074,-4.0348,-3.9278,-3.6401,-3.3027,-3.1328,-3.0216,-2.6738,-2.5869,-2.5264,-2.456,-2.3734,-2.3309,-2.3047,-2.2492,-2.1784,-2.0826,-1.9695,-1.8495,-1.7956,-1.7419,-1.6951,-1.6951,-1.6298,-1.5818,-1.5248,-1.4484,-1.4298,-1.4298,-1.4298,-1.4298,-1.4298,-1.4298,-1.4298,-1.4298,-1.4298,-1.4298,-1.4004,-1.3902,-1.3414,-5.115,-5.1211,-5.115,-5.1181,-5.1289,-5.123,-5.1274,-5.1361,-5.1308,-5.1335,-5.1372,-5.1394,-5.133,-5.1292,-5.1239,-5.1201,-5.119,-5.1144,-5.1095,-5.1069,-5.1015,-5.0956,-5.0909,-5.0844,-5.0738,-5.0664,-5.0565,-5.0457,-5.0325,-5.0182,-5.0108,-5.0031,-4.9933,-4.9843,-4.9683,-4.955,-4.9469,-4.929,-4.9158,-4.9158,-4.9246,-4.9561,-4.9791,-4.9921,-5.0255,-5.0124,-4.9566,-4.897,-4.8413,-4.8375,-4.7528,-4.7586,-4.8066,-4.7626,-4.7897,-4.8662,-4.9038,-4.8722,-4.7975,-4.8177,-4.7708,-4.7481,-4.7805,-4.7597,-4.7846,-4.7921,-4.7921,-4.8241,-4.7274,-4.707,-4.7006,-4.635,-4.5339,-4.4455,-4.3435,-4.222,-4.0926,-3.9547,-3.7069,-3.3182,-3.2361,-3.0405,-2.7941,-2.631,-2.573,-2.5319,-2.4331,-2.3663,-2.314,-2.241,-2.1825,-2.1057,-1.9787,-1.8495,-1.8241,-1.8172,-1.7785,-1.7505,-1.648,-1.5818,-1.5343,-1.4771,-1.449,-1.4298,-1.4298,-1.4298,-1.4298,-1.4298,-1.4298,-1.4298,-1.4298,-1.4298,-1.4298,-1.4202,-1.3811,-5.1276,-5.1265,-5.1276,-5.1277,-5.1313,-5.1291,-5.1288,-5.132,-5.1303,-5.131,-5.1316,-5.1335,-5.1265,-5.1201,-5.119,-5.1178,-5.1132,-5.1102,-5.1062,-5.1,-5.0937,-5.0906,-5.0893,-5.0827,-5.0738,-5.0625,-5.0544,-5.0435,-5.0278,-5.0255,-5.0158,-4.9978,-5.0038,-4.9986,-4.9852,-4.9824,-4.9741,-4.9596,-4.9506,-4.9506,-4.9625,-4.983,-5.0068,-5.0298,-5.0567,-5.0643,-5.0545,-5.0278,-5.0144,-4.9778,-4.8836,-4.8336,-4.8913,-4.8893,-4.9174,-4.9856,-5.0152,-5.012,-5.0189,-5.0302,-5.0771,-5.0236,-5.0229,-5.0874,-5.0779,-5.0048,-4.9817,-4.9688,-4.8945,-4.8099,-4.7391,-4.6387,-4.557,-4.4859,-4.389,-4.2739,-4.1527,-4.0205,-3.754,-3.4583,-3.2974,-3.1692,-2.8322,-2.6878,-2.6328,-2.5999,-2.5166,-2.4303,-2.34,-2.2546,-2.1943,-2.1349,-2.0113,-1.8923,-1.8536,-1.8334,-1.7885,-1.7412,-1.6473,-1.5629,-1.5248,-1.4867,-1.449,-1.4298,-1.4298,-1.4298,-1.4298,-1.4298,-1.4298,-1.4298,-1.4298,-1.4298,-1.4298,-1.4298,-1.4298,-5.1296,-5.1303,-5.1302,-5.1308,-5.131,-5.1308,-5.131,-5.1293,-5.1297,-5.1284,-5.1267,-5.1267,-5.122,-5.1208,-5.1167,-5.1152,-5.1095,-5.1062,-5.102,-5.0956,-5.0906,-5.0909,-5.0877,-5.0827,-5.0738,-5.0645,-5.0544,-5.0416,-5.0325,-5.0278,-5.0212,-5.0089,-5.0158,-5.0133,-5.0012,-4.9986,-4.9925,-4.9788,-4.9655,-4.9655,-4.9759,-4.9955,-5.0256,-5.0547,-5.072,-5.0775,-5.0754,-5.0701,-5.0664,-5.0471,-4.9817,-4.9471,-4.9779,-4.9644,-4.9911,-5.0583,-5.0758,-5.074,-5.0943,-5.112,-5.1068,-5.0929,-5.1434,-5.1469,-5.1387,-5.0979,-5.0964,-5.0552,-5.0028,-4.9296,-4.8458,-4.7289,-4.6452,-4.5312,-4.4599,-4.3439,-4.181,-4.0381,-3.8521,-3.5483,-3.3908,-3.1787,-2.9473,-2.7789,-2.6149,-2.5573,-2.5219,-2.4336,-2.4011,-2.3176,-2.2426,-2.1573,-2.045,-1.9556,-1.8871,-1.8419,-1.7714,-1.7131,-1.6292,-1.5439,-1.4771,-1.458,-1.4298,-1.4298,-1.4298,-1.4298,-1.4298,-1.4298,-1.4298,-1.4298,-1.4298,-1.4298,-1.4298,-1.4298,-1.4298,-5.1291,-5.1304,-5.1307,-5.1301,-5.1307,-5.1288,-5.1274,-5.1288,-5.1269,-5.1249,-5.1201,-5.121,-5.1189,-5.1163,-5.1127,-5.1102,-5.1056,-5.1015,-5.0956,-5.0921,-5.0906,-5.0893,-5.088,-5.0846,-5.0738,-5.0682,-5.0565,-5.0438,-5.0412,-5.0367,-5.0278,-5.0259,-5.0278,-5.0231,-5.0139,-5.0133,-5.0057,-4.9925,-4.9788,-4.9741,-4.9797,-5.0032,-5.0363,-5.0756,-5.0846,-5.081,-5.081,-5.0757,-5.072,-5.0702,-5.0683,-5.0702,-5.051,-5.0125,-4.9971,-5.0837,-5.0837,-5.0779,-5.0952,-5.0952,-5.0721,-4.9816,-5.095,-5.142,-5.1028,-5.1084,-5.1185,-5.1131,-5.0741,-5.0366,-5.004,-4.8901,-4.7375,-4.6069,-4.5517,-4.4165,-4.2124,-4.0498,-3.9098,-3.6972,-3.5044,-3.2941,-3.0481,-2.8433,-2.6683,-2.5245,-2.4898,-2.458,-2.4188,-2.3467,-2.2609,-2.1562,-2.0355,-1.9914,-1.9304,-1.8422,-1.7792,-1.7044,-1.6177,-1.5363,-1.4694,-1.4394,-1.4298,-1.4298,-1.4298,-1.4298,-1.4298,-1.4298,-1.4298,-1.4298,-1.4298,-1.4298,-1.4298,-1.4298,-1.4298,-5.1297,-5.1299,-5.1304,-5.1302,-5.1289,-5.1225,-5.1239,-5.1225,-5.1211,-5.1206,-5.1206,-5.1214,-5.1163,-5.1127,-5.1108,-5.1062,-5.1015,-5.0971,-5.0956,-5.0956,-5.0921,-5.0893,-5.088,-5.0829,-5.0738,-5.0606,-5.0544,-5.05,-5.0457,-5.039,-5.0302,-5.0302,-5.0302,-5.0278,-5.0236,-5.0236,-5.0182,-5.0057,-4.9925,-4.986,-4.9922,-5.0106,-5.0406,-5.0841,-5.088,-5.088,-5.0863,-5.081,-5.0757,-5.072,-5.0682,-5.0683,-5.0664,-5.0491,-5.0798,-5.1164,-5.0932,-5.0776,-5.1207,-5.1463,-5.1335,-5.1089,-5.1438,-5.1839,-5.1711,-5.1535,-5.1518,-5.1475,-5.1282,-5.0894,-5.0172,-4.9691,-4.884,-4.7589,-4.6458,-4.5227,-4.3002,-4.1674,-4.0322,-3.7768,-3.6119,-3.4402,-3.1933,-2.9573,-2.771,-2.6496,-2.6101,-2.5346,-2.4516,-2.351,-2.2426,-2.1324,-2.0175,-1.9957,-1.9676,-1.8712,-1.7824,-1.7039,-1.6211,-1.5428,-1.4827,-1.4502,-1.431,-1.4914,-1.4672,-1.4298,-1.4298,-1.4304,-1.4298,-1.4298,-1.4298,-1.4298,-1.4298,-1.4298,-1.4298,-5.133,-5.1332,-5.1305,-5.1305,-5.1281,-5.123,-5.121,-5.122,-5.1217,-5.1202,-5.1202,-5.1202,-5.119,-5.1146,-5.1102,-5.1075,-5.1034,-5.0971,-5.0971,-5.0971,-5.0941,-5.0858,-5.0863,-5.081,-5.0739,-5.0644,-5.0563,-5.0478,-5.0438,-5.0348,-5.0302,-5.0302,-5.0302,-5.0302,-5.0302,-5.0278,-5.0231,-5.0108,-4.9959,-4.9879,-4.9868,-5.0081,-5.0448,-5.0771,-5.0893,-5.0897,-5.088,-5.0846,-5.0775,-5.0701,-5.0702,-5.0702,-5.0683,-5.0721,-5.0856,-5.1125,-5.0774,-5.0763,-5.1314,-5.1529,-5.1472,-5.179,-5.2148,-5.2285,-5.2216,-5.2058,-5.1839,-5.1525,-5.1036,-5.0785,-5.0749,-5.0472,-4.968,-4.8615,-4.745,-4.5603,-4.3649,-4.2734,-4.0685,-3.8164,-3.5916,-3.4271,-3.3216,-3.0949,-2.8892,-2.7851,-2.7369,-2.6224,-2.4982,-2.403,-2.2921,-2.1668,-2.071,-2.0146,-1.9838,-1.8927,-1.8222,-1.7412,-1.6594,-1.5796,-1.5467,-1.5377,-1.5784,-1.6326,-1.5693,-1.4703,-1.431,-1.4406,-1.4304,-1.4304,-1.4298,-1.4298,-1.4298,-1.4298,-1.4328,-5.1341,-5.1385,-5.1327,-5.1301,-5.1304,-5.123,-5.1206,-5.1214,-5.1214,-5.1202,-5.1202,-5.1202,-5.1202,-5.1159,-5.1114,-5.1089,-5.1101,-5.102,-5.0986,-5.099,-5.0925,-5.0861,-5.0791,-5.0775,-5.072,-5.0644,-5.0603,-5.0478,-5.0435,-5.0348,-5.0302,-5.0302,-5.0302,-5.0302,-5.0302,-5.0302,-5.0231,-5.0133,-4.9959,-4.9843,-4.9906,-5.013,-5.0469,-5.0858,-5.0906,-5.0893,-5.088,-5.0846,-5.0775,-5.072,-5.0644,-5.0604,-5.0604,-5.0604,-5.0641,-5.0675,-5.039,-5.0679,-5.0983,-5.0957,-5.0911,-5.1088,-5.217,-5.2001,-5.1668,-5.1424,-5.1825,-5.1061,-5.0972,-5.0787,-5.1139,-5.0842,-5.0148,-4.9205,-4.7759,-4.6069,-4.399,-4.2455,-4.0955,-3.8502,-3.585,-3.4014,-3.2924,-3.1981,-2.9784,-2.868,-2.8111,-2.7053,-2.5915,-2.5158,-2.4039,-2.2555,-2.1436,-2.0624,-1.9975,-1.9047,-1.8563,-1.8142,-1.7288,-1.6549,-1.6535,-1.664,-1.7071,-1.7168,-1.6104,-1.5212,-1.4764,-1.4551,-1.4666,-1.4666,-1.4424,-1.4394,-1.4682,-1.4678,-1.457,-5.1322,-5.1398,-5.1328,-5.1355,-5.1349,-5.1258,-5.122,-5.121,-5.1206,-5.1202,-5.1202,-5.1202,-5.1171,-5.1146,-5.1108,-5.1114,-5.1067,-5.1053,-5.1005,-5.099,-5.0929,-5.0863,-5.0793,-5.072,-5.0702,-5.0643,-5.0603,-5.0562,-5.0478,-5.0371,-5.0302,-5.0302,-5.0302,-5.0302,-5.0302,-5.0302,-5.0302,-5.0212,-5.0012,-4.9967,-5.0106,-5.0361,-5.0625,-5.0805,-5.089,-5.0893,-5.0899,-5.0846,-5.0775,-5.0682,-5.0485,-5.0358,-5.0272,-5.0272,-5.055,-5.0647,-5.0564,-5.0355,-5.0685,-5.0316,-5.0048,-5.0108,-5.0196,-4.9725,-5.0101,-5.0354,-5.0505,-4.9392,-5.0451,-5.1148,-5.1003,-5.0682,-5.0117,-4.9091,-4.7762,-4.5767,-4.3791,-4.1689,-4.0237,-3.835,-3.5601,-3.3856,-3.2561,-3.1704,-3.0812,-2.9795,-2.8855,-2.7704,-2.6365,-2.5421,-2.4571,-2.2959,-2.1651,-2.0756,-2.0365,-1.9411,-1.8959,-1.8748,-1.8088,-1.7428,-1.7633,-1.7747,-1.7669,-1.7505,-1.658,-1.6004,-1.5678,-1.5458,-1.5227,-1.4867,-1.457,-1.4774,-1.5153,-1.5107,-1.4845,-5.1371,-5.1328,-5.1307,-5.1301,-5.1323,-5.1239,-5.1211,-5.1201,-5.12,-5.1217,-5.1202,-5.1202,-5.119,-5.1178,-5.1166,-5.1153,-5.1108,-5.1048,-5.102,-5.0971,-5.0929,-5.0883,-5.0793,-5.072,-5.0683,-5.0663,-5.0623,-5.0582,-5.054,-5.0435,-5.0348,-5.0283,-5.0302,-5.0302,-5.0302,-5.0302,-5.0255,-5.0114,-4.9933,-4.9879,-5.0032,-5.0252,-5.0507,-5.0738,-5.0861,-5.0913,-5.0921,-5.0701,-5.0663,-5.0663,-5.0661,-5.0531,-5.0378,-5.0424,-5.0597,-5.0042,-5.0335,-5.0692,-5.1074,-5.0003,-4.9772,-5.0014,-5.0033,-5.0051,-5.0173,-5.0195,-5.0027,-4.9399,-5.0186,-5.0524,-5.0218,-4.9857,-4.9251,-4.8355,-4.7056,-4.5035,-4.2977,-4.1039,-3.9125,-3.7224,-3.5494,-3.3791,-3.2377,-3.1653,-3.0913,-3.0079,-2.9143,-2.81,-2.6365,-2.4632,-2.3881,-2.312,-2.1802,-2.0641,-2.0397,-1.991,-1.9408,-1.9179,-1.8981,-1.8454,-1.8662,-1.8777,-1.8606,-1.8629,-1.8389,-1.7726,-1.678,-1.5825,-1.5226,-1.4875,-1.4642,-1.5095,-1.5473,-1.5251,-1.5169,-5.1369,-5.1307,-5.1324,-5.1312,-5.13,-5.1239,-5.1201,-5.1211,-5.121,-5.1197,-5.1214,-5.1202,-5.1202,-5.1202,-5.1171,-5.1146,-5.1102,-5.1081,-5.102,-5.0975,-5.0913,-5.0846,-5.0793,-5.072,-5.0702,-5.0683,-5.0643,-5.0623,-5.0562,-5.0478,-5.0393,-5.0325,-5.0302,-5.0302,-5.0302,-5.0278,-5.0236,-5.0089,-4.9933,-4.9993,-5.0221,-5.0231,-5.0664,-5.0932,-5.1046,-5.1051,-5.1296,-5.0952,-5.0853,-5.0945,-5.0831,-5.0534,-5.013,-5.0155,-5.0199,-4.9872,-5.0091,-5.0502,-5.071,-5.0315,-5.0062,-5.0176,-5.0083,-4.9362,-4.9933,-5.0123,-4.9815,-4.8901,-4.9524,-4.943,-4.8981,-4.8697,-4.7953,-4.6932,-4.5682,-4.3797,-4.1948,-4.0139,-3.8135,-3.6142,-3.4524,-3.342,-3.219,-3.1524,-3.0913,-3.026,-2.9418,-2.8484,-2.6662,-2.4445,-2.3583,-2.3029,-2.2123,-2.1003,-2.0498,-2.0238,-1.9888,-1.9717,-1.9517,-1.9588,-1.9682,-1.9618,-1.946,-1.9633,-1.9457,-1.8379,-1.6832,-1.6011,-1.5226,-1.5382,-1.5463,-1.5519,-1.5682,-1.5429,-1.5679,-5.1394,-5.1387,-5.1386,-5.1352,-5.13,-5.13,-5.1248,-5.1211,-5.1217,-5.1214,-5.1202,-5.1202,-5.1202,-5.119,-5.1159,-5.1134,-5.1081,-5.1034,-5.0971,-5.0925,-5.0844,-5.0827,-5.0775,-5.0758,-5.0702,-5.0702,-5.0683,-5.0643,-5.0603,-5.0521,-5.0457,-5.0412,-5.0325,-5.0302,-5.0302,-5.0302,-5.0231,-5.0152,-5.0126,-5.0499,-5.0736,-5.0909,-5.1181,-5.1928,-5.1645,-5.1483,-5.2681,-5.1916,-5.1465,-5.148,-5.1197,-5.0673,-5.0237,-5.024,-5.0282,-5.021,-5.0183,-5.0642,-5.0824,-5.0287,-4.9843,-4.9375,-4.8916,-4.8462,-4.8721,-4.892,-4.8581,-4.8206,-4.8794,-4.8847,-4.8175,-4.735,-4.6446,-4.5405,-4.4105,-4.2334,-4.0699,-3.9399,-3.7376,-3.5103,-3.3636,-3.255,-3.1765,-3.108,-3.0824,-3.017,-2.9143,-2.8204,-2.6587,-2.4758,-2.3683,-2.2911,-2.2325,-2.1522,-2.0712,-2.0451,-2.0397,-2.0389,-2.0335,-2.0358,-2.0601,-2.0444,-1.9884,-1.9191,-1.8729,-1.7857,-1.7187,-1.6568,-1.6209,-1.6251,-1.6306,-1.6175,-1.6075,-1.5997,-1.6581,-5.0278,-4.9902,-5.0931,-5.1386,-5.1361,-5.1323,-5.1292,-5.1267,-5.122,-5.1217,-5.1202,-5.1202,-5.1202,-5.1202,-5.1171,-5.1134,-5.1101,-5.1087,-5.0986,-5.0906,-5.0877,-5.0863,-5.0849,-5.0794,-5.0758,-5.0702,-5.0683,-5.0683,-5.0663,-5.0603,-5.0521,-5.0457,-5.0348,-5.0302,-5.0302,-5.0302,-5.025,-5.0348,-5.0577,-5.1045,-5.1052,-5.1787,-5.2177,-5.249,-5.2639,-5.2435,-5.2787,-5.2222,-5.2049,-5.1982,-5.1863,-5.1345,-5.0862,-5.0968,-5.098,-5.0951,-5.0906,-5.1249,-5.1081,-5.0193,-4.8822,-4.8652,-4.8696,-4.8779,-4.8331,-4.9181,-4.8928,-4.8529,-4.8016,-4.8085,-4.6783,-4.5753,-4.4766,-4.3831,-4.2537,-4.093,-3.9444,-3.8279,-3.6972,-3.487,-3.3205,-3.1789,-3.1158,-3.0441,-3.0351,-3.0079,-2.8958,-2.7735,-2.6118,-2.4777,-2.3592,-2.261,-2.192,-2.1522,-2.0822,-2.0822,-2.0925,-2.0925,-2.0925,-2.0822,-2.0712,-2.0197,-1.9642,-1.8833,-1.8206,-1.7555,-1.7206,-1.7147,-1.701,-1.6935,-1.676,-1.6452,-1.6458,-1.6561,-1.7297,-4.9977,-4.9404,-5.0769,-5.123,-5.1039,-5.1213,-5.1289,-5.1256,-5.122,-5.121,-5.1206,-5.1214,-5.1202,-5.1202,-5.119,-5.1153,-5.1101,-5.1073,-5.099,-5.0925,-5.0897,-5.0899,-5.0883,-5.0846,-5.0775,-5.072,-5.0701,-5.0702,-5.0683,-5.0643,-5.0562,-5.0478,-5.0393,-5.0325,-5.0302,-5.0321,-5.0369,-5.0678,-5.1015,-5.173,-5.1859,-5.248,-5.3192,-5.3156,-5.3142,-5.3261,-5.3282,-5.293,-5.2529,-5.2579,-5.2465,-5.2209,-5.1987,-5.1912,-5.1899,-5.1825,-5.1881,-5.2159,-5.1353,-5.0527,-4.8821,-4.8674,-4.8811,-4.898,-4.9141,-4.9442,-4.8946,-4.8435,-4.7814,-4.7143,-4.6081,-4.536,-4.4197,-4.3331,-4.1819,-4.0304,-3.8717,-3.7362,-3.6238,-3.4808,-3.3308,-3.1967,-3.0836,-3.0117,-2.9162,-2.8794,-2.7767,-2.6617,-2.5363,-2.4097,-2.3103,-2.2215,-2.142,-2.1121,-2.0822,-2.0925,-2.0925,-2.0925,-2.0822,-2.0609,-2.0403,-1.9887,-1.9153,-1.8206,-1.7569,-1.7252,-1.7443,-1.7718,-1.7732,-1.7634,-1.7219,-1.6782,-1.7153,-1.7344,-1.7887,-5.0796,-5.0215,-5.1015,-5.0898,-5.0258,-5.0967,-5.1278,-5.1239,-5.122,-5.1211,-5.121,-5.1217,-5.1202,-5.1202,-5.1159,-5.1134,-5.1095,-5.1053,-5.0971,-5.0925,-5.0913,-5.0916,-5.0899,-5.0846,-5.0791,-5.0793,-5.0757,-5.0701,-5.0682,-5.0644,-5.0563,-5.0577,-5.0546,-5.0539,-5.034,-5.034,-5.076,-5.1443,-5.1634,-5.2507,-5.3141,-5.3398,-5.3868,-5.3963,-5.3697,-5.3785,-5.4002,-5.3565,-5.322,-5.3198,-5.2968,-5.253,-5.201,-5.188,-5.1788,-5.1695,-5.1621,-5.1203,-5.0301,-5.0714,-5.019,-4.9079,-4.9004,-4.8809,-4.8675,-4.873,-4.8696,-4.8119,-4.7839,-4.764,-4.6851,-4.5657,-4.414,-4.2736,-4.1304,-3.9673,-3.8109,-3.6623,-3.5534,-3.4526,-3.3769,-3.2723,-3.1235,-2.985,-2.8324,-2.7365,-2.6403,-2.5323,-2.4242,-2.342,-2.2518,-2.1818,-2.1019,-2.1019,-2.0925,-2.0925,-2.0925,-2.0925,-2.0814,-2.0609,-2.0094,-1.9569,-1.8624,-1.7681,-1.7569,-1.7674,-1.8094,-1.8513,-1.8311,-1.7996,-1.7463,-1.7193,-1.7562,-1.7989,-1.8297,-5.0035,-4.9385,-5.0791,-5.0878,-5.0253,-5.0978,-5.1347,-5.1323,-5.1292,-5.1258,-5.1211,-5.121,-5.1217,-5.1194,-5.1171,-5.1127,-5.1102,-5.1081,-5.102,-5.0956,-5.0925,-5.0909,-5.0893,-5.0877,-5.088,-5.0846,-5.0812,-5.0739,-5.0701,-5.0741,-5.0622,-5.0577,-5.1063,-5.1185,-5.1181,-5.1219,-5.1582,-5.2365,-5.2914,-5.3467,-5.3736,-5.4199,-5.4587,-5.4727,-5.4286,-5.4334,-5.4659,-5.4048,-5.3846,-5.3725,-5.3442,-5.3163,-5.2828,-5.2791,-5.2656,-5.2536,-5.2475,-5.206,-5.1391,-5.1239,-5.0513,-4.9564,-4.9098,-4.8907,-4.831,-4.8657,-4.8355,-4.7893,-4.7726,-4.741,-4.6574,-4.5283,-4.3869,-4.2685,-4.119,-3.9369,-3.7689,-3.6286,-3.506,-3.4139,-3.3317,-3.1704,-3.0275,-2.9316,-2.8025,-2.6712,-2.5767,-2.4136,-2.2932,-2.246,-2.1827,-2.1318,-2.0814,-2.0925,-2.0941,-2.1068,-2.1099,-2.1099,-2.0909,-2.0609,-1.9983,-1.9204,-1.8779,-1.8064,-1.803,-1.8206,-1.8716,-1.8976,-1.8667,-1.8213,-1.7788,-1.753,-1.7779,-1.7989,-1.8297,-4.9752,-4.9367,-5.0452,-5.063,-5.0289,-5.0995,-5.1379,-5.1394,-5.1335,-5.1292,-5.1256,-5.123,-5.121,-5.1217,-5.1214,-5.1171,-5.1095,-5.1095,-5.1053,-5.1005,-5.0921,-5.0906,-5.089,-5.0929,-5.1128,-5.1093,-5.0964,-5.0852,-5.1221,-5.1145,-5.1296,-5.1574,-5.1829,-5.2217,-5.2289,-5.2384,-5.2422,-5.3148,-5.3716,-5.402,-5.4332,-5.4702,-5.5034,-5.4855,-5.4682,-5.4746,-5.4629,-5.4439,-5.4235,-5.4055,-5.3889,-5.3699,-5.3582,-5.3345,-5.3143,-5.2889,-5.2563,-5.2206,-5.171,-5.1034,-5.026,-4.9379,-4.9641,-4.9336,-4.8618,-4.8941,-4.8718,-4.8248,-4.7665,-4.7292,-4.6691,-4.5325,-4.4053,-4.2882,-4.1111,-3.9269,-3.7644,-3.6238,-3.5436,-3.4372,-3.3386,-3.154,-2.9574,-2.8554,-2.7565,-2.6371,-2.5289,-2.3514,-2.1998,-2.1837,-2.1574,-2.1131,-2.0885,-2.1051,-2.1234,-2.1346,-2.1354,-2.1298,-2.1026,-2.0643,-1.9747,-1.8978,-1.871,-1.8576,-1.8837,-1.9098,-1.9466,-1.9466,-1.8908,-1.8517,-1.8084,-1.797,-1.7945,-1.838,-1.8766,-5.0101,-5.0068,-5.0114,-5.021,-5.0293,-5.1012,-5.1357,-5.14,-5.1342,-5.1342,-5.1388,-5.1256,-5.122,-5.122,-5.1217,-5.1171,-5.1127,-5.1108,-5.1048,-5.102,-5.0956,-5.0941,-5.0906,-5.0925,-5.1164,-5.1421,-5.1426,-5.1276,-5.1838,-5.1702,-5.2024,-5.2743,-5.2886,-5.3312,-5.3517,-5.3531,-5.355,-5.4065,-5.4314,-5.4554,-5.4808,-5.5053,-5.4962,-5.4754,-5.4661,-5.4597,-5.4472,-5.4252,-5.4181,-5.3926,-5.3547,-5.3267,-5.2956,-5.2571,-5.2391,-5.2159,-5.1861,-5.1601,-5.1278,-5.0587,-5.0181,-4.9573,-4.978,-4.9688,-4.9367,-4.9052,-4.877,-4.845,-4.8023,-4.7714,-4.7193,-4.5869,-4.4542,-4.2977,-4.1213,-3.9495,-3.7819,-3.6679,-3.6038,-3.5159,-3.4341,-3.2727,-3.0557,-2.9154,-2.7727,-2.643,-2.5227,-2.3998,-2.2689,-2.211,-2.182,-2.1346,-2.1217,-2.1344,-2.1544,-2.1632,-2.1648,-2.16,-2.1254,-2.0788,-1.9835,-1.9313,-1.942,-1.9527,-1.9755,-1.9898,-1.9742,-1.9449,-1.9125,-1.8748,-1.8707,-1.9038,-1.9256,-1.9582,-2.0067,-5.1015,-5.0992,-5.0972,-5.0933,-5.1004,-5.1255,-5.1387,-5.1394,-5.1371,-5.1391,-5.1394,-5.1356,-5.1292,-5.1211,-5.121,-5.1197,-5.1152,-5.1114,-5.1102,-5.1042,-5.0986,-5.0971,-5.0975,-5.0999,-5.1122,-5.1341,-5.1464,-5.1545,-5.1394,-5.1587,-5.2754,-5.3683,-5.3828,-5.4331,-5.4606,-5.4753,-5.483,-5.4887,-5.4963,-5.4901,-5.4933,-5.5009,-5.4773,-5.4635,-5.4538,-5.4491,-5.439,-5.3962,-5.3907,-5.3907,-5.3166,-5.2784,-5.3078,-5.2589,-5.2188,-5.1782,-5.1383,-5.0999,-5.0605,-5.0272,-4.9873,-4.9299,-4.9118,-4.9057,-4.8934,-4.8731,-4.8463,-4.7998,-4.7589,-4.7172,-4.6437,-4.5368,-4.3899,-4.2099,-4.0548,-3.9102,-3.7481,-3.6118,-3.5475,-3.4581,-3.3796,-3.2376,-3.0453,-2.9608,-2.8066,-2.6649,-2.545,-2.433,-2.3328,-2.2617,-2.203,-2.1658,-2.164,-2.1798,-2.183,-2.1902,-2.191,-2.1926,-2.1488,-2.1185,-2.0584,-2.0286,-2.0386,-2.0394,-2.0517,-2.0106,-1.9597,-1.9393,-1.9509,-1.969,-1.9747,-2.0077,-2.0431,-2.0647,-2.1171,-5.1063,-5.1278,-5.0933,-5.0972,-5.1278,-5.1351,-5.1379,-5.1387,-5.1391,-5.1386,-5.1391,-5.14,-5.1349,-5.1292,-5.1249,-5.119,-5.1178,-5.112,-5.1095,-5.1069,-5.1029,-5.1,-5.101,-5.1231,-5.147,-5.1592,-5.1771,-5.2008,-5.1914,-5.2549,-5.3656,-5.4622,-5.4709,-5.4943,-5.5199,-5.5269,-5.5536,-5.5549,-5.5477,-5.5189,-5.5009,-5.486,-5.4603,-5.4476,-5.4409,-5.4409,-5.4321,-5.3777,-5.3663,-5.3624,-5.2766,-5.2271,-5.2445,-5.2006,-5.1665,-5.1245,-5.0857,-5.053,-5.0176,-4.9681,-4.9222,-4.8731,-4.8242,-4.795,-4.7885,-4.7819,-4.7272,-4.6742,-4.6534,-4.6182,-4.5431,-4.4509,-4.2678,-4.0928,-3.9761,-3.8582,-3.706,-3.5439,-3.4385,-3.3388,-3.2275,-3.0959,-2.9953,-2.9343,-2.8814,-2.7863,-2.684,-2.5648,-2.4324,-2.311,-2.2492,-2.1929,-2.1989,-2.2172,-2.2188,-2.2235,-2.2339,-2.2292,-2.1819,-2.1448,-2.1148,-2.0948,-2.0846,-2.0955,-2.1182,-2.0575,-1.9982,-2.0125,-2.0236,-2.0434,-2.0647,-2.1092,-2.1452,-2.1588,-2.222,-5.0479,-5.0977,-5.0248,-5.0365,-5.1133,-5.1132,-5.1246,-5.1402,-5.1396,-5.1394,-5.139,-5.1391,-5.1394,-5.1349,-5.1284,-5.122,-5.12,-5.1144,-5.1108,-5.1095,-5.1042,-5.1015,-5.1218,-5.1653,-5.1563,-5.1879,-5.2331,-5.2798,-5.3533,-5.3935,-5.4408,-5.5446,-5.5408,-5.549,-5.5658,-5.567,-5.5919,-5.616,-5.5786,-5.5332,-5.5053,-5.4824,-5.4552,-5.4424,-5.4356,-5.4321,-5.4144,-5.3777,-5.3351,-5.2962,-5.2391,-5.1665,-5.1467,-5.1297,-5.1017,-5.0801,-5.0492,-5.0176,-4.9815,-4.9342,-4.8872,-4.8289,-4.7556,-4.7069,-4.6932,-4.6949,-4.6394,-4.5561,-4.5269,-4.4644,-4.3883,-4.312,-4.1773,-4.0178,-3.8822,-3.7311,-3.5568,-3.4178,-3.2978,-3.2185,-3.1472,-3.0349,-2.9953,-2.9448,-2.8698,-2.8455,-2.7678,-2.6454,-2.4945,-2.3525,-2.2889,-2.2172,-2.2347,-2.2529,-2.2569,-2.2641,-2.2823,-2.2686,-2.2212,-2.2022,-2.1792,-2.1524,-2.1197,-2.119,-2.119,-2.0994,-2.06,-2.0718,-2.0891,-2.1136,-2.1579,-2.2017,-2.2398,-2.2418,-2.3027,-4.9809,-4.9393,-4.9165,-4.9566,-5.0283,-5.036,-5.0808,-5.1382,-5.1396,-5.1375,-5.1394,-5.1386,-5.1396,-5.1369,-5.1308,-5.1248,-5.1201,-5.1186,-5.1183,-5.1139,-5.1082,-5.1042,-5.1106,-5.1412,-5.1386,-5.1664,-5.2367,-5.3608,-5.4535,-5.4782,-5.4831,-5.5408,-5.5581,-5.5777,-5.6052,-5.6091,-5.6339,-5.6549,-5.5988,-5.5624,-5.5591,-5.4994,-5.4552,-5.4337,-5.4233,-5.3926,-5.3606,-5.2944,-5.2729,-5.2436,-5.1601,-5.1193,-5.107,-5.0927,-5.0891,-5.0836,-5.038,-4.993,-4.9504,-4.9057,-4.8593,-4.8,-4.7321,-4.6604,-4.6182,-4.604,-4.552,-4.46,-4.3898,-4.3195,-4.246,-4.1666,-4.0788,-3.9251,-3.7769,-3.5924,-3.4166,-3.2978,-3.1677,-3.1062,-3.0557,-3.0255,-2.9953,-2.9313,-2.8668,-2.7912,-2.714,-2.6045,-2.4522,-2.3199,-2.3174,-2.2664,-2.2752,-2.2879,-2.2895,-2.2887,-2.2982,-2.3014,-2.262,-2.2573,-2.2414,-2.191,-2.1294,-2.1255,-2.1086,-2.1009,-2.1009,-2.1215,-2.145,-2.1851,-2.2085,-2.2554,-2.278,-2.2847,-2.3525,-4.9588,-4.8879,-4.9184,-4.9586,-5.0029,-5.043,-5.093,-5.1263,-5.1015,-5.1062,-5.1355,-5.1394,-5.1386,-5.1386,-5.133,-5.1292,-5.123,-5.1217,-5.1202,-5.1171,-5.1139,-5.1082,-5.1153,-5.1325,-5.1276,-5.1521,-5.2677,-5.3937,-5.5075,-5.534,-5.5311,-5.5566,-5.5749,-5.6045,-5.6288,-5.6358,-5.6606,-5.6587,-5.5978,-5.5742,-5.5712,-5.4919,-5.4196,-5.3981,-5.3776,-5.3489,-5.313,-5.2553,-5.2235,-5.1988,-5.1314,-5.1034,-5.0945,-5.0891,-5.0891,-5.071,-5.0268,-4.9698,-4.9282,-4.8748,-4.8292,-4.7754,-4.6844,-4.5985,-4.5753,-4.5551,-4.4601,-4.3756,-4.357,-4.2951,-4.1544,-4.0647,-3.9176,-3.7717,-3.6194,-3.4485,-3.3143,-3.196,-3.0764,-2.9754,-2.9649,-2.9963,-2.9544,-2.8986,-2.8339,-2.7795,-2.7032,-2.5735,-2.4326,-2.3143,-2.303,-2.303,-2.3038,-2.303,-2.2974,-2.2966,-2.2998,-2.3014,-2.3014,-2.2869,-2.2597,-2.2047,-2.1494,-2.1266,-2.1152,-2.1159,-2.1281,-2.1623,-2.1972,-2.2433,-2.2667,-2.2901,-2.3014,-2.3119,-2.3768,-4.9269,-4.8768,-4.9352,-4.98,-5.0092,-5.0782,-5.121,-5.126,-5.064,-5.0721,-5.134,-5.1394,-5.1394,-5.1377,-5.1343,-5.1323,-5.1284,-5.1229,-5.1206,-5.1194,-5.1139,-5.1127,-5.1321,-5.161,-5.1465,-5.1796,-5.2737,-5.3705,-5.4709,-5.511,-5.5522,-5.5681,-5.5935,-5.6294,-5.5963,-5.6129,-5.6606,-5.6374,-5.5883,-5.5316,-5.489,-5.4445,-5.3869,-5.3526,-5.3267,-5.3125,-5.2729,-5.2327,-5.1874,-5.1565,-5.1175,-5.1017,-5.0891,-5.0891,-5.0764,-5.0582,-4.9965,-4.9538,-4.9101,-4.8322,-4.7968,-4.7421,-4.6285,-4.5624,-4.5405,-4.4662,-4.3801,-4.325,-4.2996,-4.2029,-4.0618,-3.9203,-3.773,-3.6471,-3.4897,-3.3528,-3.2364,-3.1289,-3.0193,-2.9076,-2.9066,-2.9479,-2.9036,-2.8581,-2.7912,-2.7375,-2.6626,-2.5432,-2.4351,-2.3609,-2.307,-2.3085,-2.3093,-2.307,-2.3022,-2.3014,-2.3014,-2.3014,-2.3014,-2.2901,-2.2667,-2.1744,-2.1167,-2.1288,-2.1174,-2.1281,-2.1744,-2.2093,-2.2554,-2.2901,-2.2901,-2.3014,-2.3014,-2.3239,-2.3904,-4.7898,-4.7754,-4.793,-4.8748,-4.9925,-5.027,-5.0707,-5.132,-5.123,-5.1283,-5.1343,-5.1394,-5.1394,-5.1394,-5.1386,-5.1362,-5.1335,-5.1249,-5.122,-5.121,-5.1183,-5.1139,-5.1192,-5.1411,-5.162,-5.2182,-5.293,-5.3725,-5.4728,-5.5359,-5.5573,-5.5562,-5.5528,-5.5938,-5.6441,-5.6568,-5.653,-5.6232,-5.5727,-5.5107,-5.4327,-5.3926,-5.3641,-5.3249,-5.2809,-5.2418,-5.2018,-5.1651,-5.1331,-5.1123,-5.0981,-5.0945,-5.0891,-5.0819,-5.062,-5.0307,-4.9715,-4.9239,-4.8748,-4.7836,-4.7388,-4.7118,-4.604,-4.5036,-4.4571,-4.3897,-4.3061,-4.2415,-4.1825,-4.0446,-3.9121,-3.7652,-3.6238,-3.5667,-3.4495,-3.3224,-3.2059,-3.1305,-3.0538,-2.9475,-2.871,-2.871,-2.8408,-2.7606,-2.6573,-2.6053,-2.5684,-2.4589,-2.3795,-2.3465,-2.3165,-2.3205,-2.3244,-2.3077,-2.3014,-2.3014,-2.3014,-2.3014,-2.2901,-2.2554,-2.1979,-2.1067,-2.0838,-2.141,-2.1517,-2.1509,-2.1972,-2.2554,-2.278,-2.3014,-2.3014,-2.3014,-2.3127,-2.3456,-2.4119]},{"header":{"parameterUnit":"m.s-1","parameterCategory":1,"la1":31.0,"la2":29.5877,"lo1":-88.7671,"lo2":-86.6584,"dx":0.0162,"dy":0.0185,"nx":115,"ny":88,"refTime":"2023-01-27T18:00:00:Z","depth":0,"parameterNumber":3,"parameterNumberName":"V-component_of_WINDS"},"data":[0.0,0.0,0.0,0.0,0.0,0.0,0.0,0.0,0.0,0.0,0.0,0.0,0.0,0.0,0.0,0.0,0.0,0.0,0.0,0.0,0.0,0.0,0.0,0.0,0.0,0.0,0.0,0.0,0.0,0.0,0.0,0.0,0.0,0.0,0.0,0.0,0.0,0.0,0.0,0.0,0.0,0.0,0.0,0.0,0.0,0.0,0.0,0.0,0.0,0.0,0.0,0.0,0.0,0.0,0.0,0.0,0.0,0.0,0.0,0.0,0.0,0.0,0.0,0.0,0.0,0.0,0.0,0.0,0.0,0.0,0.0,0.0,0.0,0.0,0.0,0.0,0.0,0.0,0.0,0.0,0.0,0.0,0.0,0.0,0.0,0.0,0.0,0.0,0.0,0.0,0.0,0.0,0.0,0.0,0.0,0.0,0.0,0.0,0.0,0.0,0.0,0.0,0.0,0.0,0.0,0.0,0.0,0.0,0.0,0.0,0.0,0.0,0.0,0.0,0.0,0.0,0.0,0.0,0.0,0.0,0.0,0.0,0.0,0.0,0.0,0.0,0.0,0.0,0.0,0.0,0.0,0.0,0.0,0.0,0.0,0.0,0.0,0.0,0.0,0.0,0.0,0.0,0.0,0.0,0.0,0.0,0.0,0.0,0.0,0.0,0.0,0.0,0.0,0.0,0.0,0.0,0.0,0.0,0.0,0.0,0.0,0.0,0.0,0.0,0.0,0.0,0.0,0.0,0.0,0.0,0.0,0.0,0.0,0.0,0.0,0.0,0.0,0.0,0.0,0.0,0.0,0.0,0.0,0.0,0.0,0.0,0.0,0.0,0.0,0.0,0.0,0.0,0.0,0.0,0.0,0.0,0.0,0.0,0.0,0.0,0.0,0.0,0.0,0.0,0.0,0.0,0.0,0.0,0.0,0.0,0.0,0.0,0.0,0.0,0.0,0.0,0.0,0.0,0.0,0.0,0.0,0.0,0.0,0.0,0.0,0.0,0.0,0.0,0.0,0.0,0.0,0.0,0.0,0.0,0.0,0.0,0.0,0.0,0.0,0.0,0.0,0.0,0.0,0.0,0.0,0.0,0.0,0.0,0.0,0.0,0.0,0.0,0.0,0.0,0.0,0.0,0.0,0.0,0.0,0.0,0.0,0.0,0.0,0.0,0.0,0.0,0.0,0.0,0.0,0.0,0.0,0.0,0.0,0.0,0.0,0.0,0.0,0.0,0.0,0.0,0.0,0.0,0.0,0.0,0.0,0.0,0.0,0.0,0.0,0.0,0.0,0.0,0.0,0.0,0.0,0.0,0.0,0.0,0.0,0.0,0.0,0.0,0.0,0.0,0.0,0.0,0.0,0.0,0.0,0.0,0.0,0.0,0.0,0.0,0.0,0.0,0.0,0.0,0.0,0.0,0.0,0.0,0.0,0.0,0.0,0.0,0.0,0.0,0.0,0.0,0.0,0.0,0.0,0.0,0.0,0.0,0.0,0.0,0.0,0.0,0.0,0.0,0.0,0.0,0.0,0.0,0.0,0.0,0.0,0.0,0.0,0.0,0.0,0.0,0.0,0.0,0.0,0.0,0.0,0.0,0.0,0.0,0.0,0.0,0.0,0.0,0.0,0.0,0.0,0.0,0.0,0.0,0.0,0.0,0.0,0.0,0.0,0.0,0.0,0.0,0.0,0.0,0.0,0.0,0.0,0.0,0.0,0.0,0.0,0.0,0.0,0.0,0.0,0.0,0.0,0.0,0.0,0.0,0.0,0.0,0.0,0.0,0.0,0.0,0.0,0.0,0.0,0.0,0.0,0.0,0.0,0.0,0.0,0.0,0.0,0.0,0.0,0.0,0.0,0.0,0.0,0.0,0.0,0.0,0.0,0.0,0.0,0.0,0.0,0.0,0.0,0.0,0.0,0.0,0.0,0.0,0.0,0.0,0.0,0.0,0.0,0.0,0.0,0.0,0.0,0.0,0.0,0.0,0.0,0.0,0.0,0.0,0.0,0.0,0.0,0.0,0.0,0.0,0.0,0.0,0.0,0.0,0.0,0.0,0.0,0.0,0.0,0.0,0.0,0.0,0.0,0.0,0.0,0.0,0.0,0.0,0.0,0.0,0.0,0.0,0.0,0.0,0.0,0.0,0.0,0.0,0.0,0.0,0.0,0.0,0.0,0.0,0.0,0.0,0.0,0.0,0.0,0.0,0.0,0.0,0.0,0.0,0.0,0.0,0.0,0.0,0.0,0.0,0.0,0.0,0.0,0.0,0.0,0.0,0.0,0.0,0.0,0.0,0.0,0.0,0.0,0.0,0.0,0.0,0.0,0.0,0.0,0.0,0.0,0.0,0.0,0.0,0.0,0.0,0.0,0.0,0.0,0.0,0.0,0.0,0.0,0.0,0.0,0.0,0.0,0.0,0.0,0.0,0.0,0.0,0.0,0.0,0.0,0.0,0.0,0.0,0.0,0.0,0.0,0.0,0.0,0.0,0.0,0.0,0.0,0.0,0.0,0.0,0.0,0.0,0.0,0.0,0.0,0.0,0.0,0.0,0.0,0.0,0.0,0.0,0.0,0.0,0.0,0.0,0.0,0.0,0.0,0.0,0.0,0.0,0.0,0.0,0.0,0.0,0.0,0.0,0.0,0.0,0.0,0.0,0.0,0.0,0.0,0.0,0.0,0.0,0.0,0.0,0.0,0.0,0.0,0.0,0.0,0.0,0.0,0.0,0.0,0.0,0.0,0.0,0.0,0.0,0.0,0.0,0.0,0.0,0.0,0.0,0.0,0.0,0.0,0.0,0.0,0.0,0.0,0.0,0.0,0.0,0.0,0.0,0.0,0.0,0.0,0.0,0.0,0.0,0.0,0.0,0.0,0.0,0.0,0.0,0.0,0.0,0.0,0.0,0.0,0.0,0.0,0.0,0.0,0.0,0.0,0.0,0.0,0.0,0.0,0.0,0.0,0.0,0.0,0.0,0.0,0.0,0.0,0.0,0.0,0.0,0.0,0.0,0.0,0.0,0.0,0.0,0.0,0.0,0.0,0.0,0.0,0.0,0.0,0.0,0.0,0.0,0.0,0.0,0.0,0.0,0.0,0.0,0.0,0.0,0.0,0.0,0.0,0.0,0.0,0.0,0.0,0.0,0.0,0.0,0.0,0.0,0.0,0.0,0.0,0.0,0.0,0.0,0.0,0.0,0.0,0.0,0.0,0.0,0.0,0.0,0.0,0.0,0.0,0.0,0.0,0.0,0.0,0.0,0.0,0.0,0.0,0.0,0.0,0.0,0.0,0.0,0.0,0.0,0.0,0.0,0.0,0.0,0.0,0.0,0.0,0.0,0.0,0.0,0.0,0.0,0.0,0.0,0.0,0.0,0.0,0.0,0.0,0.0,0.0,0.0,0.0,0.0,0.0,0.0,0.0,0.0,0.0,0.0,0.0,0.0,0.0,0.0,0.0,0.0,0.0,0.0,0.0,0.0,0.0,0.0,0.0,0.0,0.0,0.0,0.0,0.0,0.0,0.0,0.0,0.0,0.0,0.0,0.0,0.0,0.0,0.0,0.0,0.0,0.0,0.0,0.0,0.0,0.0,0.0,0.0,0.0,0.0,0.0,0.0,0.0,0.0,0.0,0.0,0.0,0.0,0.0,0.0,0.0,0.0,0.0,0.0,0.0,0.0,0.0,0.0,0.0,0.0,0.0,0.0,0.0,0.0,0.0,0.0,0.0,0.0,0.0,0.0,0.0,0.0,0.0,0.0,0.0,0.0,0.0,0.0,0.0,0.0,0.0,0.0,0.0,0.0,0.0,0.0,0.0,0.0,0.0,0.0,0.0,0.0,0.0,0.0,0.0,0.0,0.0,0.0,0.0,0.0,0.0,0.0,0.0,0.0,0.0,0.0,0.0,0.0,0.0,0.0,0.0,0.0,0.0,0.0,0.0,0.0,0.0,0.0,0.0,0.0,0.0,0.0,0.0,0.0,0.0,0.0,0.0,0.0,0.0,0.0,0.0,0.0,0.0,0.0,0.0,0.0,0.0,0.0,0.0,0.0,0.0,0.0,0.0,0.0,0.0,0.0,0.0,0.0,0.0,0.0,0.0,0.0,0.0,0.0,0.0,0.0,0.0,0.0,0.0,0.0,0.0,0.0,0.0,0.0,0.0,0.0,0.0,0.0,0.0,0.0,0.0,0.0,0.0,0.0,0.0,0.0,0.0,0.0,0.0,0.0,0.0,0.0,0.0,0.0,0.0,0.0,0.0,0.0,0.0,0.0,0.0,0.1251,0.0,0.0,0.0,0.0,0.0,0.0,0.0,0.0,0.0,0.0,0.0,0.0,0.0,0.0,0.0,0.0,0.0,0.0,0.0,0.0,0.0,0.0,0.0,0.0,0.0,0.0,0.0,0.0,0.0,0.0,0.0,0.0,0.0,0.0,0.0,0.0,0.0,0.0,0.0,0.0,0.0,0.0,0.0,0.0,0.0,0.0,0.0,0.0,0.0,0.0,0.0,0.0,0.0,0.0,0.0,0.0,0.0,0.0,0.0,0.0,0.0,0.0,0.0,0.0,0.0,0.0,0.0,0.0,0.0,0.0,0.0,0.0,0.0,0.0,0.0,0.0,0.0,0.0,0.0,0.0,0.0,0.0,0.0,0.0,0.0,0.0,0.0,0.0,0.0,0.0,0.0,0.0,0.0,0.0,0.0,0.0,0.0,0.0,0.0,0.0,0.0,0.0,0.0,0.0,0.0,0.0,0.0,0.0,0.0,0.0,0.2128,0.1309,0.1693,0.1704,0.1335,0.0,0.0,0.0,0.0,0.0,0.0,0.0,0.0,0.0,0.0,0.0,0.0,0.0,0.0,0.0,0.0,0.0,0.0,0.0,0.0,0.0,0.0,0.0,0.0,0.0,0.0,0.0,0.0,0.0,0.0,0.0,0.0,0.0,0.0,0.0,0.0,0.0,0.0,0.0,0.0,0.0,0.0,0.0,0.0,0.0,0.0,0.0,0.0,0.0,0.0,0.0,0.0,0.0,0.0,0.0,0.0,0.0,0.0,0.0,0.0,0.0,0.0,0.0,0.0,0.0,0.0,0.0,0.0,0.0,0.0,0.0,0.0,0.0,0.0,0.0,0.0,0.0,0.0,0.0,0.0,0.0,0.0,0.0,0.0,0.0,0.0,0.0,0.0,0.0,0.0,0.0,0.0,0.0,0.0,0.0,0.0,0.0,0.0,0.0,0.0,0.0,0.0,0.0,0.0,0.0,0.0,0.0,0.0,0.0,0.0,0.0,0.0,0.244,0.2385,0.1571,0.0,0.0,0.0,0.0,0.0,0.0,0.0,0.0,0.0,0.0,0.0,0.0,0.0,0.0,0.0,0.0,0.0,0.0,0.0,0.0,0.0,0.0,0.0,0.0,0.0,0.0,0.0,0.0,0.0,0.0,0.0,0.0,0.0,0.0,0.0,0.0,0.0,0.0,0.0,0.0,0.0,0.0,0.0,0.0,0.0,0.0,0.0,0.0,0.0,0.0,0.0,0.0,0.0,0.0,0.0,0.0,0.0,0.0,0.0,0.0,0.0,0.0,0.0,0.0,0.0,0.0,0.0,0.0,0.0,0.0,0.0,0.0,0.0,0.0,0.0,0.0,0.0,0.0,0.0,0.0,0.0,0.0,0.0,0.0,0.0,0.0,0.0,0.0,0.0,0.0,0.0,0.0,0.0,0.0,0.0,0.0,0.0,0.0,0.0,0.0,0.0,0.0,0.0,0.0,0.0,0.0,0.0,0.0,0.0,0.0,0.4365,0.3585,0.3663,0.0,0.2438,0.0,0.0,0.0,0.0,0.0,0.0,0.0,0.0,0.0,0.0,0.0,0.0,0.0,0.0,0.0,0.0,0.0,0.0,0.0,0.0,0.0,0.0,0.0,0.0,0.0,0.0,0.0,0.0,0.0,0.0,0.0,0.0,0.0,0.0,0.0,0.0,0.0,0.0,0.0,0.0,0.0,0.0,0.0,0.0,0.0,0.0,0.0,0.0,0.0,0.0,0.0,0.0,0.0,0.0,0.0,0.0,0.0,0.0,0.0,0.0,0.0,0.0,0.0,0.0,0.0,0.0,0.0,0.0,0.0,0.0,0.0,0.0,0.0,0.0,0.0,0.0,0.0,0.0,0.0,0.0,0.0,0.0,0.0,0.0,0.0,0.0,0.0,0.0,0.0,0.0,0.0,0.0,0.0,0.0,0.0,0.0,0.0,0.0,0.0,0.0,0.0,0.0,0.0,0.0,0.0,0.0,0.0,0.0,0.0,0.0,0.4611,0.3832,0.3832,0.342,0.0,0.0,0.0,0.0,0.0,0.0,0.0,0.0,0.0,0.0,0.0,0.0,0.0,0.0,0.0,0.0,0.0,0.0,0.0,0.0,0.0,0.0,0.0,0.0,0.0,0.0,0.0,0.0,0.0,0.0,0.0,0.0,0.0,0.0,0.0,0.0,0.0,0.0,0.0,0.0,0.0,0.0,0.0,0.0,0.0,0.0,0.0,0.0,0.0,0.0,0.0,0.0,0.0,0.0,0.0,0.0,0.0,0.0,0.0,0.0,0.0,0.0,0.0,0.0,0.0,0.0,0.0,0.0,0.0,0.0,0.0,0.0,0.0,0.0,0.0,0.0,0.0,0.0,0.0,0.0,0.0,0.0,0.0,0.0,0.0,0.0,0.0,0.0,0.0,0.0,0.0,0.0,0.0,0.0,0.0,0.0,0.0,0.0,0.0,0.0,0.0,0.0,0.0,0.0,0.0,0.0,0.0,0.0,0.0,0.0,0.5357,0.5106,0.4486,0.4024,0.3532,0.31,0.0,0.0,0.0,0.0,0.0,0.0,0.0,0.0,0.0,0.0,0.0,0.0,0.0,0.0,0.0,0.0,0.0,0.0,0.0,0.0,0.0,0.0,0.0,0.0,0.0,0.0,0.0,0.0,0.0,0.0,0.0,0.0,0.0,0.0,0.0,0.0,0.0,0.0,0.0,0.0,0.0,0.0,0.0,0.0,0.0,0.0,0.0,0.0,0.0,0.0,0.0,0.0,0.0,0.0,0.0,0.0,0.0,0.0,0.0,0.0,0.0,0.0,0.0,0.0,0.0,0.0,0.0,0.0,0.0,0.0,0.0,0.0,0.0,0.0,0.0,0.0,0.0,0.0,0.0,0.0,0.0,0.0,0.0,0.0,0.0,0.0,0.0,0.0,0.0,0.0,0.0,0.0,0.0,0.0,0.0,0.0,0.0,0.0,0.0,0.0,0.0,0.0,0.0,0.0,0.0,0.0,0.0,0.0,0.6468,0.6256,0.6179,0.6108,0.4597,0.3997,0.0,0.0,0.0,0.0,0.0,0.0,0.0,0.0,0.0,0.0,0.0,0.0,0.0,0.0,0.0,0.0,0.0,0.0,0.0,0.0,0.0,0.0,0.0,0.0,0.0,0.0,0.0,0.0,0.0,0.0,0.0,0.0,0.0,0.0,0.0,0.0,0.0,0.0,0.0,0.0,0.0,0.0,0.0,0.0,0.0,0.0,0.0,0.0,0.0,0.0,0.0,0.0,0.0,0.0,0.0,0.0,0.0,0.0,0.0,0.0,0.0,0.0,0.0,0.0,0.0,0.0,0.0,0.0,0.0,0.0,0.0,0.0,0.0,0.0,0.0,0.0,0.0,0.0,0.0,0.0,0.0,0.0,0.0,0.0,0.0,0.0,0.0,0.0,0.0,0.0,0.0,0.0,0.0,0.0,0.0,0.0,0.0,0.0,0.0,0.0,0.0,0.0,0.0,0.0,0.0,0.0,0.0,0.0,0.0,0.4702,0.473,0.5111,0.5712,0.452,0.4254,0.0,0.0,0.0,0.0,0.0,0.0,0.0,0.0,0.0,0.0,0.0,0.0,0.0,0.0,0.0,0.0,0.0,0.0,0.0,0.0,0.0,0.0,0.0,0.0,0.0,0.0,0.0,0.0,0.0,0.0,0.0,0.0,0.0,0.0,0.0,0.0,0.0,0.0,0.0,0.0,0.0,0.0,0.0,0.0,0.0,0.0,0.0,0.0,0.0,0.0,0.0,0.0,0.0,0.0,0.0,0.0,0.0,0.0,0.0,0.0,0.0,0.0,0.0,0.0,0.0,0.0,0.0,0.0,0.0,0.0,0.0,0.0,0.0,0.0,0.0,0.0,0.0,0.0,0.0,0.0,0.0,0.0,0.0,0.0,0.0,0.0,0.0,0.0,0.0,0.0,0.0,0.0,0.0,0.0,0.0,0.0,0.0,0.0,0.0,0.0,0.0,0.0,0.0,0.0,0.0,0.0,0.0,0.0,0.0,0.4525,0.0,0.4767,0.5355,0.4408,0.415,0.0,0.0,0.0,0.0,0.0,0.0,0.0,0.0,0.0,0.0,0.0,0.0,0.0,0.0,0.0,0.0,0.0,0.0,0.0,0.0,0.0,0.0,0.0,0.0,0.0,0.0,0.0,0.0,0.0,0.0,0.0,0.0,0.0,0.0,0.0,0.0,0.0,0.0,0.0,0.0,0.0,0.0,0.0,0.0,0.0,0.0,0.0,0.0,0.0,0.0,0.0,0.0,0.0,0.0,0.0,0.0,0.0,0.0,0.0,0.0,0.0,0.0,0.0,0.0,0.0,0.0,0.0,0.0,0.0,0.0,0.0,0.0,0.0,0.0,0.0,0.0,0.0,0.0,0.0,0.0,0.0,0.0,0.0,0.0,0.0,0.0,0.0,0.0,0.0,0.0,0.0,0.0,0.0,0.0,0.0,0.0,0.0,0.0,0.0,0.0,0.0,0.0,0.0,0.0,0.0,0.0,0.0,0.0,0.5867,0.608,0.5714,0.5444,0.5382,0.4258,0.3702,0.0,0.0,0.0,0.0,0.0,0.0,0.0,0.0,0.0,0.0,0.0,0.0,0.0,0.0,0.0,0.0,0.0,0.0,0.0,0.0,0.0,0.0,0.0,0.0,0.0,0.0,0.0,0.0,0.0,0.0,0.0,0.0,0.0,0.0,0.0,0.0,0.0,0.0,0.0,0.0,0.0,0.0,0.0,0.0,0.0,0.0,0.0,0.0,0.0,0.0,0.0,0.0,0.0,0.0,0.0,0.0,0.0,0.0,0.0,0.0,0.0,0.0,0.0,0.0,0.0,0.0,0.0,0.0,0.0,0.0,0.0,0.0,0.0,0.0,0.0,0.0,0.0,0.0,0.0,0.0,0.0,0.0,0.0,0.0,0.0,0.0,0.0,0.0,0.0,0.0,0.0,0.0,0.0,0.0,0.0,0.0,0.0,0.0,0.0,0.0,0.0,0.0,0.0,0.0,0.0,0.0,0.0,0.0,0.0,0.3941,0.447,0.5099,0.5853,0.4013,0.3691,0.0,0.0,0.0,0.0,0.0,0.0,0.0,0.0,0.0,0.0,0.0,0.0,0.0,0.0,0.0,0.0,0.0,0.0,0.0,0.0,0.0,0.0,0.0,0.0,0.0,0.0,0.0,0.0,0.0,0.0,0.0,0.0,0.0,0.0,0.0,0.0,0.0,0.0,0.0,0.0,0.0,0.0,0.0,0.0,0.0,0.0,0.0,0.0,0.0,0.0,0.0,0.0,0.0,0.0,0.0,0.0,0.0,0.0,0.0,0.0,0.0,0.0,0.0,0.0,0.0,0.0,0.0,0.0,0.0,0.0,0.0,0.0,0.0,0.0,0.0,0.0,0.0,0.0,0.0,0.0,0.0,0.0,0.0,0.0,0.0,0.0,0.0,0.0,0.0,0.0,0.0,0.0,0.0,0.0,0.0,0.0,0.0,0.0,0.0,0.0,0.0,0.0,0.0,0.0,0.0,0.0,0.0,0.0,0.0,0.4815,0.5203,0.5719,0.6205,0.4288,0.3742,0.4748,0.0,0.0,0.0,0.0,0.0,0.0,0.0,0.0,0.0,0.0,0.0,0.0,0.0,0.0,0.0,0.0,0.0,0.0,0.0,0.0,0.0,0.0,0.0,0.0,0.0,0.0,0.0,0.0,0.0,0.0,0.0,0.0,0.0,0.0,0.0,0.0,0.0,0.0,0.0,0.0,0.0,0.0,0.0,0.0,0.0,0.0,0.0,0.0,0.0,0.0,0.0,0.0,0.0,0.0,0.0,0.0,0.0,0.0,0.0,0.0,0.0,0.0,0.0,0.0,0.0,0.0,0.0,0.0,0.0,0.0,0.0,0.0,0.0,0.0,0.0,0.0,0.0,0.0,0.0,0.0,0.0,0.0,0.0,0.0,0.0,0.0,0.0,0.0,0.0,0.0,0.0,0.0,0.0,0.0,0.0,0.0,0.0,0.0,0.0,0.0,0.0,0.0,0.0,0.0,0.0,0.0,0.0,0.0,0.7924,0.769,0.7177,0.6402,0.5035,0.3929,0.0,0.0,0.0,0.0,0.0,0.0,0.0,0.0,0.0,0.0,0.0,0.0,0.0,0.0,0.0,0.0,0.0,0.0,0.0,0.0,0.0,0.0,0.0,0.0,0.0,0.0,0.0,0.0,0.0,0.0,0.0,0.0,0.0,0.0,0.0,0.0,0.0,0.0,0.0,0.0,0.0,0.0,0.0,0.0,0.0,0.0,0.0,0.0,0.0,0.0,0.0,0.0,0.0,0.0,0.0,0.0,0.0,0.0,0.0,0.0,0.0,0.0,0.0,0.0,0.0,0.0,0.0,0.0,0.0,0.0,0.0,0.0,0.0,0.0,0.0,0.0,0.0,0.0,0.0,0.0,0.0,0.0,0.0,0.0,0.0,0.0,0.0,0.0,0.0,0.0,0.0,0.0,0.0,0.0,0.0,0.0,0.0,0.0,0.0,0.0,0.0,0.0,0.0,0.0,0.0,0.0,0.0,0.0,0.0,0.9125,0.8961,0.8617,0.8089,0.5898,0.464,0.0,0.0,0.0,0.0,0.0,0.0,0.0,0.0,0.0,0.0,0.0,0.0,0.0,0.0,0.0,0.0,0.0,0.0,0.0,0.0,0.0,0.0,0.0,0.0,0.0,0.0,0.0,0.0,0.0,0.0,0.0,0.0,0.0,0.0,0.0,0.0,0.0,0.0,0.0,0.0,0.0,0.0,0.0,0.0,0.0,0.0,0.0,0.0,0.0,0.0,0.0,0.0,0.0,0.0,0.0,0.0,0.0,0.0,0.0,0.0,0.0,0.0,0.0,0.0,0.0,0.0,0.0,0.0,0.0,0.0,0.0,0.0,0.0,0.0,0.0,0.0,0.0,0.0,0.0,0.0,0.0,0.0,0.0,0.0,0.0,0.0,0.0,0.0,0.0,0.0,0.0,0.0,0.0,0.0,0.0,0.0,0.0,0.0,0.0,0.0,0.0,0.0,0.0,0.0,0.0,0.0,0.0,0.0,0.867,1.0357,0.9771,0.9405,0.9387,0.7053,0.551,0.0,0.0,0.0,0.0,0.0,0.0,0.0,0.0,0.0,0.0,0.0,0.0,0.0,0.0,0.0,0.0,0.0,0.0,0.0,0.0,0.0,0.0,0.0,0.0,0.0,0.0,0.0,0.0,0.0,0.0,0.0,0.0,0.0,0.0,0.0,0.0,0.0,0.0,0.0,0.0,0.0,0.0,0.0,0.0,0.0,0.0,0.0,0.0,0.0,0.0,0.0,0.0,0.0,0.0,0.0,0.0,0.0,0.0,0.0,0.0,0.0,0.0,0.0,0.0,0.0,0.0,0.0,0.0,0.0,0.0,0.0,0.0,0.0,0.0,0.0,0.0,0.0,0.0,0.0,0.0,0.0,0.0,0.0,0.0,0.0,0.0,0.0,0.0,0.0,0.0,0.0,0.0,0.0,0.0,0.0,0.0,0.0,0.0,0.0,0.0,0.0,0.0,0.0,0.0,0.0,0.0,0.0,0.0,0.9247,1.137,1.0335,0.988,1.0192,0.8256,0.6332,0.0,0.0,0.0,0.0,0.0,0.0,0.0,0.0,0.0,0.0,0.0,0.0,0.0,0.0,0.0,0.0,0.0,0.0,0.0,0.0,0.0,0.0,0.0,0.0,0.0,0.0,0.0,0.0,0.0,0.0,0.0,0.0,0.0,0.0,0.0,0.0,0.0,0.0,0.0,0.0,0.0,0.0,0.0,0.0,0.0,0.0,0.0,0.0,0.0,0.0,0.0,0.0,0.0,0.0,0.0,0.0,0.0,0.0,0.0,0.0,0.0,0.0,0.0,0.0,0.0,0.0,0.0,0.0,0.0,0.0,0.0,0.0,0.0,0.0,0.0,0.0,0.0,0.0,0.0,0.0,0.0,0.0,0.0,0.0,0.0,0.0,0.0,0.0,0.0,0.0,0.0,0.0,0.0,0.0,0.0,0.0,0.0,0.0,0.0,0.0,0.0,0.0,0.0,0.0,0.0,0.0,0.0,0.0,0.9702,1.187,1.0804,1.0102,1.0017,0.8273,0.6587,0.0,0.0,0.0,0.0,0.0,0.0,0.0,0.0,0.0,0.0,0.0,0.0,0.0,0.0,0.0,0.0,0.0,0.0,0.0,0.0,0.0,0.0,0.0,0.0,0.0,0.0,0.0,0.0,0.0,0.0,0.0,0.0,0.0,0.0,0.0,0.0,0.0,0.0,0.0,0.0,0.0,0.0,0.0,0.0,0.0,0.0,0.0,0.0,-1.518,0.0,0.0,0.0,0.0,0.0,0.0,0.0,0.0,0.0,0.0,0.0,0.0,0.0,0.0,0.0,0.0,0.0,0.0,0.0,0.0,0.0,0.0,0.0,0.0,0.0,0.0,0.0,0.0,0.0,0.0,0.0,0.0,0.0,0.0,0.0,0.0,0.0,0.0,0.0,0.0,0.0,0.0,0.0,0.0,0.0,0.0,0.0,0.0,0.0,0.0,0.0,0.0,0.0,0.0,0.0,0.0,0.0,0.0,0.0,0.9463,1.1204,1.059,1.0064,0.9932,0.9147,0.7571,0.0,0.0,0.0,0.0,0.0,0.0,0.0,0.0,0.0,0.0,0.0,0.0,0.0,0.0,0.0,0.0,0.0,0.0,0.0,0.0,0.0,0.0,0.0,0.0,0.0,0.0,0.0,0.0,0.0,0.0,0.0,0.0,0.0,0.0,0.0,0.0,0.0,0.0,0.0,0.0,0.0,0.0,0.0,0.0,0.0,0.0,0.0,0.0,0.0,0.0,0.0,0.0,0.0,0.0,0.0,0.0,0.0,0.0,0.0,0.0,0.0,0.0,0.0,0.0,0.0,0.0,0.0,0.0,0.0,0.0,0.0,0.0,0.0,0.0,0.0,0.0,0.0,0.0,0.0,0.0,0.0,0.0,0.0,0.0,0.0,0.0,0.0,0.0,0.0,0.0,0.0,0.0,0.0,0.0,0.0,0.0,0.0,0.0,0.0,0.0,0.0,0.0,0.0,0.0,0.0,0.0,0.0,0.8401,0.9082,1.0421,1.0179,0.9937,0.9894,1.0055,0.8542,0.5078,0.0,0.0,0.0,0.0,0.0,0.0,0.0,0.0,0.0,0.0,0.0,0.0,0.0,0.0,0.0,0.0,0.0,0.0,0.0,0.0,0.0,0.0,0.0,0.0,0.0,0.0,0.0,0.0,0.0,0.0,0.0,0.0,0.0,0.0,0.0,0.0,0.0,0.0,-1.2292,-1.299,0.0,0.0,0.0,0.0,0.0,0.0,0.0,0.0,-1.6599,0.0,0.0,0.0,0.0,0.0,0.0,0.0,0.0,0.0,0.0,0.0,0.0,0.0,0.0,0.0,0.0,0.0,0.0,0.0,0.0,0.0,0.0,0.0,0.0,0.0,0.0,0.0,0.0,0.0,0.0,0.0,0.0,0.0,0.0,0.0,0.0,0.0,0.0,0.0,0.0,0.0,0.0,0.0,0.0,0.0,0.0,0.0,0.0,0.0,0.0,0.0,0.0,0.0,0.0,0.0,0.0,0.888,0.8532,0.9144,1.0647,1.0248,0.9871,0.9691,0.9898,0.8389,0.5153,0.0,0.0,0.0,0.0,0.0,0.0,0.0,0.0,0.0,0.0,0.0,0.0,0.0,0.0,0.0,0.0,0.0,0.0,0.0,0.0,0.0,0.0,0.0,0.0,0.0,0.0,0.0,0.0,0.0,0.0,0.0,0.0,0.0,0.0,0.0,0.0,0.0,0.0,0.0,-1.3754,-1.4023,0.0,0.0,0.0,0.0,0.0,0.0,0.0,0.0,-1.8252,0.0,0.0,0.0,0.0,0.0,0.0,0.0,0.0,0.0,0.0,0.0,0.0,0.0,0.0,0.0,0.0,0.0,0.0,0.0,0.0,0.0,0.0,0.0,0.0,0.0,0.0,0.0,0.0,0.0,0.0,0.0,0.0,0.0,0.0,0.0,0.0,0.0,0.0,0.0,0.0,0.0,0.0,0.0,0.0,0.0,0.0,0.0,0.0,0.0,0.0,0.0,0.0,0.0,0.0,0.0,0.8202,0.8486,0.898,0.9872,0.9687,0.9526,0.9327,1.0027,0.8726,0.0,0.0,0.0,0.0,0.0,0.0,0.0,0.0,0.0,0.0,0.0,0.0,0.0,0.0,0.0,0.0,0.0,0.0,0.0,0.0,0.0,0.0,0.0,0.0,0.0,0.0,0.0,0.0,0.0,0.0,0.0,0.0,0.0,0.0,0.0,0.0,0.0,0.0,0.0,0.0,-1.4913,-1.5519,-1.5947,0.0,0.0,0.0,0.0,0.0,0.0,-1.8115,-1.8981,0.0,0.0,0.0,0.0,0.0,0.0,0.0,0.0,0.0,0.0,0.0,0.0,0.0,0.0,0.0,0.0,0.0,0.0,0.0,0.0,0.0,0.0,0.0,0.0,0.0,0.0,0.0,0.0,0.0,0.0,0.0,0.0,0.0,0.0,0.0,0.0,0.0,0.0,0.0,0.0,0.0,0.0,0.0,0.0,0.0,0.0,0.0,0.0,0.0,0.0,0.0,0.0,0.0,0.0,0.0,0.7384,0.8198,0.873,0.902,0.9223,0.9228,0.903,1.0253,0.8975,0.0,0.0,0.0,0.0,0.0,0.0,0.0,0.0,0.0,0.0,0.0,0.0,0.0,0.0,0.0,0.0,0.0,0.0,0.0,0.0,0.0,0.0,0.0,0.0,0.0,0.0,0.0,0.0,0.0,0.0,0.0,0.0,0.0,0.0,0.0,0.0,0.0,0.0,0.0,0.0,0.0,-1.6914,-1.7304,-1.7441,0.0,0.0,0.0,0.0,-1.8184,-1.8848,0.0,0.0,0.0,0.0,0.0,0.0,0.0,0.0,0.0,0.0,0.0,0.0,0.0,0.0,0.0,0.0,0.0,0.0,0.0,0.0,0.0,0.0,0.0,0.0,0.0,0.0,0.0,0.0,0.0,0.0,0.0,0.0,0.0,0.0,0.0,0.0,0.0,0.0,0.0,0.0,0.0,0.0,0.0,0.0,0.0,0.0,0.0,0.0,0.0,0.0,0.0,0.0,0.0,0.0,0.0,0.0,0.6655,0.7816,0.8658,0.8941,0.9219,0.9228,0.9025,1.0253,0.898,0.0,0.0,0.0,0.0,0.0,0.0,0.0,0.0,0.0,0.0,0.0,0.0,0.0,0.0,0.0,0.0,0.0,0.0,0.0,0.0,0.0,0.0,0.0,0.0,0.0,0.0,0.0,0.0,0.0,0.0,0.0,0.0,0.0,0.0,0.0,0.0,0.0,0.0,0.0,0.0,0.0,-1.7037,-1.7997,-1.8119,-1.819,0.0,0.0,-1.9099,-1.8504,-1.9565,0.0,0.0,0.0,0.0,0.0,0.0,0.0,0.0,0.0,0.0,0.0,0.0,0.0,0.0,0.0,0.0,0.0,0.0,0.0,0.0,0.0,0.0,0.0,0.0,0.0,0.0,0.0,0.0,0.0,0.0,0.0,0.0,0.0,0.0,0.0,0.0,0.0,0.0,0.0,0.0,0.0,0.0,0.0,0.0,0.0,0.0,0.0,0.0,0.0,0.0,0.0,0.0,0.0,0.0,0.0,0.5905,0.7098,0.8219,0.8857,0.902,0.911,0.9349,0.9792,1.0421,0.9191,0.0,0.0,0.0,0.0,0.0,0.0,0.0,0.0,0.0,0.0,0.0,0.0,0.0,0.0,0.0,0.0,0.0,0.0,0.0,0.0,0.0,0.0,0.0,0.0,0.0,0.0,0.0,0.0,0.0,0.0,0.0,0.0,0.0,0.0,0.0,0.0,0.0,0.0,0.0,0.0,0.0,0.0,-1.906,-1.9658,0.0,0.0,0.0,-2.1151,-2.0406,0.0,0.0,0.0,0.0,0.0,0.0,0.0,0.0,0.0,0.0,0.0,0.0,0.0,0.0,0.0,0.0,0.0,0.0,0.0,0.0,0.0,0.0,0.0,0.0,0.0,0.0,0.0,0.0,0.0,0.0,0.0,0.0,0.0,0.0,0.0,0.0,0.0,0.0,0.0,0.0,0.0,0.0,0.0,0.0,0.0,0.0,0.0,0.0,0.0,0.0,0.0,0.0,0.0,0.0,0.0,0.0,0.0,0.722,0.8398,0.9016,0.9021,0.9021,0.9488,1.0494,1.0743,0.0,0.0,0.0,0.0,0.0,0.0,0.0,0.0,0.0,0.0,0.0,0.0,0.0,0.0,0.0,0.0,0.0,0.0,0.0,0.0,0.0,0.0,0.0,0.0,0.0,0.0,0.0,-1.2748,0.0,0.0,0.0,0.0,0.0,0.0,0.0,0.0,0.0,0.0,0.0,0.0,0.0,0.0,-2.0003,-2.0177,-2.0732,-2.0937,0.0,0.0,-2.2692,-2.2498,-2.4007,-2.526,0.0,0.0,0.0,0.0,0.0,0.0,0.0,0.0,0.0,0.0,0.0,0.0,0.0,0.0,0.0,0.0,0.0,0.0,0.0,0.0,0.0,0.0,0.0,0.0,0.0,0.0,0.0,0.0,0.0,0.0,0.0,0.0,0.0,0.0,0.0,0.0,0.0,0.0,0.0,0.0,0.0,0.0,0.0,0.0,0.0,0.0,0.0,0.0,0.0,0.0,0.0,0.0,0.0,0.0,0.0,0.6332,0.8045,0.8982,0.8982,0.9141,0.9705,1.0675,1.1508,1.0279,0.0,0.0,0.0,0.0,0.0,0.0,0.0,0.0,0.0,0.0,0.0,0.0,0.0,0.0,0.0,0.0,0.0,0.0,0.0,0.0,0.0,0.0,0.0,0.0,0.0,0.0,0.0,0.0,0.0,0.0,0.0,0.0,0.0,0.0,0.0,0.0,0.0,0.0,0.0,0.0,0.0,-2.1141,-2.1451,-2.0958,-2.1291,0.0,0.0,-2.3217,-2.4282,-2.4919,-2.5736,-2.6725,0.0,0.0,0.0,0.0,0.0,0.0,0.0,0.0,0.0,0.0,0.0,0.0,0.0,0.0,0.0,0.0,0.0,0.0,0.0,0.0,0.0,0.0,0.0,0.0,0.0,0.0,0.0,0.0,0.0,0.0,0.0,0.0,0.0,0.0,0.0,0.0,0.0,0.0,0.0,0.0,0.0,0.0,0.0,0.0,0.0,0.0,0.0,0.0,0.0,0.0,0.0,0.0,0.0,0.5523,0.646,0.8388,0.9419,0.962,0.9545,1.0279,1.1952,1.198,1.1122,0.0,0.0,0.0,0.0,0.0,0.0,0.0,0.0,0.0,0.0,0.0,0.0,0.0,0.0,0.0,0.0,0.0,0.0,0.0,0.0,0.0,0.0,0.0,0.0,0.0,0.0,0.0,0.0,-1.703,-1.7921,-1.7963,0.0,0.0,0.0,0.0,0.0,0.0,0.0,0.0,0.0,0.0,-2.2491,-2.3345,-2.3504,0.0,0.0,-2.5172,-2.5804,-2.5204,-2.6621,-2.7831,-2.756,-2.8112,0.0,0.0,0.0,0.0,0.0,0.0,0.0,0.0,0.0,0.0,0.0,0.0,0.0,0.0,0.0,0.0,0.0,0.0,0.0,0.0,0.0,0.0,0.0,0.0,0.0,0.0,0.0,0.0,0.0,0.0,0.0,0.0,0.0,0.0,0.0,0.0,0.0,0.0,0.0,0.0,0.0,0.0,0.0,0.0,0.0,0.0,0.0,0.0,0.0,0.0,0.0,0.0,0.555,0.6126,0.8417,0.9639,0.9772,1.0014,1.0967,1.2557,1.2533,1.2163,0.0,0.0,0.0,0.0,0.0,0.0,0.0,0.0,0.0,0.0,0.0,0.0,0.0,0.0,0.0,0.0,0.0,0.0,0.0,0.0,0.0,0.0,0.0,0.0,0.0,0.0,0.0,0.0,-1.8343,-1.9127,-1.9088,0.0,0.0,0.0,0.0,0.0,0.0,0.0,0.0,0.0,0.0,-2.3192,-2.4434,-2.4774,-2.4971,-2.5236,-2.6665,-2.7494,-2.6928,-2.8673,-2.99,-2.9389,0.0,0.0,0.0,0.0,0.0,0.0,0.0,0.0,0.0,0.0,0.0,0.0,0.0,0.0,0.0,0.0,0.0,0.0,0.0,0.0,0.0,0.0,0.0,0.0,0.0,0.0,0.0,0.0,0.0,0.0,0.0,0.0,0.0,0.0,0.0,0.0,0.0,0.0,0.0,0.0,0.0,0.0,0.0,0.0,0.0,0.0,0.0,0.0,0.0,0.0,0.0,0.0,0.0,0.5245,0.5181,0.8078,0.9448,0.9272,1.0543,1.1647,1.2426,1.3409,1.3215,1.1679,0.0,0.0,0.0,0.0,0.0,0.0,0.0,0.0,0.0,0.0,0.0,0.0,0.0,0.0,0.0,0.0,0.0,0.0,0.0,0.0,0.0,0.0,0.0,0.0,0.0,0.0,-1.7027,-1.8209,-1.8842,0.0,0.0,0.0,0.0,0.0,0.0,0.0,0.0,0.0,0.0,-2.137,-2.301,-2.4353,-2.4083,-2.4792,-2.7249,-2.7304,-2.7774,-2.9667,-3.086,-3.1832,0.0,0.0,0.0,0.0,0.0,0.0,0.0,0.0,0.0,0.0,0.0,0.0,0.0,0.0,0.0,0.0,0.0,0.0,0.0,0.0,0.0,0.0,0.0,0.0,0.0,0.0,0.0,0.0,0.2462,0.0,0.0,0.0,0.0,0.0,0.0,0.0,0.0,0.0,0.0,0.0,0.5405,0.6215,0.0,0.0,0.0,0.0,0.0,0.0,0.0,0.0,0.0,0.0,0.0,0.0,0.5678,0.621,0.848,0.9709,0.9836,1.0646,1.1551,1.2565,1.2908,1.1984,0.9579,0.0,0.0,0.0,0.0,0.0,0.0,0.0,0.0,0.0,0.0,0.0,0.0,0.0,0.0,0.0,0.0,0.0,0.0,0.0,0.0,0.0,0.0,0.0,0.0,0.0,-1.6971,0.0,0.0,0.0,0.0,0.0,0.0,0.0,0.0,0.0,0.0,0.0,-1.9228,-2.1211,-2.198,-2.324,-2.5535,-2.5712,-2.6534,0.0,0.0,0.0,0.0,0.0,0.0,0.0,0.0,0.0,0.0,0.0,0.0,0.0,0.0,-3.9298,-3.8098,-3.8313,-3.8797,-3.927,0.0,0.0,0.0,0.0,0.0,0.0,0.0,0.0,0.0,0.0,0.0,0.0,0.0,0.0,0.0,0.0,0.3183,0.0,0.0,0.0,0.0,0.0,0.0,0.0,0.0,0.6093,0.6816,0.6845,0.7691,0.7615,0.0,0.6774,0.6365,0.0,0.0,0.0,0.0,0.0,0.0,0.0,0.0,0.5938,0.6695,0.8655,0.9802,1.0118,1.0464,1.1192,1.2214,1.2093,1.0948,0.8672,0.766,0.5898,0.0,0.0,0.0,0.0,0.0,0.0,0.0,0.0,0.0,0.0,0.0,0.0,0.0,0.0,0.0,0.0,0.0,0.0,0.0,0.0,0.0,0.0,0.0,-1.7428,0.0,0.0,0.0,0.0,0.0,0.0,0.0,0.0,0.0,-1.9142,-1.8134,-1.8731,-2.2402,-2.2522,-2.3303,-2.6127,0.0,0.0,0.0,0.0,0.0,0.0,0.0,-3.3379,-3.3989,-3.5103,-3.6262,-3.7308,-3.8823,-4.0058,-4.0343,0.0,0.0,-4.03,-4.0436,-4.0859,-4.1128,-4.1372,-4.1633,-4.1873,-4.2328,-4.2705,0.0,0.0,0.0,0.0,0.0,0.0,0.0,0.0,0.373,0.3214,0.0,0.3459,0.0,0.0,0.0,0.0,0.0,0.0,0.0,0.0,0.8764,0.9421,0.9364,0.9356,0.9275,0.9108,0.8842,0.8575,0.8147,0.6969,0.0,0.0,0.0,0.0,0.0,0.0,0.6017,0.6713,0.8426,0.9548,1.0036,1.0294,1.0586,1.1162,1.0854,1.0184,0.8967,0.6752,0.5126,0.4144,0.0414,0.0,0.0,0.0,0.0,0.0,0.0,0.0,0.0,0.0,0.0,0.0,0.0,0.0,0.0,0.0,0.0,0.0,0.0,0.0,0.0,-1.6026,0.0,0.0,0.0,0.0,0.0,0.0,0.0,0.0,0.0,0.0,-1.9825,-1.7944,-1.8163,-2.314,0.0,0.0,0.0,0.0,-2.8305,-2.9041,-2.9742,-3.1013,-3.2888,-3.4955,-3.6622,-3.7628,0.0,0.0,-4.0835,-4.069,-4.0698,-4.1009,-4.2462,-4.3383,-4.2868,-4.2397,-4.2102,-4.2087,-4.2381,-4.247,-4.2445,-4.3109,-4.3611,0.6867,0.0,0.0,0.0,0.0,0.3798,0.3972,0.4875,0.5034,0.4529,0.3631,0.4645,0.0,0.0,0.0,0.0,0.0,0.0,0.607,0.7469,0.7692,0.8472,0.9547,0.9551,0.9522,0.9478,0.9518,0.956,0.9511,0.9307,0.7894,0.5398,0.0,0.0,0.0,0.0,0.6935,0.7848,0.8564,0.8951,0.8852,0.9481,0.9772,0.9498,0.9449,0.8589,0.6861,0.5787,0.4242,0.2304,0.069,0.0,0.0,0.0,0.0,0.0,0.0,0.0,0.0,0.0,0.0,0.0,0.0,0.0,0.0,0.0,0.0,0.0,0.0,0.0,-1.6396,-1.5756,-1.5668,0.0,0.0,0.0,0.0,0.0,0.0,0.0,0.0,0.0,-1.9522,-1.8445,-1.8351,0.0,0.0,-2.3765,-2.6153,-2.8278,-3.0319,-3.197,0.0,0.0,0.0,-3.7376,-3.766,-3.887,-4.0502,-4.1807,-4.2295,-4.2878,-4.3341,-4.3592,-4.4196,-4.4652,-4.4748,-4.4706,-4.4573,-4.4572,-4.4829,-4.5021,-4.5016,-4.5226,-4.539,0.9081,0.7183,0.5939,0.5695,0.6011,0.5354,0.532,0.5747,0.5815,0.5096,0.3786,0.4856,0.4547,0.318,0.4103,0.0,0.0,0.0,0.6893,0.8275,0.799,0.8441,0.9426,0.9434,0.9565,0.9726,0.9661,0.976,0.9921,0.9784,0.8818,0.7132,0.0,0.0,0.6332,0.6677,0.7263,0.7983,0.8369,0.8428,0.8223,0.8414,0.8007,0.7108,0.7003,0.6137,0.4546,0.4109,0.3078,0.1346,0.0442,-0.0607,0.0,0.0,0.0,0.0,0.0,0.0,0.0,0.0,0.0,0.0,0.0,-1.1498,-1.2272,0.0,0.0,0.0,-1.2994,-1.4294,-1.5329,-1.4275,0.0,0.0,0.0,0.0,0.0,0.0,0.0,-1.7032,-1.6473,-1.6988,-1.9041,-1.9448,-2.0233,-2.197,-2.3645,-2.5599,-2.7978,0.0,-3.2003,-3.4044,-3.5449,-3.6987,-3.8814,-3.8991,-3.9415,-4.096,-4.2158,-4.3058,-4.3559,-4.4129,-4.4599,-4.4891,-4.5004,-4.5175,-4.5476,-4.5642,-4.5742,-4.5654,-4.5815,-4.5998,-4.6049,-4.6111,-4.6166,1.0778,0.9805,0.7004,0.6502,0.7425,0.742,0.7001,0.6363,0.6374,0.5205,0.3452,0.4501,0.4738,0.4486,0.5334,0.0,0.0,0.7724,0.8203,0.9157,0.9153,0.9157,0.9157,0.9256,0.9434,0.9778,0.9442,0.9461,0.9803,0.9103,0.865,0.8646,0.7935,0.7295,0.6755,0.6792,0.7056,0.7527,0.7784,0.7813,0.7707,0.7012,0.5819,0.4329,0.4019,0.3361,0.2295,0.2191,0.1779,0.0994,-0.027,-0.1259,-0.2062,0.0,0.0,0.0,0.0,0.0,0.0,0.0,0.0,0.0,0.0,0.0,0.0,0.0,0.0,0.0,-1.1783,0.0,-1.2837,-1.2359,0.0,0.0,0.0,-1.6027,-1.8026,-1.728,-1.6617,-1.6748,0.0,0.0,-1.8437,0.0,-2.3057,-2.5362,-2.6562,-2.815,-3.0887,-3.2241,-3.3627,-3.5458,-3.6432,-3.7441,-3.9024,-4.0223,-4.1663,-4.321,-4.4125,-4.4373,-4.4508,-4.4631,-4.48,-4.5096,-4.5118,-4.514,-4.5381,-4.5699,-4.5866,-4.5771,-4.579,-4.5889,-4.601,-4.6063,-4.6136,1.0879,1.0054,0.9175,0.8832,0.889,0.8182,0.7707,0.7582,0.7695,0.7033,0.5911,0.5952,0.5996,0.5945,0.6735,0.7743,0.8776,0.8796,0.8877,0.9124,0.8925,0.8921,0.912,0.9322,0.9345,0.9282,0.9476,0.9603,0.9534,0.9246,0.9046,0.883,0.8404,0.7838,0.7359,0.7419,0.74,0.7478,0.6955,0.624,0.5322,0.4822,0.4124,0.2923,0.2684,0.2163,0.1462,0.0865,0.0474,0.0188,-0.0846,-0.1493,-0.1745,-0.366,0.0,0.0,0.0,0.0,0.0,0.0,0.0,0.0,0.0,-1.0542,-1.133,0.0,-1.13,0.0,-1.0039,-1.1209,-1.3914,-1.2913,0.0,0.0,-1.4352,-1.4879,-1.3919,-1.5361,-1.618,-1.55,-1.5332,-1.6223,-1.8725,-2.1193,-2.4138,-2.7831,-2.947,-3.0473,-3.1166,-3.4225,-3.6545,-3.7277,-3.9088,-4.0858,-4.152,-4.2487,-4.3299,-4.3974,-4.4346,-4.4546,-4.4572,-4.4849,-4.5055,-4.514,-4.5361,-4.5539,-4.5607,-4.5742,-4.5879,-4.5966,-4.6063,-4.6125,-4.6147,-4.6133,-4.6108,1.0939,1.0213,1.0019,0.9762,0.9439,0.8941,0.8425,0.8035,0.8187,0.7638,0.6505,0.674,0.6636,0.6274,0.7648,0.8675,0.9259,0.9176,0.8976,0.8874,0.87,0.8664,0.8769,0.9041,0.9119,0.9194,0.9387,0.9512,0.9437,0.9086,0.8797,0.8685,0.7978,0.7385,0.6917,0.7046,0.6997,0.6759,0.555,0.454,0.3924,0.312,0.2207,0.1095,0.1085,0.0778,-0.0191,-0.0473,-0.0656,-0.0836,-0.1577,-0.2132,-0.2497,-0.3413,-0.4246,0.0,0.0,0.0,0.0,0.0,0.0,0.0,0.0,0.0,0.0,0.0,-1.0825,0.0,-0.9378,0.0,-1.213,-1.1288,-1.0953,-1.1749,-1.2847,-1.3652,-1.3791,-1.5173,-1.5896,-1.5463,-1.5491,-1.6974,-2.0533,-2.2822,-2.5814,-3.0414,-3.2852,-3.4196,-3.4179,-3.6242,-3.8055,-3.9139,-4.0857,-4.232,-4.3014,-4.3735,-4.4213,-4.4299,-4.465,-4.4938,-4.4891,-4.5118,-4.5322,-4.5342,-4.5545,-4.5673,-4.5688,-4.5829,-4.5966,-4.6037,-4.6142,-4.6201,-4.6204,-4.6172,-4.6141,1.0925,1.03,1.0192,0.988,0.9468,0.9616,0.9069,0.8292,0.8449,0.7773,0.6508,0.7328,0.707,0.621,0.82,0.9046,0.9153,0.9157,0.89,0.8667,0.8431,0.8364,0.8371,0.861,0.8852,0.919,0.9216,0.9293,0.9312,0.8646,0.8259,0.8138,0.7209,0.6417,0.5884,0.6014,0.5869,0.5463,0.3789,0.2865,0.2718,0.1505,0.0397,-0.0782,-0.0487,-0.0768,-0.1857,-0.176,-0.1746,-0.1991,-0.2439,-0.3008,-0.3719,-0.3414,-0.403,0.0,-0.6361,0.0,0.0,0.0,0.0,0.0,0.0,0.0,0.0,-0.918,-0.9639,-1.1012,-0.8858,-0.7942,-0.9014,-0.887,-0.9328,-1.056,-1.1086,-1.2368,-1.4715,-1.5527,-1.5825,-1.5825,-1.5825,-1.7757,-2.2543,-2.4477,-2.712,-3.2347,-3.5474,-3.7285,-3.7931,-3.8193,-3.9104,-4.0932,-4.1937,-4.2848,-4.3557,-4.4252,-4.4606,-4.4546,-4.4919,-4.5322,-4.5201,-4.5362,-4.5532,-4.5566,-4.5648,-4.5723,-4.5708,-4.5933,-4.6054,-4.5852,-4.5881,-4.6016,-4.6139,-4.6053,-4.6093,1.1075,1.0798,1.0445,1.024,0.9938,0.9846,0.9717,0.9446,0.9832,0.9111,0.7635,0.8255,0.7903,0.7119,0.8221,0.8718,0.8539,0.8866,0.8695,0.8371,0.834,0.8326,0.833,0.8558,0.8589,0.8525,0.864,0.8601,0.8315,0.7976,0.7482,0.6755,0.6537,0.5959,0.0,0.0,0.0,0.0,0.2361,0.1185,0.0201,-0.0293,-0.1056,-0.2106,-0.1698,0.0,-0.2365,-0.2798,-0.2977,-0.3014,-0.3673,0.0,0.0,0.0,0.0,0.0,0.0,0.0,0.0,0.0,0.0,0.0,-0.6566,-0.6985,-0.7036,-0.6468,-0.6255,-0.6532,-0.6703,-0.6793,-0.6827,-0.7737,-0.803,-0.7501,-0.9793,-1.1482,-1.1507,-1.3957,-1.5825,-1.5825,-1.5825,-1.7757,-2.2476,-2.3696,-2.67,-3.3432,-3.5613,-3.7218,-3.9546,-4.0001,-4.0603,-4.156,-4.2795,-4.3717,-4.3905,-4.4428,-4.4762,-4.4676,-4.4966,-4.5263,-4.5243,-4.5438,-4.5568,-4.5531,-4.5713,-4.582,-4.5764,-4.5987,-4.5904,-4.5248,-4.5137,-4.5348,-4.6022,-4.562,-4.5351,1.1002,0.0,1.0511,1.0164,0.0,0.9774,0.9631,0.9423,0.9906,0.9137,0.7519,0.819,0.7952,0.7018,0.8054,0.847,0.8463,0.8553,0.8446,0.8265,0.8194,0.8157,0.816,0.8405,0.844,0.8071,0.8282,0.8242,0.7861,0.7328,0.6766,0.6393,0.555,0.4912,0.4308,0.3205,0.2449,0.2279,0.0812,-0.0507,-0.1445,-0.2536,-0.34,-0.3966,0.0,0.0,0.0,0.0,0.0,0.0,0.0,0.0,0.0,0.0,0.0,-0.5122,-0.5584,-0.5722,-0.5252,-0.4751,-0.4558,-0.4596,-0.429,-0.4586,-0.5782,-0.5032,-0.4689,-0.5078,-0.484,-0.484,-0.5098,-0.6263,-0.6872,-0.6597,-0.9168,-1.1225,-1.19,-1.4154,-1.573,-1.6001,-1.6965,-1.9225,-2.2906,-2.5273,-2.8649,-3.4416,-3.6554,-3.8046,-4.0084,-4.0689,-4.1076,-4.2014,-4.3277,-4.4192,-4.4317,-4.4695,-4.503,-4.5023,-4.522,-4.54,-4.54,-4.5513,-4.5586,-4.5566,-4.5703,-4.5693,-4.5221,-4.5337,-4.5234,-4.4428,-4.4215,-4.4387,-4.4875,-4.4608,-4.4384,1.0955,1.0564,1.0461,1.0075,0.947,0.9461,0.9282,0.9089,0.0,0.0,0.0,0.8007,0.7811,0.7064,0.7904,0.8336,0.8435,0.8323,0.8258,0.8228,0.8126,0.7979,0.7989,0.825,0.8196,0.7866,0.7989,0.7818,0.7374,0.6628,0.6105,0.5798,0.4303,0.327,0.274,0.1316,0.0545,0.0429,-0.1152,-0.2294,-0.3071,-0.4843,-0.5733,-0.5753,-0.5551,-0.5313,-0.5039,-0.5138,-0.5238,-0.5238,-0.556,-0.5859,-0.5957,-0.5986,-0.5596,-0.4792,-0.5008,-0.4773,-0.4176,-0.3329,-0.3039,-0.356,-0.2746,-0.2921,-0.4691,-0.372,-0.3228,-0.3677,-0.2963,-0.2701,-0.3413,-0.4806,-0.5841,-0.6145,-0.8879,-1.1118,-1.2485,-1.4549,-1.6008,-1.6525,-1.8263,-2.0898,-2.4159,-2.7195,-3.1105,-3.5276,-3.7568,-3.9277,-4.0586,-4.1047,-4.1446,-4.2492,-4.3564,-4.4308,-4.4541,-4.4948,-4.5256,-4.5216,-4.538,-4.555,-4.5586,-4.5586,-4.5586,-4.5586,-4.5549,-4.5167,-4.4607,-4.4509,-4.4209,-4.3363,-4.3257,-4.337,-4.3441,-4.347,-4.3528,1.107,1.097,1.0558,1.0134,0.9815,0.9564,0.9176,0.8787,0.873,0.8619,0.8497,0.8381,0.8176,0.809,0.8279,0.8282,0.8299,0.8279,0.8201,0.0,0.8187,0.8133,0.7827,0.7985,0.7884,0.7452,0.7282,0.6819,0.6202,0.5888,0.5174,0.3979,0.2831,0.1081,-0.122,-0.2113,-0.3,-0.3986,-0.3917,-0.4579,-0.6132,-0.7079,-0.7366,-0.6856,-0.6656,-0.6242,-0.5636,-0.5847,-0.5942,-0.5942,-0.6124,-0.6469,-0.6899,-0.7097,-0.6458,-0.4836,-0.496,-0.4246,-0.2334,-0.2004,-0.2438,-0.3399,-0.3778,-0.3436,-0.228,-0.142,-0.0441,0.0558,-0.0661,-0.1634,-0.2061,-0.348,-0.4644,-0.5344,-0.8258,-1.044,-1.0826,-1.3663,-1.6432,-1.8438,-1.929,-2.2007,-2.6755,-2.8787,-3.1583,-3.6266,-3.8275,-3.931,-4.1171,-4.1821,-4.2185,-4.296,-4.3769,-4.4261,-4.443,-4.4843,-4.5135,-4.5071,-4.5201,-4.5419,-4.5568,-4.5509,-4.5528,-4.5586,-4.5032,-4.4568,-4.4394,-4.3873,-4.3225,-4.251,-4.2371,-4.2463,-4.2596,-4.2617,-4.2846,1.0649,1.0449,1.0046,0.9746,0.9446,0.9041,0.8643,0.8352,0.8211,0.8309,0.8358,0.8333,0.7958,0.7449,0.814,0.8069,0.7443,0.8069,0.7994,0.7351,0.7199,0.6777,0.6012,0.5906,0.562,0.5169,0.5116,0.449,0.3522,0.3107,0.2381,0.1452,0.0316,-0.1074,-0.2746,-0.3488,-0.4554,-0.5959,-0.5829,-0.6378,-0.7723,-0.8994,-0.9133,-0.7883,-0.8187,-0.7765,-0.6298,-0.651,-0.6722,-0.6722,-0.6828,-0.6962,-0.7124,-0.7344,-0.6634,-0.475,-0.4865,-0.4107,-0.1905,-0.2113,-0.2416,-0.302,-0.3208,-0.2893,-0.1853,-0.1542,-0.0555,0.1232,0.0441,-0.0109,-0.0324,-0.2103,-0.3298,-0.337,-0.6734,-0.9371,-1.044,-1.2587,-1.5171,-1.7372,-1.9992,-2.2837,-2.5728,-2.9387,-3.2809,-3.6609,-3.8709,-4.0747,-4.1997,-4.2257,-4.258,-4.3298,-4.3911,-4.4299,-4.4503,-4.4843,-4.5074,-4.5026,-4.5159,-4.5341,-4.5493,-4.5297,-4.5124,-4.5393,-4.4595,-4.3766,-4.3673,-4.3023,-4.2272,-4.1623,-4.1868,-4.2023,-4.1861,-4.1983,-4.2451,1.0245,1.0042,0.965,0.9326,0.9099,0.8625,0.8317,0.8096,0.8126,0.8136,0.815,0.8197,0.7722,0.7035,0.7933,0.7767,0.695,0.7556,0.7276,0.6266,0.5894,0.5246,0.4369,0.4152,0.3771,0.3232,0.307,0.2339,0.1267,0.0636,-0.0106,-0.1166,-0.2323,-0.3297,-0.4322,-0.5012,-0.6135,-0.7518,-0.7825,-0.8259,-0.9029,-1.0707,-1.0623,-0.8876,-0.9556,-0.9023,-0.7046,-0.7046,-0.7154,-0.7154,-0.7268,-0.7268,-0.7376,-0.7601,-0.6932,-0.5035,-0.4921,-0.414,-0.2241,-0.2429,-0.2716,-0.3,-0.3102,-0.2797,-0.1854,-0.1996,-0.112,0.0895,0.11,0.0865,0.0427,-0.1147,-0.2252,-0.2423,-0.6009,-0.8977,-1.0245,-1.2292,-1.4766,-1.7287,-2.1031,-2.3895,-2.6428,-3.0743,-3.4801,-3.7278,-3.9976,-4.1913,-4.232,-4.2494,-4.2884,-4.352,-4.4009,-4.4318,-4.4674,-4.4833,-4.4981,-4.5026,-4.5074,-4.5243,-4.5342,-4.4893,-4.472,-4.5182,-4.422,-4.3299,-4.294,-4.2387,-4.1672,-4.1054,-4.1488,-4.2021,-4.1942,-4.2415,-4.2571,1.0099,1.0008,0.9473,0.9094,0.8769,0.8581,0.8353,0.8272,0.8381,0.8442,0.8404,0.8174,0.8052,0.8136,0.8056,0.7572,0.6635,0.6414,0.5665,0.4667,0.4482,0.4194,0.3733,0.3681,0.3383,0.2875,0.2044,0.1282,0.0522,-0.0106,-0.1379,-0.3386,-0.459,-0.5848,-0.7422,-0.8052,-0.8675,-0.9421,-0.9971,-1.0305,-1.0732,-1.2054,-1.1718,-0.9366,-1.0151,-0.9574,-0.7254,-0.7154,-0.7154,-0.7265,-0.7493,-0.7715,-0.7934,-0.8266,-0.7482,-0.5472,-0.525,-0.4585,-0.28,-0.2537,-0.3054,-0.403,-0.4571,-0.403,-0.2076,-0.1774,-0.0784,0.1116,0.1417,0.0963,0.0213,-0.1137,-0.2328,-0.3126,-0.6793,-1.0143,-1.0635,-1.3369,-1.7387,-2.2217,-2.283,-2.5831,-3.1222,-3.4032,-3.6438,-3.9324,-4.088,-4.1966,-4.2098,-4.2516,-4.3014,-4.374,-4.4023,-4.4231,-4.4674,-4.4667,-4.4777,-4.5106,-4.5004,-4.5074,-4.5208,-4.4934,-4.4586,-4.5182,-4.4184,-4.3129,-4.2862,-4.236,-4.1511,-4.0982,-4.1358,-4.2138,-4.2953,-4.3587,-4.3569,0.9546,0.963,0.9116,0.8738,0.8487,0.8436,0.8374,0.8401,0.8455,0.8482,0.8469,0.835,0.7969,0.7566,0.8144,0.7449,0.5726,0.6231,0.5326,0.3384,0.3002,0.2353,0.1585,0.1182,0.065,0.0,-0.0435,-0.1306,-0.2493,-0.3454,-0.4631,-0.5799,-0.6492,-0.7458,-0.8543,-0.8878,-0.9435,-1.0146,-1.0646,-1.1143,-1.1582,-1.2392,-1.1722,-0.973,-1.0004,-0.9448,-0.7586,-0.727,-0.7411,-0.77,-0.7823,-0.7934,-0.8048,-0.8374,-0.7479,-0.5363,-0.4252,-0.3123,-0.1769,-0.285,-0.3383,-0.2946,-0.4259,-0.4494,-0.2988,-0.223,-0.112,0.0447,0.1197,0.1172,0.0212,-0.1031,-0.2116,-0.3221,-0.5012,-0.7186,-1.0143,-1.1085,-1.3944,-1.9978,-2.2486,-2.4949,-2.9553,-3.3384,-3.6848,-4.0099,-4.1516,-4.1948,-4.2015,-4.2675,-4.3389,-4.3918,-4.4072,-4.4221,-4.4587,-4.4674,-4.4681,-4.4714,-4.4669,-4.4751,-4.5067,-4.4614,-4.4403,-4.5414,-4.407,-4.3111,-4.3032,-4.2305,-4.1514,-4.1094,-4.0938,-4.1633,-4.3013,-4.3543,-4.3169,0.9245,0.9228,0.8912,0.8636,0.8394,0.8438,0.8489,0.8547,0.8587,0.8604,0.8495,0.8133,0.7547,0.6999,0.7929,0.7075,0.506,0.5509,0.4491,0.2063,0.1416,0.065,-0.0214,-0.0971,-0.1628,-0.2187,-0.2636,-0.3875,-0.5462,-0.6199,-0.6998,-0.7526,-0.793,-0.84,-0.9,-0.9383,-0.9826,-1.0413,-1.1096,-1.1683,-1.2026,-1.2294,-1.1462,-0.976,-0.9704,-0.9068,-0.7618,-0.7519,-0.7686,-0.8036,-0.8045,-0.8156,-0.8156,-0.8488,-0.7703,-0.5254,-0.3137,-0.1786,-0.1212,-0.2529,-0.3077,-0.2527,-0.4068,-0.4421,-0.3235,-0.2351,-0.1117,0.0333,0.0758,0.0532,0.0106,-0.0928,-0.2018,-0.3122,-0.4119,-0.6691,-0.9743,-1.0206,-1.3383,-1.9468,-2.2226,-2.4927,-2.8849,-3.3564,-3.7866,-4.0443,-4.1499,-4.1973,-4.218,-4.2922,-4.3679,-4.398,-4.4132,-4.4298,-4.4477,-4.4532,-4.453,-4.4511,-4.4465,-4.4572,-4.4931,-4.4309,-4.4187,-4.4959,-4.3789,-4.3323,-4.3455,-4.2744,-4.1995,-4.1489,-4.128,-4.1615,-4.2916,-4.3139,-4.2806,0.9354,0.9343,0.9016,0.8794,0.8696,0.8815,0.8815,0.8598,0.8729,0.8679,0.8317,0.7114,0.6473,0.6445,0.7353,0.6598,0.4376,0.4068,0.2679,0.0322,-0.0109,-0.0434,-0.0963,-0.1763,-0.222,-0.2525,-0.3884,-0.5363,-0.6911,-0.7032,-0.7416,-0.8364,-0.8617,-0.895,-0.9355,-0.9933,-1.0314,-1.0605,-1.1492,-1.2073,-1.2273,-1.1908,-1.1137,-1.0091,-0.9431,-0.8632,-0.792,-0.7729,-0.7898,-0.8039,-0.8263,-0.8484,-0.8484,-0.8933,-0.8149,-0.5699,-0.235,-0.0785,-0.1567,-0.1566,-0.19,-0.324,-0.4129,-0.3913,-0.2568,-0.201,-0.0888,0.1424,0.0,-0.053,-0.0212,-0.1234,-0.2218,-0.3422,-0.7189,-0.9355,-1.0143,-1.2849,-1.7228,-2.154,-2.3313,-2.6564,-3.3346,-3.7042,-3.8879,-4.0414,-4.115,-4.1647,-4.2324,-4.3051,-4.3627,-4.3931,-4.4132,-4.4327,-4.4587,-4.4505,-4.4458,-4.4393,-4.4374,-4.4484,-4.4367,-4.4313,-4.4566,-4.4543,-4.3765,-4.3541,-4.3881,-4.3684,-4.3032,-4.2489,-4.2008,-4.2351,-4.314,-4.3124,-4.2785,0.8859,0.8869,0.8754,0.8652,0.8497,0.8458,0.8399,0.8188,0.7379,0.7523,0.7802,0.6102,0.5552,0.5915,0.5623,0.4496,0.2963,0.2634,0.1538,-0.022,-0.0776,-0.1219,-0.1767,-0.2234,-0.3021,-0.3896,-0.458,-0.5819,-0.7354,-0.8012,-0.852,-0.8978,-0.9505,-0.9838,-1.004,-1.0605,-1.1096,-1.1492,-1.198,-1.2175,-1.1883,-1.1184,-1.043,-0.9606,-0.9168,-0.8618,-0.8027,-0.8033,-0.8138,-0.8595,-0.8716,-0.8712,-0.8712,-0.7934,-0.7041,-0.6038,-0.3694,-0.2353,-0.2465,-0.2913,-0.3248,-0.358,-0.448,-0.479,-0.3866,-0.2642,-0.1422,-0.0753,-0.0738,-0.1044,-0.1352,-0.2449,-0.3621,-0.4427,-0.6203,-0.8463,-1.021,-1.3126,-1.7113,-2.2112,-2.5979,-3.0679,-3.3709,-3.6367,-3.8116,-4.0053,-4.081,-4.1376,-4.2253,-4.3123,-4.3707,-4.4095,-4.424,-4.4354,-4.4524,-4.443,-4.4296,-4.4199,-4.4162,-4.4308,-4.4288,-4.4312,-4.4499,-4.464,-4.3969,-4.3653,-4.3937,-4.3484,-4.3063,-4.2982,-4.2523,-4.2584,-4.3446,-4.3293,-4.2889,0.8411,0.8321,0.8412,0.8349,0.8227,0.8135,0.8094,0.7808,0.6733,0.6633,0.6803,0.4804,0.4023,0.4134,0.313,0.2125,0.1342,0.1453,0.0783,-0.0673,-0.1346,-0.1907,-0.2468,-0.3141,-0.3924,-0.4929,-0.5485,-0.6594,-0.8131,-0.8882,-0.9374,-0.9843,-1.0284,-1.0501,-1.0739,-1.1292,-1.1785,-1.2175,-1.2565,-1.2565,-1.217,-1.1179,-1.0293,-0.9801,-0.9015,-0.8477,-0.8262,-0.8171,-0.8411,-0.8773,-0.8893,-0.8886,-0.893,-0.7149,-0.6035,-0.5926,-0.3917,-0.2571,-0.2336,-0.3001,-0.3434,-0.3086,-0.4077,-0.4605,-0.4229,-0.303,-0.2251,-0.2005,-0.2705,-0.278,-0.2557,-0.3844,-0.5122,-0.5622,-0.66,-0.8167,-1.0524,-1.4014,-1.8335,-2.3382,-2.8936,-3.2807,-3.4602,-3.6245,-3.8044,-3.9986,-4.0477,-4.1091,-4.1991,-4.2681,-4.3348,-4.3838,-4.3937,-4.4102,-4.4335,-4.4344,-4.4226,-4.4128,-4.4079,-4.4151,-4.421,-4.4279,-4.4374,-4.4535,-4.4392,-4.4058,-4.3639,-4.3209,-4.3111,-4.3158,-4.2793,-4.2614,-4.3088,-4.3354,-4.3045,0.8251,0.8014,0.8042,0.8029,0.8023,0.7996,0.8026,0.7703,0.6574,0.5899,0.5586,0.324,0.2013,0.1343,0.056,-0.0448,-0.0448,0.0448,0.0112,-0.1234,-0.1907,-0.2468,-0.2917,-0.4148,-0.4817,-0.5264,-0.6816,-0.8149,-0.9254,-0.9555,-1.0036,-1.0689,-1.0848,-1.1084,-1.1217,-1.2026,-1.2391,-1.2597,-1.3191,-1.3574,-1.3545,-1.179,-1.0811,-1.0801,-0.9141,-0.8184,-0.8459,-0.8469,-0.8601,-0.8862,-0.8784,-0.8893,-0.8886,-0.6906,-0.5579,-0.5353,-0.2795,-0.1222,-0.1096,-0.164,-0.2063,-0.2257,-0.2883,-0.342,-0.33,-0.3187,-0.3056,-0.3006,-0.4424,-0.5315,-0.3736,-0.4922,-0.6318,-0.7205,-0.828,-1.0049,-1.2373,-1.6019,-2.0589,-2.5568,-3.0831,-3.3797,-3.4807,-3.6747,-3.887,-3.9647,-4.0251,-4.081,-4.1516,-4.2032,-4.234,-4.2959,-4.3379,-4.373,-4.4011,-4.4266,-4.4177,-4.4067,-4.4036,-4.4067,-4.4079,-4.414,-4.421,-4.4308,-4.4093,-4.381,-4.3964,-4.3596,-4.3625,-4.3567,-4.3076,-4.2882,-4.3298,-4.3663,-4.3475,0.81,0.7919,0.8008,0.7937,0.7703,0.7621,0.7515,0.7252,0.53,0.4643,0.4465,0.179,0.0672,0.0672,-0.0224,-0.0897,-0.1121,-0.1121,-0.1458,-0.1907,-0.2356,-0.3141,-0.4147,-0.4706,-0.5485,-0.6596,-0.8042,-0.9044,-0.9478,-1.0413,-1.1048,-1.1305,-1.1959,-1.2339,-1.2511,-1.2988,-1.3199,-1.3495,-1.3796,-1.3796,-1.31,-1.1984,-1.1084,-1.0288,-0.8996,-0.8252,-0.833,-0.8336,-0.8482,-0.8767,-0.8635,-0.8621,-0.8527,-0.6915,-0.5713,-0.5275,-0.3412,-0.2078,-0.2047,-0.2256,-0.2465,-0.2877,-0.3297,-0.3699,-0.408,-0.365,-0.3619,-0.3967,-0.5363,-0.5343,-0.4022,-0.4922,-0.6321,-0.6611,-0.8276,-1.0236,-1.2827,-1.7415,-2.3392,-2.8946,-3.2415,-3.4347,-3.5543,-3.751,-3.8794,-3.942,-3.9902,-4.046,-4.1243,-4.1654,-4.2239,-4.2959,-4.3171,-4.3382,-4.3772,-4.4036,-4.4036,-4.4005,-4.3974,-4.4005,-4.4005,-4.4005,-4.4079,-4.4035,-4.3823,-4.3791,-4.396,-4.403,-4.4007,-4.4134,-4.3926,-4.3912,-4.4056,-4.3976,-4.3824,0.7552,0.727,0.7564,0.7376,0.693,0.7183,0.6751,0.5802,0.4092,0.3321,0.2793,0.0672,-0.0336,-0.0224,-0.1009,-0.157,-0.1907,-0.2468,-0.2803,-0.3026,-0.3363,-0.4036,-0.4931,-0.5599,-0.6265,-0.7487,-0.8823,-0.9489,-0.9599,-1.0903,-1.1571,-1.1727,-1.2543,-1.3059,-1.327,-1.3628,-1.3947,-1.4048,-1.4454,-1.4254,-1.354,-1.2314,-1.1392,-1.0582,-0.9164,-0.8422,-0.8282,-0.8272,-0.8381,-0.8567,-0.853,-0.8537,-0.8511,-0.6797,-0.5504,-0.4968,-0.3458,-0.2258,-0.2329,-0.2428,-0.2837,-0.3242,-0.3235,-0.3739,-0.4623,-0.44,-0.4472,-0.5541,-0.6426,-0.6221,-0.5022,-0.5917,-0.7012,-0.7595,-0.8375,-1.1057,-1.481,-1.9264,-2.4647,-2.9956,-3.3141,-3.4559,-3.5904,-3.7668,-3.8701,-3.9189,-3.968,-4.0152,-4.0897,-4.1349,-4.1943,-4.2535,-4.2905,-4.3175,-4.3579,-4.3763,-4.3873,-4.3923,-4.3942,-4.3974,-4.4005,-4.4005,-4.4036,-4.4067,-4.3899,-4.3893,-4.4044,-4.4082,-4.4092,-4.4346,-4.4402,-4.4243,-4.4073,-4.4233,-4.4143,0.7046,0.6374,0.6818,0.6374,0.5594,0.6478,0.5808,0.4027,0.324,0.2235,0.0895,-0.0336,-0.1121,-0.1458,-0.1907,-0.2356,-0.2805,-0.3365,-0.381,-0.4369,-0.4706,-0.5043,-0.5375,-0.6487,-0.7376,-0.8156,-0.9044,-0.9599,-1.0036,-1.1017,-1.1801,-1.2288,-1.2805,-1.3226,-1.3604,-1.402,-1.4304,-1.4407,-1.482,-1.4922,-1.461,-1.2946,-1.1709,-1.1498,-0.9611,-0.8414,-0.8323,-0.8306,-0.8343,-0.8438,-0.8442,-0.8462,-0.8167,-0.6368,-0.532,-0.5126,-0.3092,-0.212,-0.1989,-0.2613,-0.3009,-0.3178,-0.3173,-0.3433,-0.5271,-0.5275,-0.556,-0.6939,-0.773,-0.7733,-0.6828,-0.7415,-0.8492,-0.9465,-1.0032,-1.3472,-2.0395,-2.1957,-2.5491,-3.059,-3.3279,-3.464,-3.5919,-3.8044,-3.881,-3.9169,-3.9679,-4.0137,-4.0319,-4.0763,-4.1261,-4.1831,-4.2397,-4.2849,-4.3213,-4.3529,-4.3631,-4.3631,-4.3716,-4.3846,-4.3974,-4.4005,-4.4005,-4.4005,-4.4005,-4.4005,-4.4017,-4.4079,-4.4079,-4.414,-4.4109,-4.4036,-4.4109,-4.4231,-4.4318,0.5817,0.5706,0.5817,0.5258,0.4477,0.4698,0.4249,0.3019,0.1902,0.1119,0.0336,-0.0672,-0.1683,-0.2356,-0.2468,-0.2806,-0.3363,-0.4033,-0.4482,-0.4817,-0.5601,-0.6158,-0.6599,-0.7376,-0.8042,-0.8702,-0.9261,-1.0036,-1.0802,-1.135,-1.2077,-1.3014,-1.2989,-1.351,-1.4194,-1.4228,-1.4365,-1.4561,-1.4873,-1.466,-1.3822,-1.276,-1.1709,-1.0754,-0.9282,-0.8476,-0.8428,-0.8425,-0.8323,-0.8174,-0.8272,-0.8381,-0.8364,-0.6995,-0.5963,-0.5279,-0.4647,-0.344,-0.2439,-0.348,-0.4103,-0.3571,-0.4065,-0.5101,-0.6261,-0.6253,-0.6721,-0.7572,-0.8035,-0.8038,-0.7723,-0.8014,-0.8992,-1.0728,-1.2945,-1.6443,-2.0713,-2.3373,-2.6381,-3.2134,-3.3554,-3.4961,-3.6961,-3.8286,-3.904,-3.9185,-3.9644,-4.0138,-4.0204,-4.04,-4.0915,-4.134,-4.1902,-4.2386,-4.2828,-4.3178,-4.3339,-4.3339,-4.341,-4.3597,-4.3795,-4.4005,-4.4005,-4.4005,-4.4005,-4.4005,-4.4005,-4.4036,-4.4005,-4.4005,-4.4005,-4.4005,-4.4079,-4.4192,-4.4318,0.526,0.5039,0.526,0.4814,0.392,0.3918,0.3245,0.2014,0.1119,0.0,-0.0896,-0.157,-0.2355,-0.3029,-0.3363,-0.3586,-0.4035,-0.4704,-0.5152,-0.5377,-0.6049,-0.6715,-0.7154,-0.7709,-0.8263,-0.8813,-0.9482,-1.0143,-1.0692,-1.135,-1.2005,-1.2432,-1.2772,-1.331,-1.3932,-1.4051,-1.4177,-1.4607,-1.4924,-1.4707,-1.3959,-1.2777,-1.1916,-1.0833,-0.9559,-0.8434,-0.8378,-0.8411,-0.8391,-0.8272,-0.8269,-0.8336,-0.8351,-0.7363,-0.6453,-0.5917,-0.5607,-0.4601,-0.3695,-0.4517,-0.5022,-0.4794,-0.5222,-0.5952,-0.6935,-0.7024,-0.7085,-0.8037,-0.8571,-0.8858,-0.9086,-0.9642,-1.1264,-1.3688,-1.6448,-1.9063,-2.1341,-2.3252,-2.7182,-3.1478,-3.3891,-3.5067,-3.7833,-3.8715,-3.9089,-3.9305,-3.9696,-3.9969,-4.0121,-4.0368,-4.0754,-4.1318,-4.176,-4.2284,-4.2559,-4.2844,-4.3032,-4.3032,-4.3304,-4.3461,-4.3664,-4.3923,-4.4005,-4.4005,-4.4005,-4.4005,-4.4005,-4.4005,-4.4005,-4.4005,-4.4005,-4.4005,-4.4079,-4.4091,-4.4221,0.4925,0.448,0.4925,0.459,0.3474,0.347,0.2351,0.0784,0.0,-0.112,-0.2355,-0.2693,-0.3139,-0.3699,-0.4145,-0.4592,-0.4704,-0.5375,-0.5822,-0.6044,-0.649,-0.6935,-0.7268,-0.7712,-0.8263,-0.8706,-0.9372,-1.0036,-1.0582,-1.124,-1.1568,-1.1896,-1.2219,-1.2659,-1.3197,-1.3393,-1.3835,-1.425,-1.4561,-1.4561,-1.4121,-1.2817,-1.1724,-1.1067,-0.9541,-0.85,-0.8406,-0.8415,-0.8537,-0.853,-0.8381,-0.8391,-0.8367,-0.7437,-0.6945,-0.6839,-0.6238,-0.5767,-0.5254,-0.5383,-0.5858,-0.6251,-0.587,-0.6266,-0.7792,-0.7697,-0.7697,-0.8832,-0.9618,-1.0113,-1.0852,-1.2203,-1.4295,-1.6511,-1.8886,-2.0365,-2.1418,-2.3411,-2.6932,-3.1626,-3.3804,-3.5599,-3.7588,-3.9007,-3.9811,-3.9935,-4.0294,-4.078,-4.09,-4.106,-4.1263,-4.1551,-4.1955,-4.2284,-4.2458,-4.2552,-4.2673,-4.2788,-4.3214,-4.3461,-4.3631,-4.3828,-4.3942,-4.4005,-4.4005,-4.4005,-4.4005,-4.4005,-4.4005,-4.4005,-4.4005,-4.4005,-4.4005,-4.4036,-4.414,0.3923,0.381,0.3923,0.3361,0.2353,0.1343,0.0224,-0.0896,-0.2128,-0.2801,-0.3363,-0.3365,-0.381,-0.4367,-0.4704,-0.5041,-0.5487,-0.5935,-0.627,-0.6601,-0.6932,-0.7154,-0.7379,-0.7823,-0.8263,-0.8813,-0.9482,-1.0147,-1.0802,-1.0911,-1.135,-1.2114,-1.1782,-1.2001,-1.2545,-1.2654,-1.298,-1.3521,-1.3846,-1.3846,-1.3413,-1.2309,-1.1214,-1.0233,-0.9144,-0.8475,-0.8232,-0.8526,-0.8729,-0.8553,-0.8501,-0.8523,-0.8515,-0.8401,-0.7898,-0.7451,-0.7719,-0.7267,-0.6162,-0.6958,-0.7928,-0.7284,-0.7731,-0.8513,-0.884,-0.8712,-0.9008,-0.9996,-1.0404,-1.1326,-1.2698,-1.4737,-1.6361,-1.8011,-2.0118,-2.2249,-2.3855,-2.5985,-2.9198,-3.2533,-3.4596,-3.6138,-3.8981,-4.0037,-4.0541,-4.0614,-4.1067,-4.1673,-4.1784,-4.1742,-4.1929,-4.2126,-4.2168,-4.2501,-4.2629,-4.2673,-4.2652,-4.2826,-4.3196,-4.3529,-4.3664,-4.3795,-4.3942,-4.4005,-4.4005,-4.4005,-4.4005,-4.4005,-4.4005,-4.4005,-4.4005,-4.4005,-4.4005,-4.4005,-4.4005,0.3362,0.325,0.2576,0.2016,0.1344,-0.0224,-0.1344,-0.1903,-0.3025,-0.3811,-0.4035,-0.4035,-0.4369,-0.4931,-0.5152,-0.5489,-0.5822,-0.627,-0.6604,-0.6935,-0.7154,-0.7268,-0.749,-0.7823,-0.8263,-0.8816,-0.9482,-1.0143,-1.0582,-1.0802,-1.1017,-1.1564,-1.135,-1.1459,-1.1891,-1.2001,-1.2332,-1.2876,-1.3305,-1.3305,-1.2985,-1.1878,-1.0339,-0.914,-0.8374,-0.8156,-0.8039,-0.8484,-0.8706,-0.8673,-0.8672,-0.8723,-0.8777,-0.8754,-0.8352,-0.8238,-0.838,-0.8491,-0.7841,-0.8097,-0.866,-0.818,-0.8838,-0.9423,-0.9756,-0.9909,-1.0485,-1.1555,-1.2242,-1.3209,-1.4584,-1.5251,-1.6907,-1.9117,-2.0679,-2.2975,-2.5747,-2.7624,-2.9558,-3.28,-3.4808,-3.6729,-3.8758,-4.0434,-4.1444,-4.1527,-4.156,-4.2151,-4.2224,-4.2244,-4.2624,-4.28,-4.2634,-4.2665,-4.2887,-4.2871,-4.2765,-4.2939,-4.3286,-4.3597,-4.3828,-4.3892,-4.4005,-4.4005,-4.4005,-4.4005,-4.4005,-4.4005,-4.4005,-4.4005,-4.4005,-4.4005,-4.4005,-4.4005,-4.4005,0.3137,0.2913,0.1456,0.0895,0.0448,-0.1455,-0.2351,-0.2464,-0.3473,-0.4258,-0.4592,-0.4706,-0.4929,-0.5377,-0.5712,-0.5935,-0.6156,-0.649,-0.6935,-0.7043,-0.7154,-0.7379,-0.7604,-0.7826,-0.8263,-0.8595,-0.9372,-1.0033,-1.0257,-1.0476,-1.0802,-1.0798,-1.0802,-1.1021,-1.1345,-1.1459,-1.1787,-1.2332,-1.2876,-1.298,-1.2762,-1.1551,-0.9904,-0.8152,-0.7826,-0.7934,-0.7934,-0.8266,-0.8488,-0.8826,-0.8823,-0.8826,-0.8906,-0.8838,-0.8811,-0.885,-0.885,-0.8954,-0.8984,-0.9099,-0.9058,-0.9121,-0.9328,-0.9995,-1.0846,-1.1325,-1.1935,-1.2986,-1.4072,-1.5158,-1.6138,-1.6838,-1.8067,-2.0271,-2.1346,-2.3855,-2.7225,-2.8754,-2.9865,-3.2281,-3.5197,-3.7563,-3.919,-4.0796,-4.1683,-4.2433,-4.2479,-4.2574,-4.2753,-4.2997,-4.3432,-4.3722,-4.3651,-4.3446,-4.3614,-4.34,-4.3219,-4.3268,-4.3558,-4.3686,-4.3915,-4.3974,-4.4005,-4.4005,-4.4005,-4.4005,-4.4005,-4.4005,-4.4005,-4.4005,-4.4005,-4.4005,-4.4005,-4.4005,-4.4005,0.3025,0.224,0.1567,0.0784,-0.0112,-0.2125,-0.3022,-0.3245,-0.448,-0.5156,-0.5156,-0.527,-0.5377,-0.5712,-0.6049,-0.627,-0.649,-0.6824,-0.6935,-0.6935,-0.7043,-0.7379,-0.7604,-0.7937,-0.8263,-0.8923,-0.9482,-0.9816,-1.0036,-1.0366,-1.0692,-1.0692,-1.0692,-1.0802,-1.0907,-1.0907,-1.124,-1.1787,-1.2332,-1.2432,-1.21,-1.1223,-0.9684,-0.7598,-0.7604,-0.7604,-0.7715,-0.7934,-0.8266,-0.8488,-0.8595,-0.8709,-0.8819,-0.8903,-0.8957,-0.9022,-0.9095,-0.9411,-1.007,-0.9771,-1.0328,-1.1209,-1.1168,-1.1255,-1.2176,-1.2491,-1.3204,-1.4275,-1.5434,-1.6291,-1.6302,-1.7597,-1.9733,-2.1562,-2.3036,-2.5328,-2.8733,-2.9863,-3.0385,-3.3122,-3.5806,-3.804,-3.9258,-4.0704,-4.2064,-4.2816,-4.3013,-4.3462,-4.4002,-4.4216,-4.4492,-4.4706,-4.4787,-4.4563,-4.4453,-4.4083,-4.3839,-4.3815,-4.3941,-4.387,-4.3994,-4.3979,-4.4042,-4.4253,-4.417,-4.4005,-4.4005,-4.4023,-4.4005,-4.4005,-4.4005,-4.4005,-4.4005,-4.4005,-4.4005,0.2802,0.1905,0.056,-0.056,-0.1679,-0.347,-0.4255,-0.4369,-0.5044,-0.5382,-0.5382,-0.5382,-0.5493,-0.5714,-0.5935,-0.6158,-0.6492,-0.6824,-0.6824,-0.6824,-0.7046,-0.7487,-0.7715,-0.7934,-0.8377,-0.893,-0.9485,-0.9926,-1.0033,-1.0472,-1.0692,-1.0692,-1.0692,-1.0692,-1.0692,-1.0802,-1.1021,-1.1568,-1.211,-1.2436,-1.2318,-1.1332,-0.9464,-0.7928,-0.7379,-0.7493,-0.7604,-0.7826,-0.8156,-0.8484,-0.8598,-0.8712,-0.8937,-0.8944,-0.8967,-0.913,-0.9525,-1.0097,-1.0907,-1.0835,-1.1647,-1.2434,-1.2279,-1.2794,-1.3626,-1.4071,-1.4498,-1.5507,-1.5969,-1.6501,-1.6612,-1.837,-1.9946,-2.1518,-2.3143,-2.5932,-2.889,-2.9784,-3.1644,-3.3913,-3.623,-3.7895,-3.872,-4.0334,-4.2235,-4.3092,-4.3376,-4.4078,-4.4838,-4.4957,-4.4985,-4.5429,-4.5445,-4.5249,-4.5086,-4.4862,-4.4542,-4.4487,-4.4382,-4.4299,-4.4291,-4.4343,-4.4573,-4.4856,-4.4626,-4.4262,-4.4042,-4.4011,-4.4023,-4.4023,-4.4005,-4.4005,-4.4005,-4.4005,-4.4098,0.2578,0.1458,-0.0336,-0.1679,-0.2913,-0.4482,-0.5156,-0.527,-0.527,-0.5382,-0.5382,-0.5382,-0.5382,-0.5603,-0.5824,-0.6047,-0.6274,-0.6604,-0.6712,-0.6826,-0.7157,-0.7601,-0.7931,-0.8156,-0.8488,-0.9044,-0.9379,-0.9926,-1.0147,-1.0472,-1.0692,-1.0692,-1.0692,-1.0692,-1.0692,-1.0692,-1.1021,-1.1459,-1.211,-1.2659,-1.2327,-1.1114,-0.9354,-0.7487,-0.7154,-0.7379,-0.7604,-0.7826,-0.8156,-0.8488,-0.893,-0.9265,-0.9265,-0.9265,-0.9386,-0.9735,-1.0366,-1.0888,-1.177,-1.1882,-1.2576,-1.3689,-1.3492,-1.4055,-1.4815,-1.5233,-1.5597,-1.6345,-1.6932,-1.6747,-1.6987,-1.838,-1.988,-2.114,-2.2908,-2.5013,-2.8295,-3.0283,-3.1711,-3.3914,-3.6323,-3.7943,-3.8892,-3.9847,-4.1755,-4.252,-4.2876,-4.3505,-4.4215,-4.4695,-4.4974,-4.5737,-4.597,-4.5784,-4.5666,-4.5701,-4.5373,-4.5185,-4.5038,-4.4857,-4.4821,-4.4803,-4.5058,-4.5314,-4.5164,-4.4813,-4.4448,-4.4128,-4.4151,-4.4151,-4.4066,-4.3974,-4.3878,-4.4188,-4.4512,0.2577,0.0897,0.0112,-0.1121,-0.2803,-0.4147,-0.4594,-0.4706,-0.5156,-0.5382,-0.5382,-0.5382,-0.5491,-0.5714,-0.6049,-0.6163,-0.6383,-0.6495,-0.6715,-0.6826,-0.7271,-0.7715,-0.8045,-0.8374,-0.8712,-0.9158,-0.9379,-0.9599,-0.9926,-1.0363,-1.0692,-1.0692,-1.0692,-1.0692,-1.0692,-1.0692,-1.0692,-1.1017,-1.1891,-1.1996,-1.1223,-1.0017,-0.8699,-0.7706,-0.7265,-0.7379,-0.7607,-0.7826,-0.8156,-0.8595,-0.9585,-1.0131,-1.0457,-1.0457,-1.1207,-1.1576,-1.1674,-1.1625,-1.3226,-1.3247,-1.3645,-1.4724,-1.4631,-1.4847,-1.5557,-1.6118,-1.6288,-1.6048,-1.7495,-1.7987,-1.7811,-1.9964,-2.1144,-2.1985,-2.3037,-2.5762,-2.871,-3.0707,-3.215,-3.4379,-3.6866,-3.8267,-3.9324,-4.0217,-4.1075,-4.1771,-4.2379,-4.307,-4.3879,-4.4478,-4.502,-4.5798,-4.643,-4.6346,-4.6284,-4.629,-4.6055,-4.5825,-4.5627,-4.5403,-4.5344,-4.5342,-4.5435,-4.5603,-4.5553,-4.551,-4.521,-4.4894,-4.4539,-4.4434,-4.4512,-4.4156,-4.3697,-4.4188,-4.5018,0.1906,0.0112,-0.0448,-0.1679,-0.3251,-0.4145,-0.448,-0.4592,-0.4817,-0.5044,-0.5382,-0.5382,-0.5493,-0.5605,-0.5717,-0.5828,-0.6049,-0.6381,-0.6604,-0.6824,-0.7271,-0.7718,-0.8045,-0.8374,-0.8709,-0.9047,-0.9268,-0.9489,-0.971,-1.0147,-1.0472,-1.0688,-1.0692,-1.0692,-1.0692,-1.0692,-1.0911,-1.1455,-1.2219,-1.2436,-1.1551,-1.0453,-0.9361,-0.8263,-0.7601,-0.7382,-0.7724,-0.8484,-0.8592,-0.9047,-1.0307,-1.1202,-1.1169,-1.141,-1.2381,-1.3292,-1.3252,-1.3583,-1.4404,-1.4456,-1.5098,-1.5769,-1.5775,-1.5781,-1.6423,-1.7039,-1.7348,-1.713,-1.8639,-1.9016,-1.8776,-2.0651,-2.2057,-2.3064,-2.3976,-2.6793,-2.9399,-3.0925,-3.283,-3.517,-3.724,-3.8532,-3.9627,-4.0332,-4.1024,-4.1591,-4.2205,-4.286,-4.3879,-4.4898,-4.539,-4.587,-4.6489,-4.691,-4.691,-4.6906,-4.6567,-4.6302,-4.6109,-4.5965,-4.5902,-4.5897,-4.6051,-4.64,-4.6684,-4.6481,-4.6104,-4.5635,-4.5179,-4.5111,-4.5064,-4.479,-4.462,-4.5253,-4.6001,0.1345,-0.0336,-0.0672,-0.1904,-0.3587,-0.4145,-0.4367,-0.448,-0.4706,-0.5043,-0.527,-0.5382,-0.5382,-0.5382,-0.5491,-0.5714,-0.5935,-0.6272,-0.6604,-0.6937,-0.7382,-0.7826,-0.8045,-0.8374,-0.8712,-0.8937,-0.9158,-0.9268,-0.9599,-0.9926,-1.0253,-1.0582,-1.0692,-1.0692,-1.0692,-1.0802,-1.0907,-1.1564,-1.2219,-1.2465,-1.1941,-1.1021,-1.0193,-0.921,-0.8313,-0.7516,-0.8239,-0.9099,-0.9425,-0.9672,-1.1735,-1.2717,-1.2151,-1.2621,-1.3686,-1.4418,-1.4363,-1.4839,-1.5504,-1.5985,-1.6387,-1.6789,-1.7123,-1.7238,-1.7438,-1.8243,-1.8625,-1.8283,-1.9758,-2.0097,-2.0163,-2.1427,-2.3001,-2.4431,-2.5714,-2.8307,-3.0617,-3.1928,-3.3739,-3.6142,-3.8008,-3.8957,-3.9929,-4.0531,-4.1024,-4.1459,-4.2013,-4.2629,-4.3723,-4.5022,-4.5545,-4.5938,-4.6381,-4.6898,-4.7143,-4.7106,-4.6852,-4.6733,-4.6542,-4.6428,-4.6367,-4.65,-4.6693,-4.7108,-4.756,-4.7569,-4.7206,-4.65,-4.5838,-4.5642,-4.5552,-4.5719,-4.587,-4.645,-4.686,0.1121,0.0,0.0224,-0.1233,-0.3587,-0.3587,-0.4033,-0.448,-0.5044,-0.527,-0.5382,-0.5382,-0.5382,-0.5493,-0.5603,-0.5826,-0.6272,-0.6492,-0.6824,-0.7157,-0.7712,-0.7823,-0.8156,-0.838,-0.8826,-0.8826,-0.8937,-0.9158,-0.9379,-0.9706,-1.0036,-1.0257,-1.0582,-1.0692,-1.0692,-1.0692,-1.1021,-1.1463,-1.1919,-1.2124,-1.1713,-1.0937,-1.0297,-1.0447,-0.8874,-0.7924,-0.9526,-1.0209,-1.0471,-1.0591,-1.3121,-1.4172,-1.3696,-1.4051,-1.4894,-1.547,-1.5223,-1.5725,-1.6759,-1.6826,-1.6919,-1.7727,-1.8411,-1.8724,-1.8702,-1.927,-1.9382,-1.9477,-2.0712,-2.0986,-2.1449,-2.2585,-2.4307,-2.5689,-2.716,-2.9368,-3.1371,-3.2623,-3.455,-3.7153,-3.8694,-3.9662,-4.0293,-4.0873,-4.1091,-4.1525,-4.2205,-4.2814,-4.3814,-4.4895,-4.5494,-4.5953,-4.6284,-4.6684,-4.707,-4.7035,-4.691,-4.6892,-4.6766,-4.682,-4.682,-4.7017,-4.7129,-4.75,-4.7852,-4.808,-4.8199,-4.7444,-4.6742,-4.621,-4.6046,-4.6319,-4.6685,-4.7124,-4.7481,0.1207,0.0218,0.0778,-0.0336,-0.2579,-0.3251,-0.3699,-0.4035,-0.4594,-0.5044,-0.5382,-0.5382,-0.5382,-0.5382,-0.5491,-0.5826,-0.6274,-0.6386,-0.6712,-0.7154,-0.749,-0.7715,-0.794,-0.8159,-0.838,-0.8598,-0.8709,-0.8823,-0.9047,-0.9379,-0.9706,-1.0036,-1.0472,-1.0692,-1.0692,-1.0692,-1.1025,-1.1393,-1.1793,-1.202,-1.2492,-1.1126,-1.0497,-1.0918,-0.9756,-0.901,-1.0022,-1.1697,-1.2016,-1.272,-1.4627,-1.5087,-1.5066,-1.5461,-1.5952,-1.6432,-1.5929,-1.6652,-1.7464,-1.7405,-1.7649,-1.8554,-1.9305,-1.9832,-1.9896,-2.0497,-2.0895,-2.1227,-2.1756,-2.2168,-2.2818,-2.4072,-2.5586,-2.686,-2.8691,-3.0843,-3.266,-3.4165,-3.5548,-3.8222,-3.9397,-4.0324,-4.0789,-4.1327,-4.1393,-4.1591,-4.2332,-4.312,-4.4118,-4.493,-4.5563,-4.6102,-4.6477,-4.6684,-4.7043,-4.7043,-4.6998,-4.6998,-4.6998,-4.7043,-4.707,-4.7294,-4.7421,-4.7811,-4.8053,-4.8233,-4.8254,-4.8089,-4.7703,-4.7169,-4.7003,-4.7112,-4.7462,-4.7757,-4.7848,0.1527,0.097,0.1108,0.0,-0.1894,-0.2796,-0.3474,-0.3921,-0.4369,-0.4706,-0.5156,-0.527,-0.5382,-0.5382,-0.5493,-0.5828,-0.6274,-0.6497,-0.6826,-0.7157,-0.7493,-0.7607,-0.7718,-0.7826,-0.8156,-0.8374,-0.8484,-0.8598,-0.8823,-0.9158,-0.9599,-0.9926,-1.0253,-1.0582,-1.0692,-1.0696,-1.0936,-1.1351,-1.1543,-1.2181,-1.281,-1.1155,-1.1185,-1.1541,-1.045,-1.0353,-1.1325,-1.2952,-1.3585,-1.4088,-1.5292,-1.6211,-1.6267,-1.6243,-1.6738,-1.6839,-1.6857,-1.72,-1.7933,-1.839,-1.8985,-2.0037,-2.0971,-2.117,-2.124,-2.2013,-2.2306,-2.2201,-2.3063,-2.3762,-2.4245,-2.5925,-2.7752,-2.9365,-3.1513,-3.3521,-3.5168,-3.6716,-3.769,-3.9171,-4.0227,-4.1473,-4.2248,-4.2812,-4.2831,-4.2891,-4.3169,-4.3864,-4.4601,-4.532,-4.5835,-4.6315,-4.6731,-4.6888,-4.7043,-4.6998,-4.6998,-4.6998,-4.7043,-4.7116,-4.7205,-4.7425,-4.7705,-4.8053,-4.8269,-4.8383,-4.8252,-4.8027,-4.8064,-4.8121,-4.7959,-4.7721,-4.7776,-4.7977,-4.784,0.2107,0.2412,0.1447,-0.0222,-0.1865,-0.2225,-0.3024,-0.4145,-0.4369,-0.448,-0.4706,-0.5044,-0.5382,-0.5382,-0.5603,-0.5826,-0.6161,-0.6495,-0.6824,-0.7157,-0.7382,-0.7496,-0.7607,-0.7826,-0.7931,-0.8045,-0.8266,-0.8484,-0.8595,-0.9044,-0.9485,-0.9831,-1.0284,-1.0512,-1.07,-1.07,-1.0789,-1.1052,-1.1093,-1.1761,-1.2147,-1.0864,-1.1573,-1.2582,-1.1536,-1.131,-1.284,-1.4103,-1.4634,-1.5003,-1.6068,-1.6815,-1.6774,-1.6732,-1.6952,-1.7047,-1.7022,-1.8006,-1.9814,-2.0361,-2.0918,-2.1723,-2.2461,-2.302,-2.3347,-2.3636,-2.3751,-2.373,-2.4375,-2.4932,-2.6104,-2.7842,-2.9773,-3.1623,-3.3597,-3.5566,-3.7125,-3.8592,-3.9465,-4.0247,-4.1516,-4.2838,-4.379,-4.4464,-4.4459,-4.4437,-4.438,-4.4759,-4.5353,-4.5717,-4.6168,-4.6525,-4.6934,-4.6934,-4.6998,-4.6998,-4.6998,-4.6998,-4.7025,-4.7116,-4.7338,-4.7536,-4.7893,-4.8249,-4.8269,-4.8231,-4.8075,-4.7915,-4.8014,-4.8132,-4.8307,-4.8218,-4.8251,-4.8114,-4.7977,0.2075,0.2588,0.2218,0.1443,0.0219,-0.1335,-0.2466,-0.3251,-0.3699,-0.4147,-0.448,-0.4706,-0.5044,-0.5268,-0.5491,-0.5712,-0.5935,-0.6272,-0.6604,-0.6935,-0.7157,-0.7268,-0.7379,-0.749,-0.7604,-0.7826,-0.8048,-0.8377,-0.8484,-0.8947,-0.9382,-0.9831,-1.0389,-1.0763,-1.0879,-1.0887,-1.0964,-1.1131,-1.1368,-1.1853,-1.2777,-1.1892,-1.1852,-1.3899,-1.2658,-1.2794,-1.4009,-1.4862,-1.544,-1.5787,-1.685,-1.7146,-1.7292,-1.728,-1.7746,-1.8218,-1.8454,-1.9594,-2.1287,-2.2147,-2.249,-2.3112,-2.3682,-2.4251,-2.4483,-2.4792,-2.5038,-2.5331,-2.5644,-2.6144,-2.7025,-2.8848,-3.0718,-3.2311,-3.4257,-3.6393,-3.8185,-3.96,-4.0689,-4.1414,-4.2452,-4.3838,-4.4885,-4.5795,-4.5957,-4.6034,-4.601,-4.5874,-4.6248,-4.6305,-4.6542,-4.6778,-4.7025,-4.6998,-4.7033,-4.7319,-4.739,-4.739,-4.724,-4.7116,-4.7363,-4.7832,-4.7979,-4.8315,-4.8224,-4.8053,-4.8129,-4.8174,-4.8002,-4.8072,-4.8543,-4.8491,-4.8192,-4.8114,-4.7977,0.2281,0.2911,0.2754,0.2321,0.1536,-0.0334,-0.1682,-0.2693,-0.3365,-0.3699,-0.3921,-0.4257,-0.4706,-0.5044,-0.527,-0.5491,-0.5822,-0.6161,-0.6495,-0.6715,-0.7043,-0.7154,-0.7265,-0.7271,-0.7527,-0.7636,-0.7958,-0.8168,-0.8571,-0.8903,-0.9391,-1.0025,-1.0545,-1.098,-1.1114,-1.1135,-1.1143,-1.1297,-1.154,-1.1976,-1.2544,-1.2503,-1.2453,-1.355,-1.376,-1.3904,-1.451,-1.5353,-1.6194,-1.6655,-1.712,-1.7707,-1.8058,-1.8629,-1.908,-1.9774,-2.0573,-2.1358,-2.2484,-2.3933,-2.4242,-2.4619,-2.475,-2.5138,-2.5715,-2.6023,-2.6315,-2.6607,-2.6968,-2.758,-2.8472,-3.0285,-3.2007,-3.3654,-3.5737,-3.7921,-3.9669,-4.114,-4.1858,-4.2636,-4.3314,-4.4628,-4.5978,-4.6824,-4.7504,-4.7574,-4.7562,-4.742,-4.7174,-4.7098,-4.7068,-4.7183,-4.7464,-4.7561,-4.7693,-4.7943,-4.7961,-4.7836,-4.7786,-4.7761,-4.7969,-4.8489,-4.8425,-4.8393,-4.8439,-4.8483,-4.8484,-4.8484,-4.8621,-4.8875,-4.9349,-4.9038,-4.8318,-4.8196,-4.8257,0.2735,0.3282,0.2846,0.2522,0.1976,0.0556,-0.1009,-0.2581,-0.3253,-0.3253,-0.2806,-0.3921,-0.4369,-0.4594,-0.5044,-0.5491,-0.5712,-0.6049,-0.6381,-0.6604,-0.6935,-0.7046,-0.7154,-0.7157,-0.7418,-0.7685,-0.7915,-0.8236,-0.8675,-0.9117,-0.9642,-1.0252,-1.064,-1.1089,-1.1253,-1.1378,-1.1382,-1.1492,-1.1545,-1.2094,-1.2653,-1.2457,-1.3195,-1.4033,-1.4391,-1.4629,-1.5235,-1.607,-1.6307,-1.7003,-1.7917,-1.8732,-1.9537,-2.0444,-2.0902,-2.1472,-2.2281,-2.2974,-2.364,-2.5084,-2.5845,-2.6082,-2.6191,-2.6698,-2.7084,-2.733,-2.7593,-2.8114,-2.857,-2.9382,-3.0356,-3.2118,-3.387,-3.5744,-3.7764,-3.9668,-4.1454,-4.2569,-4.3139,-4.3807,-4.4353,-4.5461,-4.683,-4.7808,-4.8267,-4.8678,-4.8719,-4.8662,-4.8381,-4.7961,-4.7879,-4.7665,-4.7936,-4.8222,-4.8389,-4.8586,-4.8621,-4.8514,-4.888,-4.8974,-4.9094,-4.9029,-4.8986,-4.8944,-4.8894,-4.8942,-4.9173,-4.9374,-4.95,-4.9811,-5.0035,-4.9596,-4.8883,-4.8774,-4.8746,0.245,0.2896,0.2894,0.2892,0.2673,0.123,0.0,-0.1121,-0.1906,-0.2356,-0.2693,-0.3029,-0.3699,-0.448,-0.4706,-0.5043,-0.5489,-0.5824,-0.5935,-0.6267,-0.6712,-0.6824,-0.6937,-0.7054,-0.7299,-0.7558,-0.7921,-0.8164,-0.8485,-0.898,-0.9777,-1.0435,-1.0707,-1.1177,-1.1483,-1.1638,-1.1654,-1.1667,-1.1683,-1.2423,-1.3062,-1.308,-1.4038,-1.4639,-1.4997,-1.524,-1.5596,-1.6756,-1.6997,-1.6997,-1.8958,-1.9998,-1.9319,-2.0451,-2.1351,-2.2515,-2.3552,-2.4462,-2.5093,-2.5753,-2.6518,-2.7609,-2.7931,-2.8038,-2.8252,-2.8562,-2.8976,-2.9702,-3.0317,-3.0927,-3.1916,-3.3418,-3.5233,-3.7246,-3.8986,-4.0491,-4.2179,-4.3427,-4.4004,-4.4662,-4.5258,-4.6237,-4.7572,-4.808,-4.8612,-4.9337,-4.9681,-4.9609,-4.9462,-4.9061,-4.8621,-4.836,-4.8603,-4.896,-4.9032,-4.9192,-4.921,-4.9246,-4.9715,-4.9909,-4.9694,-4.9585,-4.9523,-4.9541,-4.9532,-4.9764,-5.0071,-5.0192,-5.0168,-5.0307,-5.0453,-5.0007,-4.9631,-4.9541,-4.9277,0.2676,0.3024,0.3227,0.3229,0.3024,0.1905,0.0897,0.0,-0.1234,-0.2019,-0.2356,-0.2581,-0.3141,-0.3699,-0.4258,-0.4704,-0.5041,-0.5599,-0.5822,-0.6044,-0.6379,-0.6601,-0.6829,-0.7086,-0.7348,-0.7595,-0.7853,-0.8237,-0.8455,-0.9148,-0.9945,-1.0617,-1.0882,-1.1303,-1.1607,-1.1748,-1.1805,-1.1934,-1.2172,-1.2741,-1.3333,-1.3933,-1.4759,-1.5364,-1.5601,-1.5601,-1.5833,-1.7214,-1.7566,-1.7683,-1.9991,-2.1252,-2.0923,-2.1941,-2.2733,-2.3896,-2.4667,-2.5331,-2.5981,-2.6834,-2.7707,-2.8562,-2.9418,-2.9817,-2.9922,-3.0026,-3.0845,-3.1677,-3.1982,-3.2488,-3.3464,-3.4618,-3.6612,-3.8501,-3.9761,-4.1013,-4.2445,-4.3959,-4.4812,-4.5536,-4.6308,-4.7221,-4.7934,-4.8356,-4.8673,-4.8999,-4.9433,-4.9799,-4.9872,-4.9844,-4.9355,-4.8966,-4.9388,-4.9799,-4.9834,-4.9942,-5.0174,-5.0365,-5.0785,-5.0836,-5.0433,-5.0262,-5.0326,-5.028,-5.0207,-5.0606,-5.1053,-5.0766,-5.0722,-5.0895,-5.1104,-5.0922,-5.0538,-5.0246,-4.9906,0.2977,0.3453,0.3514,0.3522,0.3463,0.2456,0.1566,0.0673,-0.1009,-0.1795,-0.1907,-0.2356,-0.2693,-0.3141,-0.3811,-0.4369,-0.4817,-0.5375,-0.571,-0.5822,-0.6267,-0.649,-0.6743,-0.703,-0.7247,-0.7522,-0.7938,-0.8244,-0.8838,-0.9389,-0.9961,-1.0778,-1.077,-1.1163,-1.1704,-1.1833,-1.1886,-1.2065,-1.2495,-1.3156,-1.3726,-1.4306,-1.4873,-1.5477,-1.5715,-1.5833,-1.6295,-1.7214,-1.837,-1.9408,-2.0902,-2.2733,-2.332,-2.3784,-2.447,-2.4915,-2.545,-2.5981,-2.6626,-2.7492,-2.8359,-2.9303,-3.0442,-3.1154,-3.1359,-3.137,-3.2185,-3.3254,-3.365,-3.4412,-3.5377,-3.6182,-3.7612,-3.9311,-4.0732,-4.2173,-4.3728,-4.4946,-4.5809,-4.6394,-4.688,-4.7638,-4.7934,-4.8292,-4.8719,-4.8793,-4.9171,-4.9752,-5.0307,-5.0449,-5.0225,-4.9799,-5.0191,-5.0602,-5.0691,-5.0852,-5.1262,-5.1558,-5.17,-5.1569,-5.103,-5.1016,-5.1174,-5.1156,-5.1156,-5.1637,-5.1964,-5.1602,-5.1384,-5.1664,-5.1777,-5.1868,-5.1513,-5.095,-5.0528,0.3046,0.3129,0.333,0.3466,0.3296,0.1759,0.1109,0.0673,-0.1009,-0.1794,-0.1795,-0.2019,-0.2244,-0.2805,-0.3475,-0.4033,-0.4592,-0.5154,-0.538,-0.5601,-0.5933,-0.6267,-0.6388,-0.6768,-0.7107,-0.7376,-0.7826,-0.8371,-0.9004,-0.9536,-1.0039,-1.077,-1.0804,-1.1221,-1.1914,-1.1922,-1.1975,-1.202,-1.2926,-1.3611,-1.3989,-1.4351,-1.4873,-1.5709,-1.6065,-1.6873,-1.7677,-1.9401,-1.9977,-2.0787,-2.2974,-2.4008,-2.4359,-2.4701,-2.4821,-2.4932,-2.567,-2.6409,-2.7159,-2.8038,-2.891,-2.9848,-3.0877,-3.188,-3.2488,-3.2689,-3.3377,-3.4533,-3.539,-3.6245,-3.7073,-3.7847,-3.8706,-4.0292,-4.1763,-4.3386,-4.493,-4.5809,-4.6742,-4.7153,-4.7505,-4.7721,-4.7934,-4.8306,-4.8668,-4.9084,-4.947,-5.0033,-5.084,-5.12,-5.1147,-5.0905,-5.1101,-5.1387,-5.1422,-5.1405,-5.1619,-5.169,-5.1714,-5.1607,-5.1549,-5.1616,-5.1726,-5.1953,-5.219,-5.2327,-5.2327,-5.218,-5.2105,-5.2108,-5.203,-5.1871,-5.1772,-5.1315,-5.103,0.3142,0.3204,0.3331,0.3467,0.3279,0.2422,0.1667,0.0783,-0.0223,-0.1114,-0.1793,-0.1795,-0.2019,-0.2468,-0.3139,-0.3699,-0.4257,-0.5044,-0.5382,-0.5491,-0.5601,-0.5933,-0.6168,-0.6529,-0.6751,-0.7126,-0.7873,-0.8543,-0.9093,-0.9633,-1.0127,-1.0675,-1.0963,-1.1275,-1.1836,-1.1979,-1.2032,-1.2028,-1.331,-1.4027,-1.4538,-1.523,-1.6053,-1.6762,-1.7343,-1.8027,-1.8945,-2.0437,-2.1237,-2.1934,-2.3656,-2.4479,-2.471,-2.4821,-2.4821,-2.5145,-2.5889,-2.6844,-2.7599,-2.8572,-2.9448,-3.0276,-3.1597,-3.2801,-3.3089,-3.34,-3.469,-3.575,-3.5916,-3.6684,-3.8068,-3.8911,-4.0391,-4.1889,-4.3135,-4.4538,-4.5618,-4.6502,-4.7372,-4.8081,-4.8146,-4.7951,-4.8211,-4.848,-4.8838,-4.9127,-4.9529,-5.0237,-5.0999,-5.1675,-5.1726,-5.1726,-5.1744,-5.1726,-5.1601,-5.1583,-5.1654,-5.169,-5.169,-5.1669,-5.1661,-5.194,-5.2214,-5.2307,-5.2353,-5.2371,-5.2343,-5.2203,-5.2078,-5.1902,-5.1822,-5.174,-5.169,-5.1622,-5.1262,0.3229,0.341,0.3451,0.3482,0.3503,0.344,0.246,0.1007,0.0663,-0.0332,-0.1681,-0.1795,-0.1795,-0.2243,-0.2915,-0.3251,-0.3811,-0.4707,-0.5156,-0.5268,-0.5601,-0.5712,-0.6074,-0.6451,-0.6661,-0.7279,-0.7999,-0.8386,-0.8787,-0.947,-1.0165,-1.0697,-1.1126,-1.1325,-1.1768,-1.1931,-1.2032,-1.2369,-1.3288,-1.4434,-1.5481,-1.6516,-1.7373,-1.804,-1.8732,-1.9074,-1.9977,-2.1009,-2.2153,-2.2958,-2.3999,-2.447,-2.4821,-2.4821,-2.5034,-2.5357,-2.6427,-2.7178,-2.7921,-2.9323,-2.9973,-3.0795,-3.2409,-3.33,-3.3598,-3.4581,-3.5787,-3.6452,-3.6722,-3.7678,-3.9054,-4.0419,-4.1903,-4.3081,-4.4266,-4.5311,-4.6221,-4.705,-4.7853,-4.8631,-4.8614,-4.8342,-4.8564,-4.8765,-4.9084,-4.9385,-4.9815,-5.0457,-5.1052,-5.1507,-5.1815,-5.1851,-5.1869,-5.1815,-5.1708,-5.169,-5.169,-5.169,-5.169,-5.174,-5.1822,-5.2173,-5.2389,-5.2361,-5.2408,-5.2343,-5.2173,-5.2048,-5.1871,-5.174,-5.174,-5.169,-5.169,-5.1589,-5.1263,0.3244,0.3339,0.3352,0.3409,0.3382,0.2855,0.1882,0.0896,0.0112,-0.0783,-0.1569,-0.1795,-0.1795,-0.1795,-0.2468,-0.2917,-0.3365,-0.4258,-0.4594,-0.4706,-0.538,-0.5601,-0.5833,-0.6312,-0.6681,-0.7334,-0.8028,-0.8509,-0.8913,-0.9637,-1.0425,-1.08,-1.1171,-1.1508,-1.1868,-1.2024,-1.2016,-1.2466,-1.3765,-1.5283,-1.6092,-1.7003,-1.7818,-1.8726,-1.9876,-2.078,-2.1813,-2.2862,-2.3664,-2.4248,-2.459,-2.471,-2.4821,-2.4923,-2.5238,-2.5771,-2.6853,-2.7716,-2.8572,-3.0037,-3.0774,-3.1187,-3.2689,-3.4091,-3.4666,-3.5547,-3.6615,-3.7361,-3.7991,-3.9401,-4.0689,-4.2,-4.3379,-4.3849,-4.4752,-4.5728,-4.6647,-4.7297,-4.7935,-4.8573,-4.8984,-4.8984,-4.9204,-4.9547,-4.9976,-5.0315,-5.068,-5.1263,-5.1615,-5.1787,-5.2029,-5.2118,-5.2208,-5.1833,-5.169,-5.169,-5.169,-5.169,-5.174,-5.1871,-5.2096,-5.2472,-5.2563,-5.2333,-5.2268,-5.225,-5.2078,-5.1871,-5.1772,-5.169,-5.169,-5.169,-5.164,-5.147,-5.114]}]]